<?xml version="1.0" encoding="UTF-8" standalone="no" ?>
<gpx xmlns="http://www.topografix.com/GPX/1/1" xmlns:xsi="http://www.w3.org/2001/XMLSchema-instance" xsi:schemaLocation="http://www.topografix.com/GPX/1/1 http://www.topografix.com/GPX/1/1/gpx.xsd" version="1.1" creator="VisuGPX - https://www.visugpx.com">
  <metadata>
    <name>Aigleton - Pas du pin</name>
    <desc><![CDATA[
]]></desc>
  </metadata>
  <trk>
    <name><![CDATA[Aigleton - Pas du pin_1]]></name>
    <extensions>
      <line xmlns="http://www.topografix.com/GPX/gpx_style/0/2">
        <color>0000FF</color>
        <width>4</width>
      </line>
    </extensions>
    <trkseg>
      <trkpt lat="45.22477" lon="5.99835">
        <ele>1323.4449462891</ele>
        <time>2017-03-24T08:07:04Z</time>
      </trkpt>
      <trkpt lat="45.22469" lon="5.99833">
        <ele>1336.4449462891</ele>
        <time>2017-03-24T08:08:10Z</time>
      </trkpt>
      <trkpt lat="45.22464" lon="5.99835">
        <ele>1336.4449462891</ele>
        <time>2017-03-24T08:08:14Z</time>
      </trkpt>
      <trkpt lat="45.2246" lon="5.99838">
        <ele>1336.4449462891</ele>
        <time>2017-03-24T08:08:19Z</time>
      </trkpt>
      <trkpt lat="45.22454" lon="5.99843">
        <ele>1335.4449462891</ele>
        <time>2017-03-24T08:08:23Z</time>
      </trkpt>
      <trkpt lat="45.22449" lon="5.99847">
        <ele>1331.4449462891</ele>
        <time>2017-03-24T08:08:26Z</time>
      </trkpt>
      <trkpt lat="45.22445" lon="5.99854">
        <ele>1327.4449462891</ele>
        <time>2017-03-24T08:08:32Z</time>
      </trkpt>
      <trkpt lat="45.22442" lon="5.9986">
        <ele>1324.4449462891</ele>
        <time>2017-03-24T08:08:35Z</time>
      </trkpt>
      <trkpt lat="45.22441" lon="5.99867">
        <ele>1324.4449462891</ele>
        <time>2017-03-24T08:08:38Z</time>
      </trkpt>
      <trkpt lat="45.22442" lon="5.99875">
        <ele>1319.4449462891</ele>
        <time>2017-03-24T08:08:45Z</time>
      </trkpt>
      <trkpt lat="45.22445" lon="5.99879">
        <ele>1322.4449462891</ele>
        <time>2017-03-24T08:08:49Z</time>
      </trkpt>
      <trkpt lat="45.22448" lon="5.99887">
        <ele>1325.4449462891</ele>
        <time>2017-03-24T08:08:53Z</time>
      </trkpt>
      <trkpt lat="45.22448" lon="5.99895">
        <ele>1326.4449462891</ele>
        <time>2017-03-24T08:08:58Z</time>
      </trkpt>
      <trkpt lat="45.22448" lon="5.99901">
        <ele>1332.4449462891</ele>
        <time>2017-03-24T08:09:05Z</time>
      </trkpt>
      <trkpt lat="45.22453" lon="5.99906">
        <ele>1337.4449462891</ele>
        <time>2017-03-24T08:09:09Z</time>
      </trkpt>
      <trkpt lat="45.22452" lon="5.99913">
        <ele>1339.4449462891</ele>
        <time>2017-03-24T08:09:14Z</time>
      </trkpt>
      <trkpt lat="45.22452" lon="5.99921">
        <ele>1341.4449462891</ele>
        <time>2017-03-24T08:09:20Z</time>
      </trkpt>
      <trkpt lat="45.22455" lon="5.99925">
        <ele>1342.4449462891</ele>
        <time>2017-03-24T08:09:24Z</time>
      </trkpt>
      <trkpt lat="45.2246" lon="5.99929">
        <ele>1346.4449462891</ele>
        <time>2017-03-24T08:09:27Z</time>
      </trkpt>
      <trkpt lat="45.22461" lon="5.99937">
        <ele>1349.4449462891</ele>
        <time>2017-03-24T08:09:32Z</time>
      </trkpt>
      <trkpt lat="45.2246" lon="5.99943">
        <ele>1348.4449462891</ele>
        <time>2017-03-24T08:09:38Z</time>
      </trkpt>
      <trkpt lat="45.22457" lon="5.99949">
        <ele>1348.4449462891</ele>
        <time>2017-03-24T08:09:43Z</time>
      </trkpt>
      <trkpt lat="45.22455" lon="5.99955">
        <ele>1346.4449462891</ele>
        <time>2017-03-24T08:09:47Z</time>
      </trkpt>
      <trkpt lat="45.22449" lon="5.99961">
        <ele>1345.4449462891</ele>
        <time>2017-03-24T08:09:52Z</time>
      </trkpt>
      <trkpt lat="45.22447" lon="5.99968">
        <ele>1348.4449462891</ele>
        <time>2017-03-24T08:09:58Z</time>
      </trkpt>
      <trkpt lat="45.22444" lon="5.99974">
        <ele>1347.4449462891</ele>
        <time>2017-03-24T08:10:01Z</time>
      </trkpt>
      <trkpt lat="45.22444" lon="5.99981">
        <ele>1350.4449462891</ele>
        <time>2017-03-24T08:10:06Z</time>
      </trkpt>
      <trkpt lat="45.22443" lon="5.99988">
        <ele>1348.4449462891</ele>
        <time>2017-03-24T08:10:11Z</time>
      </trkpt>
      <trkpt lat="45.22442" lon="5.99995">
        <ele>1351.4449462891</ele>
        <time>2017-03-24T08:10:19Z</time>
      </trkpt>
      <trkpt lat="45.22442" lon="6.00001">
        <ele>1356.4449462891</ele>
        <time>2017-03-24T08:10:24Z</time>
      </trkpt>
      <trkpt lat="45.2244" lon="6.00008">
        <ele>1354.4449462891</ele>
        <time>2017-03-24T08:10:28Z</time>
      </trkpt>
      <trkpt lat="45.22438" lon="6.00014">
        <ele>1359.4449462891</ele>
        <time>2017-03-24T08:10:38Z</time>
      </trkpt>
      <trkpt lat="45.22434" lon="6.00018">
        <ele>1358.4449462891</ele>
        <time>2017-03-24T08:10:48Z</time>
      </trkpt>
      <trkpt lat="45.22435" lon="6.00024">
        <ele>1360.4449462891</ele>
        <time>2017-03-24T08:10:58Z</time>
      </trkpt>
      <trkpt lat="45.22431" lon="6.00028">
        <ele>1367.4449462891</ele>
        <time>2017-03-24T08:11:03Z</time>
      </trkpt>
      <trkpt lat="45.22433" lon="6.00035">
        <ele>1367.4449462891</ele>
        <time>2017-03-24T08:11:06Z</time>
      </trkpt>
      <trkpt lat="45.22432" lon="6.00041">
        <ele>1367.4449462891</ele>
        <time>2017-03-24T08:11:13Z</time>
      </trkpt>
      <trkpt lat="45.2243" lon="6.00048">
        <ele>1371.4449462891</ele>
        <time>2017-03-24T08:11:20Z</time>
      </trkpt>
      <trkpt lat="45.22428" lon="6.00055">
        <ele>1370.4449462891</ele>
        <time>2017-03-24T08:11:27Z</time>
      </trkpt>
      <trkpt lat="45.22427" lon="6.00062">
        <ele>1369.4449462891</ele>
        <time>2017-03-24T08:11:32Z</time>
      </trkpt>
      <trkpt lat="45.22423" lon="6.00067">
        <ele>1372.4449462891</ele>
        <time>2017-03-24T08:11:38Z</time>
      </trkpt>
      <trkpt lat="45.22426" lon="6.00073">
        <ele>1371.4449462891</ele>
        <time>2017-03-24T08:11:40Z</time>
      </trkpt>
      <trkpt lat="45.22425" lon="6.0008">
        <ele>1372.4449462891</ele>
        <time>2017-03-24T08:11:50Z</time>
      </trkpt>
      <trkpt lat="45.22422" lon="6.00086">
        <ele>1372.4449462891</ele>
        <time>2017-03-24T08:12:03Z</time>
      </trkpt>
      <trkpt lat="45.22419" lon="6.00092">
        <ele>1377.4449462891</ele>
        <time>2017-03-24T08:12:07Z</time>
      </trkpt>
      <trkpt lat="45.22413" lon="6.00099">
        <ele>1383.4449462891</ele>
        <time>2017-03-24T08:12:11Z</time>
      </trkpt>
      <trkpt lat="45.22409" lon="6.00104">
        <ele>1382.4449462891</ele>
        <time>2017-03-24T08:12:13Z</time>
      </trkpt>
      <trkpt lat="45.22406" lon="6.00109">
        <ele>1381.4449462891</ele>
        <time>2017-03-24T08:12:21Z</time>
      </trkpt>
      <trkpt lat="45.22402" lon="6.00114">
        <ele>1384.4449462891</ele>
        <time>2017-03-24T08:12:29Z</time>
      </trkpt>
      <trkpt lat="45.22397" lon="6.00117">
        <ele>1388.4449462891</ele>
        <time>2017-03-24T08:12:33Z</time>
      </trkpt>
      <trkpt lat="45.22391" lon="6.00121">
        <ele>1389.4449462891</ele>
        <time>2017-03-24T08:12:41Z</time>
      </trkpt>
      <trkpt lat="45.22387" lon="6.00127">
        <ele>1386.4449462891</ele>
        <time>2017-03-24T08:12:49Z</time>
      </trkpt>
      <trkpt lat="45.22382" lon="6.00131">
        <ele>1385.4449462891</ele>
        <time>2017-03-24T08:12:53Z</time>
      </trkpt>
      <trkpt lat="45.22378" lon="6.00132">
        <ele>1386.4449462891</ele>
        <time>2017-03-24T08:12:56Z</time>
      </trkpt>
      <trkpt lat="45.22372" lon="6.00135">
        <ele>1384.4449462891</ele>
        <time>2017-03-24T08:13:01Z</time>
      </trkpt>
      <trkpt lat="45.22367" lon="6.00137">
        <ele>1386.4449462891</ele>
        <time>2017-03-24T08:13:06Z</time>
      </trkpt>
      <trkpt lat="45.22362" lon="6.00137">
        <ele>1387.4449462891</ele>
        <time>2017-03-24T08:13:14Z</time>
      </trkpt>
      <trkpt lat="45.22359" lon="6.00144">
        <ele>1391.4449462891</ele>
        <time>2017-03-24T08:13:17Z</time>
      </trkpt>
      <trkpt lat="45.22362" lon="6.00149">
        <ele>1390.4449462891</ele>
        <time>2017-03-24T08:13:22Z</time>
      </trkpt>
      <trkpt lat="45.2236" lon="6.00157">
        <ele>1393.4449462891</ele>
        <time>2017-03-24T08:13:28Z</time>
      </trkpt>
      <trkpt lat="45.22357" lon="6.00162">
        <ele>1397.4449462891</ele>
        <time>2017-03-24T08:13:33Z</time>
      </trkpt>
      <trkpt lat="45.22353" lon="6.00168">
        <ele>1398.4449462891</ele>
        <time>2017-03-24T08:13:40Z</time>
      </trkpt>
      <trkpt lat="45.2235" lon="6.00174">
        <ele>1397.4449462891</ele>
        <time>2017-03-24T08:13:44Z</time>
      </trkpt>
      <trkpt lat="45.22348" lon="6.0018">
        <ele>1398.4449462891</ele>
        <time>2017-03-24T08:13:48Z</time>
      </trkpt>
      <trkpt lat="45.22345" lon="6.00185">
        <ele>1399.4449462891</ele>
        <time>2017-03-24T08:13:52Z</time>
      </trkpt>
      <trkpt lat="45.22342" lon="6.0019">
        <ele>1396.4449462891</ele>
        <time>2017-03-24T08:13:56Z</time>
      </trkpt>
      <trkpt lat="45.22336" lon="6.00192">
        <ele>1394.4449462891</ele>
        <time>2017-03-24T08:14:04Z</time>
      </trkpt>
      <trkpt lat="45.22333" lon="6.00198">
        <ele>1393.4449462891</ele>
        <time>2017-03-24T08:14:08Z</time>
      </trkpt>
      <trkpt lat="45.2233" lon="6.00203">
        <ele>1395.4449462891</ele>
        <time>2017-03-24T08:14:54Z</time>
      </trkpt>
      <trkpt lat="45.22325" lon="6.00206">
        <ele>1398.4449462891</ele>
        <time>2017-03-24T08:16:28Z</time>
      </trkpt>
      <trkpt lat="45.22321" lon="6.0021">
        <ele>1398.4449462891</ele>
        <time>2017-03-24T08:16:35Z</time>
      </trkpt>
      <trkpt lat="45.22316" lon="6.00211">
        <ele>1397.4449462891</ele>
        <time>2017-03-24T08:16:38Z</time>
      </trkpt>
      <trkpt lat="45.22311" lon="6.00213">
        <ele>1397.4449462891</ele>
        <time>2017-03-24T08:16:43Z</time>
      </trkpt>
      <trkpt lat="45.22306" lon="6.00212">
        <ele>1403.4449462891</ele>
        <time>2017-03-24T08:16:48Z</time>
      </trkpt>
      <trkpt lat="45.22302" lon="6.00218">
        <ele>1404.4449462891</ele>
        <time>2017-03-24T08:16:53Z</time>
      </trkpt>
      <trkpt lat="45.223" lon="6.00226">
        <ele>1405.4449462891</ele>
        <time>2017-03-24T08:17:01Z</time>
      </trkpt>
      <trkpt lat="45.22301" lon="6.00232">
        <ele>1409.4449462891</ele>
        <time>2017-03-24T08:17:07Z</time>
      </trkpt>
      <trkpt lat="45.22304" lon="6.00237">
        <ele>1410.4449462891</ele>
        <time>2017-03-24T08:17:12Z</time>
      </trkpt>
      <trkpt lat="45.22303" lon="6.00244">
        <ele>1415.4449462891</ele>
        <time>2017-03-24T08:17:17Z</time>
      </trkpt>
      <trkpt lat="45.22304" lon="6.0025">
        <ele>1419.4449462891</ele>
        <time>2017-03-24T08:17:23Z</time>
      </trkpt>
      <trkpt lat="45.22308" lon="6.00255">
        <ele>1418.4449462891</ele>
        <time>2017-03-24T08:17:28Z</time>
      </trkpt>
      <trkpt lat="45.22312" lon="6.00258">
        <ele>1418.4449462891</ele>
        <time>2017-03-24T08:17:30Z</time>
      </trkpt>
      <trkpt lat="45.22316" lon="6.00263">
        <ele>1420.4449462891</ele>
        <time>2017-03-24T08:17:33Z</time>
      </trkpt>
      <trkpt lat="45.22311" lon="6.00266">
        <ele>1418.4449462891</ele>
        <time>2017-03-24T08:17:36Z</time>
      </trkpt>
      <trkpt lat="45.22311" lon="6.00273">
        <ele>1420.4449462891</ele>
        <time>2017-03-24T08:17:40Z</time>
      </trkpt>
      <trkpt lat="45.22311" lon="6.0028">
        <ele>1422.4449462891</ele>
        <time>2017-03-24T08:17:45Z</time>
      </trkpt>
      <trkpt lat="45.22312" lon="6.00287">
        <ele>1421.4449462891</ele>
        <time>2017-03-24T08:17:49Z</time>
      </trkpt>
      <trkpt lat="45.22313" lon="6.00294">
        <ele>1422.4449462891</ele>
        <time>2017-03-24T08:17:54Z</time>
      </trkpt>
      <trkpt lat="45.22313" lon="6.00301">
        <ele>1421.4449462891</ele>
        <time>2017-03-24T08:18:00Z</time>
      </trkpt>
      <trkpt lat="45.2231" lon="6.00308">
        <ele>1421.4449462891</ele>
        <time>2017-03-24T08:18:05Z</time>
      </trkpt>
      <trkpt lat="45.22309" lon="6.00316">
        <ele>1420.4449462891</ele>
        <time>2017-03-24T08:18:09Z</time>
      </trkpt>
      <trkpt lat="45.22305" lon="6.00321">
        <ele>1421.4449462891</ele>
        <time>2017-03-24T08:18:19Z</time>
      </trkpt>
      <trkpt lat="45.223" lon="6.00327">
        <ele>1424.4449462891</ele>
        <time>2017-03-24T08:18:21Z</time>
      </trkpt>
      <trkpt lat="45.22295" lon="6.00331">
        <ele>1424.4449462891</ele>
        <time>2017-03-24T08:18:23Z</time>
      </trkpt>
      <trkpt lat="45.22292" lon="6.00337">
        <ele>1425.4449462891</ele>
        <time>2017-03-24T08:18:31Z</time>
      </trkpt>
      <trkpt lat="45.22288" lon="6.00341">
        <ele>1425.4449462891</ele>
        <time>2017-03-24T08:18:40Z</time>
      </trkpt>
      <trkpt lat="45.22287" lon="6.00348">
        <ele>1427.4449462891</ele>
        <time>2017-03-24T08:18:48Z</time>
      </trkpt>
      <trkpt lat="45.22286" lon="6.00355">
        <ele>1427.4449462891</ele>
        <time>2017-03-24T08:18:51Z</time>
      </trkpt>
      <trkpt lat="45.22288" lon="6.00362">
        <ele>1427.4449462891</ele>
        <time>2017-03-24T08:18:54Z</time>
      </trkpt>
      <trkpt lat="45.22291" lon="6.00368">
        <ele>1427.4449462891</ele>
        <time>2017-03-24T08:19:03Z</time>
      </trkpt>
      <trkpt lat="45.22289" lon="6.00374">
        <ele>1427.4449462891</ele>
        <time>2017-03-24T08:19:07Z</time>
      </trkpt>
      <trkpt lat="45.22282" lon="6.0038">
        <ele>1428.4449462891</ele>
        <time>2017-03-24T08:19:09Z</time>
      </trkpt>
      <trkpt lat="45.22281" lon="6.00387">
        <ele>1431.4449462891</ele>
        <time>2017-03-24T08:19:13Z</time>
      </trkpt>
      <trkpt lat="45.2228" lon="6.00394">
        <ele>1435.4449462891</ele>
        <time>2017-03-24T08:19:21Z</time>
      </trkpt>
      <trkpt lat="45.22276" lon="6.004">
        <ele>1439.4449462891</ele>
        <time>2017-03-24T08:19:28Z</time>
      </trkpt>
      <trkpt lat="45.22273" lon="6.00406">
        <ele>1441.4449462891</ele>
        <time>2017-03-24T08:19:40Z</time>
      </trkpt>
      <trkpt lat="45.22268" lon="6.00408">
        <ele>1448.4449462891</ele>
        <time>2017-03-24T08:19:49Z</time>
      </trkpt>
      <trkpt lat="45.22265" lon="6.00413">
        <ele>1448.4449462891</ele>
        <time>2017-03-24T08:19:55Z</time>
      </trkpt>
      <trkpt lat="45.22261" lon="6.00417">
        <ele>1449.4449462891</ele>
        <time>2017-03-24T08:20:00Z</time>
      </trkpt>
      <trkpt lat="45.22258" lon="6.00424">
        <ele>1452.4449462891</ele>
        <time>2017-03-24T08:20:07Z</time>
      </trkpt>
      <trkpt lat="45.22253" lon="6.00425">
        <ele>1453.4449462891</ele>
        <time>2017-03-24T08:20:18Z</time>
      </trkpt>
      <trkpt lat="45.22252" lon="6.00432">
        <ele>1454.4449462891</ele>
        <time>2017-03-24T08:20:31Z</time>
      </trkpt>
      <trkpt lat="45.22247" lon="6.00436">
        <ele>1461.4449462891</ele>
        <time>2017-03-24T08:20:35Z</time>
      </trkpt>
      <trkpt lat="45.22242" lon="6.00434">
        <ele>1459.4449462891</ele>
        <time>2017-03-24T08:20:41Z</time>
      </trkpt>
      <trkpt lat="45.22237" lon="6.00432">
        <ele>1458.4449462891</ele>
        <time>2017-03-24T08:20:45Z</time>
      </trkpt>
      <trkpt lat="45.22233" lon="6.00433">
        <ele>1456.4449462891</ele>
        <time>2017-03-24T08:20:52Z</time>
      </trkpt>
      <trkpt lat="45.22233" lon="6.00439">
        <ele>1460.4449462891</ele>
        <time>2017-03-24T08:21:00Z</time>
      </trkpt>
      <trkpt lat="45.22231" lon="6.00446">
        <ele>1461.4449462891</ele>
        <time>2017-03-24T08:21:08Z</time>
      </trkpt>
      <trkpt lat="45.22232" lon="6.00454">
        <ele>1465.4449462891</ele>
        <time>2017-03-24T08:21:13Z</time>
      </trkpt>
      <trkpt lat="45.22231" lon="6.00461">
        <ele>1466.4449462891</ele>
        <time>2017-03-24T08:21:18Z</time>
      </trkpt>
      <trkpt lat="45.22227" lon="6.00465">
        <ele>1465.4449462891</ele>
        <time>2017-03-24T08:21:22Z</time>
      </trkpt>
      <trkpt lat="45.22224" lon="6.0047">
        <ele>1468.4449462891</ele>
        <time>2017-03-24T08:21:28Z</time>
      </trkpt>
      <trkpt lat="45.22226" lon="6.00478">
        <ele>1471.4449462891</ele>
        <time>2017-03-24T08:21:34Z</time>
      </trkpt>
      <trkpt lat="45.22223" lon="6.00484">
        <ele>1474.4449462891</ele>
        <time>2017-03-24T08:21:42Z</time>
      </trkpt>
      <trkpt lat="45.22221" lon="6.0049">
        <ele>1475.4449462891</ele>
        <time>2017-03-24T08:21:51Z</time>
      </trkpt>
      <trkpt lat="45.2222" lon="6.00498">
        <ele>1479.4449462891</ele>
        <time>2017-03-24T08:21:56Z</time>
      </trkpt>
      <trkpt lat="45.22222" lon="6.00504">
        <ele>1489.4449462891</ele>
        <time>2017-03-24T08:22:06Z</time>
      </trkpt>
      <trkpt lat="45.22221" lon="6.00512">
        <ele>1490.4449462891</ele>
        <time>2017-03-24T08:22:10Z</time>
      </trkpt>
      <trkpt lat="45.22223" lon="6.00519">
        <ele>1489.4449462891</ele>
        <time>2017-03-24T08:22:16Z</time>
      </trkpt>
      <trkpt lat="45.22224" lon="6.00525">
        <ele>1488.4449462891</ele>
        <time>2017-03-24T08:22:22Z</time>
      </trkpt>
      <trkpt lat="45.22227" lon="6.00532">
        <ele>1492.4449462891</ele>
        <time>2017-03-24T08:22:29Z</time>
      </trkpt>
      <trkpt lat="45.22228" lon="6.00538">
        <ele>1494.4449462891</ele>
        <time>2017-03-24T08:22:35Z</time>
      </trkpt>
      <trkpt lat="45.22228" lon="6.00545">
        <ele>1496.4449462891</ele>
        <time>2017-03-24T08:22:42Z</time>
      </trkpt>
      <trkpt lat="45.22225" lon="6.00549">
        <ele>1494.4449462891</ele>
        <time>2017-03-24T08:22:47Z</time>
      </trkpt>
      <trkpt lat="45.22228" lon="6.00557">
        <ele>1498.4449462891</ele>
        <time>2017-03-24T08:22:53Z</time>
      </trkpt>
      <trkpt lat="45.2223" lon="6.00563">
        <ele>1500.4449462891</ele>
        <time>2017-03-24T08:22:58Z</time>
      </trkpt>
      <trkpt lat="45.2223" lon="6.00569">
        <ele>1504.4449462891</ele>
        <time>2017-03-24T08:23:06Z</time>
      </trkpt>
      <trkpt lat="45.22226" lon="6.00574">
        <ele>1504.4449462891</ele>
        <time>2017-03-24T08:23:11Z</time>
      </trkpt>
      <trkpt lat="45.22232" lon="6.00578">
        <ele>1505.4449462891</ele>
        <time>2017-03-24T08:23:19Z</time>
      </trkpt>
      <trkpt lat="45.22229" lon="6.00581">
        <ele>1506.4449462891</ele>
        <time>2017-03-24T08:23:22Z</time>
      </trkpt>
      <trkpt lat="45.22226" lon="6.00587">
        <ele>1510.4449462891</ele>
        <time>2017-03-24T08:23:26Z</time>
      </trkpt>
      <trkpt lat="45.22224" lon="6.00593">
        <ele>1513.4449462891</ele>
        <time>2017-03-24T08:23:34Z</time>
      </trkpt>
      <trkpt lat="45.22226" lon="6.006">
        <ele>1513.4449462891</ele>
        <time>2017-03-24T08:23:41Z</time>
      </trkpt>
      <trkpt lat="45.22227" lon="6.00607">
        <ele>1514.4449462891</ele>
        <time>2017-03-24T08:23:46Z</time>
      </trkpt>
      <trkpt lat="45.22228" lon="6.00614">
        <ele>1510.4449462891</ele>
        <time>2017-03-24T08:23:51Z</time>
      </trkpt>
      <trkpt lat="45.22227" lon="6.00621">
        <ele>1512.4449462891</ele>
        <time>2017-03-24T08:23:57Z</time>
      </trkpt>
      <trkpt lat="45.22222" lon="6.00622">
        <ele>1514.4449462891</ele>
        <time>2017-03-24T08:24:04Z</time>
      </trkpt>
      <trkpt lat="45.22221" lon="6.0063">
        <ele>1514.4449462891</ele>
        <time>2017-03-24T08:24:06Z</time>
      </trkpt>
      <trkpt lat="45.22221" lon="6.00637">
        <ele>1516.4449462891</ele>
        <time>2017-03-24T08:24:10Z</time>
      </trkpt>
      <trkpt lat="45.22219" lon="6.00643">
        <ele>1518.4449462891</ele>
        <time>2017-03-24T08:24:15Z</time>
      </trkpt>
      <trkpt lat="45.22214" lon="6.00647">
        <ele>1519.4449462891</ele>
        <time>2017-03-24T08:24:19Z</time>
      </trkpt>
      <trkpt lat="45.22211" lon="6.00652">
        <ele>1517.4449462891</ele>
        <time>2017-03-24T08:24:22Z</time>
      </trkpt>
      <trkpt lat="45.22211" lon="6.00659">
        <ele>1520.4449462891</ele>
        <time>2017-03-24T08:24:26Z</time>
      </trkpt>
      <trkpt lat="45.22209" lon="6.00665">
        <ele>1521.4449462891</ele>
        <time>2017-03-24T08:24:29Z</time>
      </trkpt>
      <trkpt lat="45.22205" lon="6.00669">
        <ele>1520.4449462891</ele>
        <time>2017-03-24T08:24:32Z</time>
      </trkpt>
      <trkpt lat="45.22203" lon="6.00676">
        <ele>1520.4449462891</ele>
        <time>2017-03-24T08:24:39Z</time>
      </trkpt>
      <trkpt lat="45.22201" lon="6.00682">
        <ele>1520.4449462891</ele>
        <time>2017-03-24T08:24:44Z</time>
      </trkpt>
      <trkpt lat="45.22204" lon="6.00688">
        <ele>1521.4449462891</ele>
        <time>2017-03-24T08:24:48Z</time>
      </trkpt>
      <trkpt lat="45.22206" lon="6.00695">
        <ele>1521.4449462891</ele>
        <time>2017-03-24T08:24:54Z</time>
      </trkpt>
      <trkpt lat="45.22209" lon="6.00701">
        <ele>1520.4449462891</ele>
        <time>2017-03-24T08:24:59Z</time>
      </trkpt>
      <trkpt lat="45.22213" lon="6.00705">
        <ele>1520.4449462891</ele>
        <time>2017-03-24T08:25:04Z</time>
      </trkpt>
      <trkpt lat="45.22213" lon="6.00712">
        <ele>1529.4449462891</ele>
        <time>2017-03-24T08:25:12Z</time>
      </trkpt>
      <trkpt lat="45.22211" lon="6.00718">
        <ele>1533.4449462891</ele>
        <time>2017-03-24T08:25:19Z</time>
      </trkpt>
      <trkpt lat="45.22209" lon="6.00723">
        <ele>1531.4449462891</ele>
        <time>2017-03-24T08:25:29Z</time>
      </trkpt>
      <trkpt lat="45.22205" lon="6.00727">
        <ele>1530.4449462891</ele>
        <time>2017-03-24T08:25:36Z</time>
      </trkpt>
      <trkpt lat="45.222" lon="6.00727">
        <ele>1533.4449462891</ele>
        <time>2017-03-24T08:25:42Z</time>
      </trkpt>
      <trkpt lat="45.22196" lon="6.00722">
        <ele>1535.4449462891</ele>
        <time>2017-03-24T08:25:47Z</time>
      </trkpt>
      <trkpt lat="45.22194" lon="6.00728">
        <ele>1532.4449462891</ele>
        <time>2017-03-24T08:25:59Z</time>
      </trkpt>
      <trkpt lat="45.22195" lon="6.00736">
        <ele>1530.4449462891</ele>
        <time>2017-03-24T08:26:05Z</time>
      </trkpt>
      <trkpt lat="45.22197" lon="6.00742">
        <ele>1532.4449462891</ele>
        <time>2017-03-24T08:26:09Z</time>
      </trkpt>
      <trkpt lat="45.22198" lon="6.00748">
        <ele>1533.4449462891</ele>
        <time>2017-03-24T08:26:13Z</time>
      </trkpt>
      <trkpt lat="45.22201" lon="6.00754">
        <ele>1534.4449462891</ele>
        <time>2017-03-24T08:26:21Z</time>
      </trkpt>
      <trkpt lat="45.22203" lon="6.0076">
        <ele>1538.4449462891</ele>
        <time>2017-03-24T08:26:24Z</time>
      </trkpt>
      <trkpt lat="45.22203" lon="6.00767">
        <ele>1540.4449462891</ele>
        <time>2017-03-24T08:26:28Z</time>
      </trkpt>
      <trkpt lat="45.22202" lon="6.00774">
        <ele>1540.4449462891</ele>
        <time>2017-03-24T08:26:33Z</time>
      </trkpt>
      <trkpt lat="45.222" lon="6.00783">
        <ele>1543.4449462891</ele>
        <time>2017-03-24T08:26:39Z</time>
      </trkpt>
      <trkpt lat="45.22201" lon="6.00789">
        <ele>1543.4460449219</ele>
        <time>2017-03-24T08:26:44Z</time>
      </trkpt>
      <trkpt lat="45.22205" lon="6.00795">
        <ele>1544.4460449219</ele>
        <time>2017-03-24T08:26:50Z</time>
      </trkpt>
      <trkpt lat="45.22209" lon="6.008">
        <ele>1545.4460449219</ele>
        <time>2017-03-24T08:26:55Z</time>
      </trkpt>
      <trkpt lat="45.22211" lon="6.00807">
        <ele>1546.4460449219</ele>
        <time>2017-03-24T08:27:01Z</time>
      </trkpt>
      <trkpt lat="45.22214" lon="6.00811">
        <ele>1548.4460449219</ele>
        <time>2017-03-24T08:27:06Z</time>
      </trkpt>
      <trkpt lat="45.22217" lon="6.00817">
        <ele>1547.4460449219</ele>
        <time>2017-03-24T08:27:12Z</time>
      </trkpt>
      <trkpt lat="45.2222" lon="6.00822">
        <ele>1549.4460449219</ele>
        <time>2017-03-24T08:27:14Z</time>
      </trkpt>
      <trkpt lat="45.22223" lon="6.00827">
        <ele>1547.4460449219</ele>
        <time>2017-03-24T08:27:22Z</time>
      </trkpt>
      <trkpt lat="45.22225" lon="6.00834">
        <ele>1547.4460449219</ele>
        <time>2017-03-24T08:27:32Z</time>
      </trkpt>
      <trkpt lat="45.22229" lon="6.00838">
        <ele>1552.4460449219</ele>
        <time>2017-03-24T08:27:36Z</time>
      </trkpt>
      <trkpt lat="45.2223" lon="6.00846">
        <ele>1553.4460449219</ele>
        <time>2017-03-24T08:27:40Z</time>
      </trkpt>
      <trkpt lat="45.22235" lon="6.00852">
        <ele>1556.4460449219</ele>
        <time>2017-03-24T08:27:44Z</time>
      </trkpt>
      <trkpt lat="45.22237" lon="6.00858">
        <ele>1557.4460449219</ele>
        <time>2017-03-24T08:27:52Z</time>
      </trkpt>
      <trkpt lat="45.22238" lon="6.00865">
        <ele>1558.4460449219</ele>
        <time>2017-03-24T08:27:58Z</time>
      </trkpt>
      <trkpt lat="45.2224" lon="6.00871">
        <ele>1556.4460449219</ele>
        <time>2017-03-24T08:28:04Z</time>
      </trkpt>
      <trkpt lat="45.22241" lon="6.00879">
        <ele>1561.4460449219</ele>
        <time>2017-03-24T08:28:10Z</time>
      </trkpt>
      <trkpt lat="45.22243" lon="6.00886">
        <ele>1565.4460449219</ele>
        <time>2017-03-24T08:28:16Z</time>
      </trkpt>
      <trkpt lat="45.22241" lon="6.00892">
        <ele>1564.4460449219</ele>
        <time>2017-03-24T08:28:22Z</time>
      </trkpt>
      <trkpt lat="45.2224" lon="6.00899">
        <ele>1565.4460449219</ele>
        <time>2017-03-24T08:28:27Z</time>
      </trkpt>
      <trkpt lat="45.22242" lon="6.00904">
        <ele>1567.4460449219</ele>
        <time>2017-03-24T08:28:39Z</time>
      </trkpt>
      <trkpt lat="45.22244" lon="6.00912">
        <ele>1566.4460449219</ele>
        <time>2017-03-24T08:28:49Z</time>
      </trkpt>
      <trkpt lat="45.22243" lon="6.00918">
        <ele>1567.4460449219</ele>
        <time>2017-03-24T08:28:52Z</time>
      </trkpt>
      <trkpt lat="45.22241" lon="6.00925">
        <ele>1568.4460449219</ele>
        <time>2017-03-24T08:28:57Z</time>
      </trkpt>
      <trkpt lat="45.22237" lon="6.00928">
        <ele>1572.4460449219</ele>
        <time>2017-03-24T08:29:05Z</time>
      </trkpt>
      <trkpt lat="45.22231" lon="6.00929">
        <ele>1573.4460449219</ele>
        <time>2017-03-24T08:29:14Z</time>
      </trkpt>
      <trkpt lat="45.22232" lon="6.00935">
        <ele>1574.4460449219</ele>
        <time>2017-03-24T08:29:20Z</time>
      </trkpt>
      <trkpt lat="45.22235" lon="6.0094">
        <ele>1576.4460449219</ele>
        <time>2017-03-24T08:29:25Z</time>
      </trkpt>
      <trkpt lat="45.22236" lon="6.00946">
        <ele>1578.4460449219</ele>
        <time>2017-03-24T08:29:31Z</time>
      </trkpt>
      <trkpt lat="45.22234" lon="6.00953">
        <ele>1581.4460449219</ele>
        <time>2017-03-24T08:29:36Z</time>
      </trkpt>
      <trkpt lat="45.22236" lon="6.00961">
        <ele>1583.4460449219</ele>
        <time>2017-03-24T08:29:43Z</time>
      </trkpt>
      <trkpt lat="45.22235" lon="6.00967">
        <ele>1585.4460449219</ele>
        <time>2017-03-24T08:29:50Z</time>
      </trkpt>
      <trkpt lat="45.22231" lon="6.00972">
        <ele>1585.4460449219</ele>
        <time>2017-03-24T08:29:53Z</time>
      </trkpt>
      <trkpt lat="45.22229" lon="6.00978">
        <ele>1587.4460449219</ele>
        <time>2017-03-24T08:29:59Z</time>
      </trkpt>
      <trkpt lat="45.22228" lon="6.00985">
        <ele>1586.4460449219</ele>
        <time>2017-03-24T08:30:06Z</time>
      </trkpt>
      <trkpt lat="45.22229" lon="6.00993">
        <ele>1586.4460449219</ele>
        <time>2017-03-24T08:30:11Z</time>
      </trkpt>
      <trkpt lat="45.22232" lon="6.00998">
        <ele>1589.4460449219</ele>
        <time>2017-03-24T08:30:14Z</time>
      </trkpt>
      <trkpt lat="45.22234" lon="6.01005">
        <ele>1592.4460449219</ele>
        <time>2017-03-24T08:30:18Z</time>
      </trkpt>
      <trkpt lat="45.22235" lon="6.01012">
        <ele>1593.4460449219</ele>
        <time>2017-03-24T08:30:22Z</time>
      </trkpt>
      <trkpt lat="45.22232" lon="6.01018">
        <ele>1593.4460449219</ele>
        <time>2017-03-24T08:30:26Z</time>
      </trkpt>
      <trkpt lat="45.22234" lon="6.01024">
        <ele>1597.4460449219</ele>
        <time>2017-03-24T08:30:30Z</time>
      </trkpt>
      <trkpt lat="45.22233" lon="6.01031">
        <ele>1597.4460449219</ele>
        <time>2017-03-24T08:30:35Z</time>
      </trkpt>
      <trkpt lat="45.22231" lon="6.01037">
        <ele>1597.4460449219</ele>
        <time>2017-03-24T08:30:40Z</time>
      </trkpt>
      <trkpt lat="45.2223" lon="6.01045">
        <ele>1593.4460449219</ele>
        <time>2017-03-24T08:30:47Z</time>
      </trkpt>
      <trkpt lat="45.22233" lon="6.01051">
        <ele>1594.4460449219</ele>
        <time>2017-03-24T08:30:52Z</time>
      </trkpt>
      <trkpt lat="45.22232" lon="6.01058">
        <ele>1595.4460449219</ele>
        <time>2017-03-24T08:30:58Z</time>
      </trkpt>
      <trkpt lat="45.22228" lon="6.01062">
        <ele>1592.4460449219</ele>
        <time>2017-03-24T08:31:02Z</time>
      </trkpt>
      <trkpt lat="45.2223" lon="6.01069">
        <ele>1596.4460449219</ele>
        <time>2017-03-24T08:31:06Z</time>
      </trkpt>
      <trkpt lat="45.22229" lon="6.01076">
        <ele>1601.4460449219</ele>
        <time>2017-03-24T08:31:10Z</time>
      </trkpt>
      <trkpt lat="45.2223" lon="6.01083">
        <ele>1602.4460449219</ele>
        <time>2017-03-24T08:31:17Z</time>
      </trkpt>
      <trkpt lat="45.22231" lon="6.01089">
        <ele>1606.4460449219</ele>
        <time>2017-03-24T08:31:20Z</time>
      </trkpt>
      <trkpt lat="45.22235" lon="6.01094">
        <ele>1608.4460449219</ele>
        <time>2017-03-24T08:31:24Z</time>
      </trkpt>
      <trkpt lat="45.22236" lon="6.01101">
        <ele>1606.4460449219</ele>
        <time>2017-03-24T08:31:29Z</time>
      </trkpt>
      <trkpt lat="45.22238" lon="6.01107">
        <ele>1610.4460449219</ele>
        <time>2017-03-24T08:31:34Z</time>
      </trkpt>
      <trkpt lat="45.22237" lon="6.01114">
        <ele>1611.4460449219</ele>
        <time>2017-03-24T08:31:40Z</time>
      </trkpt>
      <trkpt lat="45.22237" lon="6.01122">
        <ele>1614.4460449219</ele>
        <time>2017-03-24T08:31:45Z</time>
      </trkpt>
      <trkpt lat="45.22238" lon="6.01129">
        <ele>1616.4460449219</ele>
        <time>2017-03-24T08:31:50Z</time>
      </trkpt>
      <trkpt lat="45.22241" lon="6.01135">
        <ele>1619.4460449219</ele>
        <time>2017-03-24T08:31:57Z</time>
      </trkpt>
      <trkpt lat="45.22243" lon="6.01143">
        <ele>1619.4460449219</ele>
        <time>2017-03-24T08:32:03Z</time>
      </trkpt>
      <trkpt lat="45.22243" lon="6.01151">
        <ele>1620.4460449219</ele>
        <time>2017-03-24T08:32:08Z</time>
      </trkpt>
      <trkpt lat="45.22245" lon="6.01159">
        <ele>1621.4460449219</ele>
        <time>2017-03-24T08:32:11Z</time>
      </trkpt>
      <trkpt lat="45.22248" lon="6.01164">
        <ele>1624.4460449219</ele>
        <time>2017-03-24T08:32:17Z</time>
      </trkpt>
      <trkpt lat="45.22246" lon="6.0117">
        <ele>1625.4460449219</ele>
        <time>2017-03-24T08:32:25Z</time>
      </trkpt>
      <trkpt lat="45.22243" lon="6.01176">
        <ele>1623.4460449219</ele>
        <time>2017-03-24T08:32:28Z</time>
      </trkpt>
      <trkpt lat="45.22243" lon="6.01183">
        <ele>1623.4460449219</ele>
        <time>2017-03-24T08:32:32Z</time>
      </trkpt>
      <trkpt lat="45.22242" lon="6.01189">
        <ele>1624.4460449219</ele>
        <time>2017-03-24T08:32:38Z</time>
      </trkpt>
      <trkpt lat="45.22241" lon="6.01196">
        <ele>1624.4460449219</ele>
        <time>2017-03-24T08:32:44Z</time>
      </trkpt>
      <trkpt lat="45.22241" lon="6.01203">
        <ele>1625.4460449219</ele>
        <time>2017-03-24T08:32:52Z</time>
      </trkpt>
      <trkpt lat="45.22243" lon="6.0121">
        <ele>1622.4460449219</ele>
        <time>2017-03-24T08:32:56Z</time>
      </trkpt>
      <trkpt lat="45.22244" lon="6.01217">
        <ele>1619.4460449219</ele>
        <time>2017-03-24T08:32:59Z</time>
      </trkpt>
      <trkpt lat="45.22241" lon="6.01221">
        <ele>1620.4460449219</ele>
        <time>2017-03-24T08:33:05Z</time>
      </trkpt>
      <trkpt lat="45.22239" lon="6.01227">
        <ele>1625.4460449219</ele>
        <time>2017-03-24T08:33:16Z</time>
      </trkpt>
      <trkpt lat="45.22238" lon="6.01234">
        <ele>1627.4460449219</ele>
        <time>2017-03-24T08:33:23Z</time>
      </trkpt>
      <trkpt lat="45.22235" lon="6.0124">
        <ele>1630.4460449219</ele>
        <time>2017-03-24T08:33:26Z</time>
      </trkpt>
      <trkpt lat="45.22233" lon="6.01245">
        <ele>1633.4460449219</ele>
        <time>2017-03-24T08:33:31Z</time>
      </trkpt>
      <trkpt lat="45.22234" lon="6.01252">
        <ele>1638.4460449219</ele>
        <time>2017-03-24T08:33:36Z</time>
      </trkpt>
      <trkpt lat="45.22234" lon="6.01259">
        <ele>1638.4460449219</ele>
        <time>2017-03-24T08:33:42Z</time>
      </trkpt>
      <trkpt lat="45.22233" lon="6.01265">
        <ele>1638.4460449219</ele>
        <time>2017-03-24T08:33:49Z</time>
      </trkpt>
      <trkpt lat="45.22232" lon="6.01272">
        <ele>1637.4460449219</ele>
        <time>2017-03-24T08:33:56Z</time>
      </trkpt>
      <trkpt lat="45.22231" lon="6.0128">
        <ele>1636.4460449219</ele>
        <time>2017-03-24T08:34:02Z</time>
      </trkpt>
      <trkpt lat="45.22234" lon="6.01286">
        <ele>1638.4460449219</ele>
        <time>2017-03-24T08:34:08Z</time>
      </trkpt>
      <trkpt lat="45.22236" lon="6.01292">
        <ele>1639.4460449219</ele>
        <time>2017-03-24T08:34:13Z</time>
      </trkpt>
      <trkpt lat="45.22236" lon="6.013">
        <ele>1644.4460449219</ele>
        <time>2017-03-24T08:34:25Z</time>
      </trkpt>
      <trkpt lat="45.22239" lon="6.01305">
        <ele>1650.4460449219</ele>
        <time>2017-03-24T08:34:31Z</time>
      </trkpt>
      <trkpt lat="45.22243" lon="6.01309">
        <ele>1653.4460449219</ele>
        <time>2017-03-24T08:34:35Z</time>
      </trkpt>
      <trkpt lat="45.22248" lon="6.0131">
        <ele>1649.4460449219</ele>
        <time>2017-03-24T08:34:40Z</time>
      </trkpt>
      <trkpt lat="45.22253" lon="6.0131">
        <ele>1650.4460449219</ele>
        <time>2017-03-24T08:34:44Z</time>
      </trkpt>
      <trkpt lat="45.22258" lon="6.01313">
        <ele>1652.4460449219</ele>
        <time>2017-03-24T08:34:53Z</time>
      </trkpt>
      <trkpt lat="45.22263" lon="6.01316">
        <ele>1656.4460449219</ele>
        <time>2017-03-24T08:35:01Z</time>
      </trkpt>
      <trkpt lat="45.22267" lon="6.01319">
        <ele>1656.4460449219</ele>
        <time>2017-03-24T08:35:05Z</time>
      </trkpt>
      <trkpt lat="45.22271" lon="6.01316">
        <ele>1657.4460449219</ele>
        <time>2017-03-24T08:35:12Z</time>
      </trkpt>
      <trkpt lat="45.22275" lon="6.01323">
        <ele>1659.4460449219</ele>
        <time>2017-03-24T08:35:27Z</time>
      </trkpt>
      <trkpt lat="45.22278" lon="6.01329">
        <ele>1663.4460449219</ele>
        <time>2017-03-24T08:35:34Z</time>
      </trkpt>
      <trkpt lat="45.22279" lon="6.01337">
        <ele>1661.4460449219</ele>
        <time>2017-03-24T08:35:38Z</time>
      </trkpt>
      <trkpt lat="45.2228" lon="6.01344">
        <ele>1658.4460449219</ele>
        <time>2017-03-24T08:35:43Z</time>
      </trkpt>
      <trkpt lat="45.22276" lon="6.01348">
        <ele>1661.4460449219</ele>
        <time>2017-03-24T08:35:58Z</time>
      </trkpt>
      <trkpt lat="45.22272" lon="6.01353">
        <ele>1663.4460449219</ele>
        <time>2017-03-24T08:36:00Z</time>
      </trkpt>
      <trkpt lat="45.22267" lon="6.01357">
        <ele>1667.4460449219</ele>
        <time>2017-03-24T08:36:03Z</time>
      </trkpt>
      <trkpt lat="45.22261" lon="6.01362">
        <ele>1665.4460449219</ele>
        <time>2017-03-24T08:36:06Z</time>
      </trkpt>
      <trkpt lat="45.22257" lon="6.01366">
        <ele>1670.4460449219</ele>
        <time>2017-03-24T08:36:10Z</time>
      </trkpt>
      <trkpt lat="45.22252" lon="6.01369">
        <ele>1671.4460449219</ele>
        <time>2017-03-24T08:36:16Z</time>
      </trkpt>
      <trkpt lat="45.22248" lon="6.01373">
        <ele>1669.4460449219</ele>
        <time>2017-03-24T08:36:20Z</time>
      </trkpt>
      <trkpt lat="45.22245" lon="6.01378">
        <ele>1668.4460449219</ele>
        <time>2017-03-24T08:36:24Z</time>
      </trkpt>
      <trkpt lat="45.22241" lon="6.01383">
        <ele>1670.4460449219</ele>
        <time>2017-03-24T08:36:28Z</time>
      </trkpt>
      <trkpt lat="45.22236" lon="6.01385">
        <ele>1672.4460449219</ele>
        <time>2017-03-24T08:36:31Z</time>
      </trkpt>
      <trkpt lat="45.22234" lon="6.0139">
        <ele>1670.4460449219</ele>
        <time>2017-03-24T08:36:35Z</time>
      </trkpt>
      <trkpt lat="45.22233" lon="6.01397">
        <ele>1671.4460449219</ele>
        <time>2017-03-24T08:36:39Z</time>
      </trkpt>
      <trkpt lat="45.22229" lon="6.01401">
        <ele>1670.4460449219</ele>
        <time>2017-03-24T08:36:45Z</time>
      </trkpt>
      <trkpt lat="45.22232" lon="6.01407">
        <ele>1670.4460449219</ele>
        <time>2017-03-24T08:36:49Z</time>
      </trkpt>
      <trkpt lat="45.22231" lon="6.01416">
        <ele>1671.4460449219</ele>
        <time>2017-03-24T08:36:54Z</time>
      </trkpt>
      <trkpt lat="45.22229" lon="6.01421">
        <ele>1671.4460449219</ele>
        <time>2017-03-24T08:36:57Z</time>
      </trkpt>
      <trkpt lat="45.22226" lon="6.01428">
        <ele>1671.4460449219</ele>
        <time>2017-03-24T08:37:02Z</time>
      </trkpt>
      <trkpt lat="45.22231" lon="6.01433">
        <ele>1672.4460449219</ele>
        <time>2017-03-24T08:37:07Z</time>
      </trkpt>
      <trkpt lat="45.22232" lon="6.0144">
        <ele>1676.4460449219</ele>
        <time>2017-03-24T08:37:10Z</time>
      </trkpt>
      <trkpt lat="45.22233" lon="6.01446">
        <ele>1677.4460449219</ele>
        <time>2017-03-24T08:37:13Z</time>
      </trkpt>
      <trkpt lat="45.22234" lon="6.01454">
        <ele>1677.4460449219</ele>
        <time>2017-03-24T08:37:17Z</time>
      </trkpt>
      <trkpt lat="45.22234" lon="6.01461">
        <ele>1676.4470214844</ele>
        <time>2017-03-24T08:37:21Z</time>
      </trkpt>
      <trkpt lat="45.22234" lon="6.01469">
        <ele>1676.4470214844</ele>
        <time>2017-03-24T08:37:26Z</time>
      </trkpt>
      <trkpt lat="45.22234" lon="6.01477">
        <ele>1677.4470214844</ele>
        <time>2017-03-24T08:37:30Z</time>
      </trkpt>
      <trkpt lat="45.22235" lon="6.01484">
        <ele>1677.4470214844</ele>
        <time>2017-03-24T08:37:33Z</time>
      </trkpt>
      <trkpt lat="45.22239" lon="6.01492">
        <ele>1680.4470214844</ele>
        <time>2017-03-24T08:37:37Z</time>
      </trkpt>
      <trkpt lat="45.22236" lon="6.015">
        <ele>1679.4470214844</ele>
        <time>2017-03-24T08:37:40Z</time>
      </trkpt>
      <trkpt lat="45.2224" lon="6.01508">
        <ele>1681.4470214844</ele>
        <time>2017-03-24T08:37:43Z</time>
      </trkpt>
      <trkpt lat="45.22244" lon="6.01515">
        <ele>1683.4470214844</ele>
        <time>2017-03-24T08:37:46Z</time>
      </trkpt>
      <trkpt lat="45.22243" lon="6.01521">
        <ele>1683.4470214844</ele>
        <time>2017-03-24T08:37:48Z</time>
      </trkpt>
      <trkpt lat="45.22245" lon="6.01528">
        <ele>1685.4470214844</ele>
        <time>2017-03-24T08:37:52Z</time>
      </trkpt>
      <trkpt lat="45.22249" lon="6.01532">
        <ele>1686.4470214844</ele>
        <time>2017-03-24T08:37:55Z</time>
      </trkpt>
      <trkpt lat="45.22253" lon="6.01537">
        <ele>1683.4470214844</ele>
        <time>2017-03-24T08:37:58Z</time>
      </trkpt>
      <trkpt lat="45.22252" lon="6.01543">
        <ele>1679.4470214844</ele>
        <time>2017-03-24T08:38:04Z</time>
      </trkpt>
      <trkpt lat="45.22254" lon="6.01549">
        <ele>1682.4470214844</ele>
        <time>2017-03-24T08:38:10Z</time>
      </trkpt>
      <trkpt lat="45.22253" lon="6.01556">
        <ele>1681.4470214844</ele>
        <time>2017-03-24T08:38:13Z</time>
      </trkpt>
      <trkpt lat="45.22253" lon="6.01563">
        <ele>1681.4470214844</ele>
        <time>2017-03-24T08:38:16Z</time>
      </trkpt>
      <trkpt lat="45.22257" lon="6.01566">
        <ele>1682.4470214844</ele>
        <time>2017-03-24T08:38:18Z</time>
      </trkpt>
      <trkpt lat="45.22256" lon="6.01572">
        <ele>1682.4470214844</ele>
        <time>2017-03-24T08:38:21Z</time>
      </trkpt>
      <trkpt lat="45.22256" lon="6.01582">
        <ele>1684.4470214844</ele>
        <time>2017-03-24T08:38:25Z</time>
      </trkpt>
      <trkpt lat="45.2226" lon="6.01589">
        <ele>1685.4470214844</ele>
        <time>2017-03-24T08:38:28Z</time>
      </trkpt>
      <trkpt lat="45.22263" lon="6.01596">
        <ele>1687.4470214844</ele>
        <time>2017-03-24T08:38:31Z</time>
      </trkpt>
      <trkpt lat="45.22266" lon="6.01603">
        <ele>1687.4470214844</ele>
        <time>2017-03-24T08:38:35Z</time>
      </trkpt>
      <trkpt lat="45.22261" lon="6.01611">
        <ele>1688.4470214844</ele>
        <time>2017-03-24T08:38:38Z</time>
      </trkpt>
      <trkpt lat="45.22262" lon="6.0162">
        <ele>1685.4470214844</ele>
        <time>2017-03-24T08:38:42Z</time>
      </trkpt>
      <trkpt lat="45.22263" lon="6.01628">
        <ele>1683.4470214844</ele>
        <time>2017-03-24T08:38:45Z</time>
      </trkpt>
      <trkpt lat="45.22264" lon="6.01637">
        <ele>1682.4470214844</ele>
        <time>2017-03-24T08:38:48Z</time>
      </trkpt>
      <trkpt lat="45.22269" lon="6.01643">
        <ele>1682.4470214844</ele>
        <time>2017-03-24T08:38:50Z</time>
      </trkpt>
      <trkpt lat="45.22269" lon="6.01651">
        <ele>1681.4470214844</ele>
        <time>2017-03-24T08:38:53Z</time>
      </trkpt>
      <trkpt lat="45.22269" lon="6.01658">
        <ele>1680.4470214844</ele>
        <time>2017-03-24T08:38:55Z</time>
      </trkpt>
      <trkpt lat="45.22269" lon="6.01667">
        <ele>1681.4470214844</ele>
        <time>2017-03-24T08:38:57Z</time>
      </trkpt>
      <trkpt lat="45.22269" lon="6.01673">
        <ele>1680.4470214844</ele>
        <time>2017-03-24T08:39:00Z</time>
      </trkpt>
      <trkpt lat="45.22268" lon="6.01681">
        <ele>1680.4470214844</ele>
        <time>2017-03-24T08:39:03Z</time>
      </trkpt>
      <trkpt lat="45.22268" lon="6.0169">
        <ele>1681.4470214844</ele>
        <time>2017-03-24T08:39:07Z</time>
      </trkpt>
      <trkpt lat="45.22266" lon="6.01697">
        <ele>1684.4470214844</ele>
        <time>2017-03-24T08:39:08Z</time>
      </trkpt>
      <trkpt lat="45.22267" lon="6.01703">
        <ele>1686.4470214844</ele>
        <time>2017-03-24T08:39:10Z</time>
      </trkpt>
      <trkpt lat="45.22264" lon="6.0171">
        <ele>1687.4470214844</ele>
        <time>2017-03-24T08:39:12Z</time>
      </trkpt>
      <trkpt lat="45.22266" lon="6.01717">
        <ele>1685.4470214844</ele>
        <time>2017-03-24T08:39:16Z</time>
      </trkpt>
      <trkpt lat="45.22269" lon="6.01723">
        <ele>1684.4470214844</ele>
        <time>2017-03-24T08:39:19Z</time>
      </trkpt>
      <trkpt lat="45.22267" lon="6.01732">
        <ele>1686.4470214844</ele>
        <time>2017-03-24T08:39:22Z</time>
      </trkpt>
      <trkpt lat="45.22265" lon="6.01738">
        <ele>1686.4470214844</ele>
        <time>2017-03-24T08:39:24Z</time>
      </trkpt>
      <trkpt lat="45.22263" lon="6.01745">
        <ele>1682.4470214844</ele>
        <time>2017-03-24T08:39:28Z</time>
      </trkpt>
      <trkpt lat="45.22263" lon="6.01753">
        <ele>1683.4470214844</ele>
        <time>2017-03-24T08:39:32Z</time>
      </trkpt>
      <trkpt lat="45.2226" lon="6.01759">
        <ele>1684.4470214844</ele>
        <time>2017-03-24T08:39:35Z</time>
      </trkpt>
      <trkpt lat="45.22262" lon="6.01766">
        <ele>1685.4470214844</ele>
        <time>2017-03-24T08:39:39Z</time>
      </trkpt>
      <trkpt lat="45.2226" lon="6.01771">
        <ele>1685.4470214844</ele>
        <time>2017-03-24T08:39:43Z</time>
      </trkpt>
      <trkpt lat="45.22265" lon="6.01775">
        <ele>1686.4470214844</ele>
        <time>2017-03-24T08:39:47Z</time>
      </trkpt>
      <trkpt lat="45.22268" lon="6.01781">
        <ele>1688.4470214844</ele>
        <time>2017-03-24T08:39:52Z</time>
      </trkpt>
      <trkpt lat="45.22268" lon="6.01789">
        <ele>1686.4470214844</ele>
        <time>2017-03-24T08:39:56Z</time>
      </trkpt>
      <trkpt lat="45.2227" lon="6.01795">
        <ele>1686.4470214844</ele>
        <time>2017-03-24T08:40:03Z</time>
      </trkpt>
      <trkpt lat="45.22273" lon="6.01801">
        <ele>1687.4470214844</ele>
        <time>2017-03-24T08:40:09Z</time>
      </trkpt>
      <trkpt lat="45.22271" lon="6.01808">
        <ele>1688.4470214844</ele>
        <time>2017-03-24T08:40:15Z</time>
      </trkpt>
      <trkpt lat="45.22268" lon="6.01813">
        <ele>1693.4470214844</ele>
        <time>2017-03-24T08:40:22Z</time>
      </trkpt>
      <trkpt lat="45.22271" lon="6.01819">
        <ele>1695.4470214844</ele>
        <time>2017-03-24T08:40:28Z</time>
      </trkpt>
      <trkpt lat="45.22266" lon="6.01822">
        <ele>1696.4470214844</ele>
        <time>2017-03-24T08:40:32Z</time>
      </trkpt>
      <trkpt lat="45.22262" lon="6.01824">
        <ele>1697.4470214844</ele>
        <time>2017-03-24T08:40:37Z</time>
      </trkpt>
      <trkpt lat="45.22258" lon="6.01828">
        <ele>1696.4470214844</ele>
        <time>2017-03-24T08:40:40Z</time>
      </trkpt>
      <trkpt lat="45.22255" lon="6.01835">
        <ele>1695.4470214844</ele>
        <time>2017-03-24T08:40:43Z</time>
      </trkpt>
      <trkpt lat="45.22259" lon="6.01837">
        <ele>1694.4470214844</ele>
        <time>2017-03-24T08:40:46Z</time>
      </trkpt>
      <trkpt lat="45.22264" lon="6.01843">
        <ele>1693.4470214844</ele>
        <time>2017-03-24T08:40:53Z</time>
      </trkpt>
      <trkpt lat="45.22264" lon="6.01851">
        <ele>1691.4470214844</ele>
        <time>2017-03-24T08:40:59Z</time>
      </trkpt>
      <trkpt lat="45.22261" lon="6.01857">
        <ele>1690.4470214844</ele>
        <time>2017-03-24T08:41:02Z</time>
      </trkpt>
      <trkpt lat="45.2226" lon="6.01864">
        <ele>1692.4470214844</ele>
        <time>2017-03-24T08:41:04Z</time>
      </trkpt>
      <trkpt lat="45.22261" lon="6.01872">
        <ele>1692.4470214844</ele>
        <time>2017-03-24T08:41:08Z</time>
      </trkpt>
      <trkpt lat="45.22264" lon="6.01878">
        <ele>1691.4470214844</ele>
        <time>2017-03-24T08:41:11Z</time>
      </trkpt>
      <trkpt lat="45.22261" lon="6.01886">
        <ele>1691.4470214844</ele>
        <time>2017-03-24T08:41:15Z</time>
      </trkpt>
      <trkpt lat="45.2226" lon="6.01893">
        <ele>1693.4470214844</ele>
        <time>2017-03-24T08:41:18Z</time>
      </trkpt>
      <trkpt lat="45.22258" lon="6.019">
        <ele>1690.4470214844</ele>
        <time>2017-03-24T08:41:22Z</time>
      </trkpt>
      <trkpt lat="45.22255" lon="6.01906">
        <ele>1689.4470214844</ele>
        <time>2017-03-24T08:41:25Z</time>
      </trkpt>
      <trkpt lat="45.22253" lon="6.01911">
        <ele>1689.4470214844</ele>
        <time>2017-03-24T08:41:28Z</time>
      </trkpt>
      <trkpt lat="45.22255" lon="6.01918">
        <ele>1691.4470214844</ele>
        <time>2017-03-24T08:41:32Z</time>
      </trkpt>
      <trkpt lat="45.22254" lon="6.01925">
        <ele>1693.4470214844</ele>
        <time>2017-03-24T08:41:36Z</time>
      </trkpt>
      <trkpt lat="45.22254" lon="6.01932">
        <ele>1690.4470214844</ele>
        <time>2017-03-24T08:41:42Z</time>
      </trkpt>
      <trkpt lat="45.22254" lon="6.0194">
        <ele>1693.4470214844</ele>
        <time>2017-03-24T08:41:46Z</time>
      </trkpt>
      <trkpt lat="45.22255" lon="6.01947">
        <ele>1696.4470214844</ele>
        <time>2017-03-24T08:41:50Z</time>
      </trkpt>
      <trkpt lat="45.22256" lon="6.01956">
        <ele>1698.4470214844</ele>
        <time>2017-03-24T08:41:54Z</time>
      </trkpt>
      <trkpt lat="45.22254" lon="6.01963">
        <ele>1700.4470214844</ele>
        <time>2017-03-24T08:41:58Z</time>
      </trkpt>
      <trkpt lat="45.22255" lon="6.0197">
        <ele>1701.4470214844</ele>
        <time>2017-03-24T08:42:01Z</time>
      </trkpt>
      <trkpt lat="45.22255" lon="6.01977">
        <ele>1700.4470214844</ele>
        <time>2017-03-24T08:42:04Z</time>
      </trkpt>
      <trkpt lat="45.22249" lon="6.01982">
        <ele>1702.4470214844</ele>
        <time>2017-03-24T08:42:06Z</time>
      </trkpt>
      <trkpt lat="45.22246" lon="6.01988">
        <ele>1700.4470214844</ele>
        <time>2017-03-24T08:42:11Z</time>
      </trkpt>
      <trkpt lat="45.22248" lon="6.01995">
        <ele>1706.4470214844</ele>
        <time>2017-03-24T08:42:17Z</time>
      </trkpt>
      <trkpt lat="45.22246" lon="6.02004">
        <ele>1710.4470214844</ele>
        <time>2017-03-24T08:42:23Z</time>
      </trkpt>
      <trkpt lat="45.22248" lon="6.0201">
        <ele>1711.4470214844</ele>
        <time>2017-03-24T08:42:28Z</time>
      </trkpt>
      <trkpt lat="45.22248" lon="6.02016">
        <ele>1714.4470214844</ele>
        <time>2017-03-24T08:42:33Z</time>
      </trkpt>
      <trkpt lat="45.22251" lon="6.02021">
        <ele>1718.4470214844</ele>
        <time>2017-03-24T08:42:38Z</time>
      </trkpt>
      <trkpt lat="45.22252" lon="6.0203">
        <ele>1719.4470214844</ele>
        <time>2017-03-24T08:42:44Z</time>
      </trkpt>
      <trkpt lat="45.22251" lon="6.02037">
        <ele>1718.4470214844</ele>
        <time>2017-03-24T08:42:49Z</time>
      </trkpt>
      <trkpt lat="45.22252" lon="6.02045">
        <ele>1717.4470214844</ele>
        <time>2017-03-24T08:42:53Z</time>
      </trkpt>
      <trkpt lat="45.22252" lon="6.02053">
        <ele>1719.4470214844</ele>
        <time>2017-03-24T08:42:59Z</time>
      </trkpt>
      <trkpt lat="45.22254" lon="6.02059">
        <ele>1720.4470214844</ele>
        <time>2017-03-24T08:43:04Z</time>
      </trkpt>
      <trkpt lat="45.22252" lon="6.02064">
        <ele>1723.4470214844</ele>
        <time>2017-03-24T08:43:08Z</time>
      </trkpt>
      <trkpt lat="45.22255" lon="6.0207">
        <ele>1723.4470214844</ele>
        <time>2017-03-24T08:43:12Z</time>
      </trkpt>
      <trkpt lat="45.22255" lon="6.02077">
        <ele>1722.4470214844</ele>
        <time>2017-03-24T08:43:21Z</time>
      </trkpt>
      <trkpt lat="45.22257" lon="6.02082">
        <ele>1723.4470214844</ele>
        <time>2017-03-24T08:43:25Z</time>
      </trkpt>
      <trkpt lat="45.22262" lon="6.02084">
        <ele>1726.4470214844</ele>
        <time>2017-03-24T08:43:34Z</time>
      </trkpt>
      <trkpt lat="45.22268" lon="6.02089">
        <ele>1729.4470214844</ele>
        <time>2017-03-24T08:43:39Z</time>
      </trkpt>
      <trkpt lat="45.22272" lon="6.02094">
        <ele>1729.4470214844</ele>
        <time>2017-03-24T08:43:43Z</time>
      </trkpt>
      <trkpt lat="45.22276" lon="6.02099">
        <ele>1728.4470214844</ele>
        <time>2017-03-24T08:43:47Z</time>
      </trkpt>
      <trkpt lat="45.22276" lon="6.02107">
        <ele>1726.4470214844</ele>
        <time>2017-03-24T08:43:51Z</time>
      </trkpt>
      <trkpt lat="45.22276" lon="6.02113">
        <ele>1725.4470214844</ele>
        <time>2017-03-24T08:43:57Z</time>
      </trkpt>
      <trkpt lat="45.22276" lon="6.0212">
        <ele>1729.4470214844</ele>
        <time>2017-03-24T08:44:03Z</time>
      </trkpt>
      <trkpt lat="45.22278" lon="6.02127">
        <ele>1728.4479980469</ele>
        <time>2017-03-24T08:44:07Z</time>
      </trkpt>
      <trkpt lat="45.22278" lon="6.02137">
        <ele>1729.4479980469</ele>
        <time>2017-03-24T08:44:11Z</time>
      </trkpt>
      <trkpt lat="45.22279" lon="6.02144">
        <ele>1734.4479980469</ele>
        <time>2017-03-24T08:44:17Z</time>
      </trkpt>
      <trkpt lat="45.22281" lon="6.0215">
        <ele>1734.4479980469</ele>
        <time>2017-03-24T08:44:24Z</time>
      </trkpt>
      <trkpt lat="45.22284" lon="6.02155">
        <ele>1734.4479980469</ele>
        <time>2017-03-24T08:44:31Z</time>
      </trkpt>
      <trkpt lat="45.2229" lon="6.02158">
        <ele>1736.4479980469</ele>
        <time>2017-03-24T08:44:40Z</time>
      </trkpt>
      <trkpt lat="45.22293" lon="6.02162">
        <ele>1736.4479980469</ele>
        <time>2017-03-24T08:44:47Z</time>
      </trkpt>
      <trkpt lat="45.22298" lon="6.02166">
        <ele>1737.4479980469</ele>
        <time>2017-03-24T08:44:51Z</time>
      </trkpt>
      <trkpt lat="45.22302" lon="6.02169">
        <ele>1738.4479980469</ele>
        <time>2017-03-24T08:44:55Z</time>
      </trkpt>
      <trkpt lat="45.22307" lon="6.02171">
        <ele>1737.4479980469</ele>
        <time>2017-03-24T08:45:00Z</time>
      </trkpt>
      <trkpt lat="45.22311" lon="6.02176">
        <ele>1739.4479980469</ele>
        <time>2017-03-24T08:45:05Z</time>
      </trkpt>
      <trkpt lat="45.22315" lon="6.0218">
        <ele>1738.4479980469</ele>
        <time>2017-03-24T08:45:09Z</time>
      </trkpt>
      <trkpt lat="45.22319" lon="6.02186">
        <ele>1740.4479980469</ele>
        <time>2017-03-24T08:45:16Z</time>
      </trkpt>
      <trkpt lat="45.22317" lon="6.02192">
        <ele>1744.4479980469</ele>
        <time>2017-03-24T08:45:22Z</time>
      </trkpt>
      <trkpt lat="45.2232" lon="6.02198">
        <ele>1746.4479980469</ele>
        <time>2017-03-24T08:45:28Z</time>
      </trkpt>
      <trkpt lat="45.22323" lon="6.02203">
        <ele>1748.4479980469</ele>
        <time>2017-03-24T08:45:33Z</time>
      </trkpt>
      <trkpt lat="45.22324" lon="6.0221">
        <ele>1749.4479980469</ele>
        <time>2017-03-24T08:45:39Z</time>
      </trkpt>
      <trkpt lat="45.22327" lon="6.02216">
        <ele>1749.4479980469</ele>
        <time>2017-03-24T08:45:42Z</time>
      </trkpt>
      <trkpt lat="45.22328" lon="6.02222">
        <ele>1750.4479980469</ele>
        <time>2017-03-24T08:45:49Z</time>
      </trkpt>
      <trkpt lat="45.22331" lon="6.02228">
        <ele>1751.4479980469</ele>
        <time>2017-03-24T08:45:53Z</time>
      </trkpt>
      <trkpt lat="45.22334" lon="6.02233">
        <ele>1754.4479980469</ele>
        <time>2017-03-24T08:45:59Z</time>
      </trkpt>
      <trkpt lat="45.22337" lon="6.0224">
        <ele>1756.4479980469</ele>
        <time>2017-03-24T08:46:06Z</time>
      </trkpt>
      <trkpt lat="45.2234" lon="6.02246">
        <ele>1759.4479980469</ele>
        <time>2017-03-24T08:46:13Z</time>
      </trkpt>
      <trkpt lat="45.22341" lon="6.02255">
        <ele>1764.4479980469</ele>
        <time>2017-03-24T08:46:27Z</time>
      </trkpt>
      <trkpt lat="45.22347" lon="6.02262">
        <ele>1766.4479980469</ele>
        <time>2017-03-24T08:46:34Z</time>
      </trkpt>
      <trkpt lat="45.22346" lon="6.0227">
        <ele>1763.4479980469</ele>
        <time>2017-03-24T08:46:42Z</time>
      </trkpt>
      <trkpt lat="45.22347" lon="6.02276">
        <ele>1761.4479980469</ele>
        <time>2017-03-24T08:46:46Z</time>
      </trkpt>
      <trkpt lat="45.22348" lon="6.02283">
        <ele>1764.4479980469</ele>
        <time>2017-03-24T08:47:00Z</time>
      </trkpt>
      <trkpt lat="45.2235" lon="6.0229">
        <ele>1765.4479980469</ele>
        <time>2017-03-24T08:47:08Z</time>
      </trkpt>
      <trkpt lat="45.22354" lon="6.02294">
        <ele>1766.4479980469</ele>
        <time>2017-03-24T08:47:14Z</time>
      </trkpt>
      <trkpt lat="45.22357" lon="6.023">
        <ele>1768.4479980469</ele>
        <time>2017-03-24T08:47:20Z</time>
      </trkpt>
      <trkpt lat="45.22359" lon="6.02307">
        <ele>1768.4479980469</ele>
        <time>2017-03-24T08:47:28Z</time>
      </trkpt>
      <trkpt lat="45.22362" lon="6.02312">
        <ele>1766.4479980469</ele>
        <time>2017-03-24T08:47:36Z</time>
      </trkpt>
      <trkpt lat="45.22363" lon="6.02319">
        <ele>1769.4479980469</ele>
        <time>2017-03-24T08:47:41Z</time>
      </trkpt>
      <trkpt lat="45.22366" lon="6.02325">
        <ele>1770.4479980469</ele>
        <time>2017-03-24T08:47:44Z</time>
      </trkpt>
      <trkpt lat="45.2237" lon="6.02328">
        <ele>1771.4479980469</ele>
        <time>2017-03-24T08:47:48Z</time>
      </trkpt>
      <trkpt lat="45.22373" lon="6.02333">
        <ele>1774.4479980469</ele>
        <time>2017-03-24T08:47:55Z</time>
      </trkpt>
      <trkpt lat="45.22377" lon="6.02338">
        <ele>1773.4479980469</ele>
        <time>2017-03-24T08:48:02Z</time>
      </trkpt>
      <trkpt lat="45.2238" lon="6.02345">
        <ele>1773.4479980469</ele>
        <time>2017-03-24T08:48:09Z</time>
      </trkpt>
      <trkpt lat="45.22382" lon="6.02352">
        <ele>1776.4479980469</ele>
        <time>2017-03-24T08:48:13Z</time>
      </trkpt>
      <trkpt lat="45.22382" lon="6.02358">
        <ele>1779.4479980469</ele>
        <time>2017-03-24T08:48:18Z</time>
      </trkpt>
      <trkpt lat="45.22381" lon="6.02366">
        <ele>1779.4479980469</ele>
        <time>2017-03-24T08:48:24Z</time>
      </trkpt>
      <trkpt lat="45.22382" lon="6.02372">
        <ele>1780.4479980469</ele>
        <time>2017-03-24T08:48:36Z</time>
      </trkpt>
      <trkpt lat="45.22385" lon="6.02378">
        <ele>1780.4479980469</ele>
        <time>2017-03-24T08:48:44Z</time>
      </trkpt>
      <trkpt lat="45.22389" lon="6.0238">
        <ele>1782.4479980469</ele>
        <time>2017-03-24T08:48:50Z</time>
      </trkpt>
      <trkpt lat="45.22394" lon="6.02381">
        <ele>1782.4479980469</ele>
        <time>2017-03-24T08:48:57Z</time>
      </trkpt>
      <trkpt lat="45.22398" lon="6.02384">
        <ele>1784.4479980469</ele>
        <time>2017-03-24T08:49:07Z</time>
      </trkpt>
      <trkpt lat="45.22403" lon="6.02387">
        <ele>1786.4479980469</ele>
        <time>2017-03-24T08:49:11Z</time>
      </trkpt>
      <trkpt lat="45.22407" lon="6.02393">
        <ele>1789.4479980469</ele>
        <time>2017-03-24T08:49:20Z</time>
      </trkpt>
      <trkpt lat="45.22405" lon="6.02398">
        <ele>1794.4479980469</ele>
        <time>2017-03-24T08:49:26Z</time>
      </trkpt>
      <trkpt lat="45.22407" lon="6.02404">
        <ele>1792.4479980469</ele>
        <time>2017-03-24T08:49:34Z</time>
      </trkpt>
      <trkpt lat="45.22405" lon="6.0241">
        <ele>1793.4479980469</ele>
        <time>2017-03-24T08:49:41Z</time>
      </trkpt>
      <trkpt lat="45.22407" lon="6.02418">
        <ele>1794.4479980469</ele>
        <time>2017-03-24T08:49:48Z</time>
      </trkpt>
      <trkpt lat="45.22406" lon="6.02426">
        <ele>1795.4479980469</ele>
        <time>2017-03-24T08:50:01Z</time>
      </trkpt>
      <trkpt lat="45.22405" lon="6.02433">
        <ele>1797.4479980469</ele>
        <time>2017-03-24T08:50:05Z</time>
      </trkpt>
      <trkpt lat="45.22403" lon="6.0244">
        <ele>1800.4479980469</ele>
        <time>2017-03-24T08:50:09Z</time>
      </trkpt>
      <trkpt lat="45.22403" lon="6.02446">
        <ele>1803.4479980469</ele>
        <time>2017-03-24T08:50:14Z</time>
      </trkpt>
      <trkpt lat="45.22404" lon="6.02454">
        <ele>1802.4479980469</ele>
        <time>2017-03-24T08:50:20Z</time>
      </trkpt>
      <trkpt lat="45.22404" lon="6.02461">
        <ele>1804.4479980469</ele>
        <time>2017-03-24T08:50:24Z</time>
      </trkpt>
      <trkpt lat="45.22407" lon="6.02467">
        <ele>1805.4479980469</ele>
        <time>2017-03-24T08:50:29Z</time>
      </trkpt>
      <trkpt lat="45.22409" lon="6.02474">
        <ele>1805.4479980469</ele>
        <time>2017-03-24T08:50:32Z</time>
      </trkpt>
      <trkpt lat="45.22411" lon="6.0248">
        <ele>1806.4479980469</ele>
        <time>2017-03-24T08:50:38Z</time>
      </trkpt>
      <trkpt lat="45.22414" lon="6.02486">
        <ele>1808.4479980469</ele>
        <time>2017-03-24T08:50:46Z</time>
      </trkpt>
      <trkpt lat="45.22418" lon="6.02491">
        <ele>1810.4479980469</ele>
        <time>2017-03-24T08:50:54Z</time>
      </trkpt>
      <trkpt lat="45.22418" lon="6.02498">
        <ele>1811.4479980469</ele>
        <time>2017-03-24T08:51:02Z</time>
      </trkpt>
      <trkpt lat="45.22415" lon="6.02504">
        <ele>1815.4479980469</ele>
        <time>2017-03-24T08:51:07Z</time>
      </trkpt>
      <trkpt lat="45.22415" lon="6.02511">
        <ele>1817.4479980469</ele>
        <time>2017-03-24T08:51:16Z</time>
      </trkpt>
      <trkpt lat="45.22418" lon="6.02515">
        <ele>1820.4479980469</ele>
        <time>2017-03-24T08:51:23Z</time>
      </trkpt>
      <trkpt lat="45.22424" lon="6.02519">
        <ele>1821.4479980469</ele>
        <time>2017-03-24T08:51:32Z</time>
      </trkpt>
      <trkpt lat="45.22428" lon="6.02522">
        <ele>1821.4479980469</ele>
        <time>2017-03-24T08:51:38Z</time>
      </trkpt>
      <trkpt lat="45.22432" lon="6.02528">
        <ele>1823.4479980469</ele>
        <time>2017-03-24T08:51:44Z</time>
      </trkpt>
      <trkpt lat="45.22434" lon="6.02534">
        <ele>1823.4479980469</ele>
        <time>2017-03-24T08:51:50Z</time>
      </trkpt>
      <trkpt lat="45.22435" lon="6.0254">
        <ele>1826.4479980469</ele>
        <time>2017-03-24T08:51:56Z</time>
      </trkpt>
      <trkpt lat="45.22434" lon="6.02547">
        <ele>1829.4479980469</ele>
        <time>2017-03-24T08:52:08Z</time>
      </trkpt>
      <trkpt lat="45.22433" lon="6.02555">
        <ele>1830.4479980469</ele>
        <time>2017-03-24T08:52:16Z</time>
      </trkpt>
      <trkpt lat="45.22436" lon="6.0256">
        <ele>1830.4479980469</ele>
        <time>2017-03-24T08:52:22Z</time>
      </trkpt>
      <trkpt lat="45.2244" lon="6.02564">
        <ele>1831.4479980469</ele>
        <time>2017-03-24T08:52:26Z</time>
      </trkpt>
      <trkpt lat="45.22445" lon="6.0257">
        <ele>1830.4479980469</ele>
        <time>2017-03-24T08:52:31Z</time>
      </trkpt>
      <trkpt lat="45.22449" lon="6.02571">
        <ele>1832.4479980469</ele>
        <time>2017-03-24T08:52:36Z</time>
      </trkpt>
      <trkpt lat="45.22454" lon="6.02572">
        <ele>1833.4479980469</ele>
        <time>2017-03-24T08:52:43Z</time>
      </trkpt>
      <trkpt lat="45.22459" lon="6.02572">
        <ele>1837.4479980469</ele>
        <time>2017-03-24T08:52:53Z</time>
      </trkpt>
      <trkpt lat="45.22463" lon="6.02574">
        <ele>1837.4479980469</ele>
        <time>2017-03-24T08:52:59Z</time>
      </trkpt>
      <trkpt lat="45.22468" lon="6.02575">
        <ele>1841.4489746094</ele>
        <time>2017-03-24T08:53:09Z</time>
      </trkpt>
      <trkpt lat="45.22472" lon="6.0258">
        <ele>1842.4489746094</ele>
        <time>2017-03-24T08:53:15Z</time>
      </trkpt>
      <trkpt lat="45.22474" lon="6.02587">
        <ele>1846.4489746094</ele>
        <time>2017-03-24T08:53:23Z</time>
      </trkpt>
      <trkpt lat="45.22477" lon="6.02595">
        <ele>1845.4489746094</ele>
        <time>2017-03-24T08:53:33Z</time>
      </trkpt>
      <trkpt lat="45.22482" lon="6.02601">
        <ele>1848.4489746094</ele>
        <time>2017-03-24T08:53:41Z</time>
      </trkpt>
      <trkpt lat="45.2248" lon="6.02608">
        <ele>1853.4489746094</ele>
        <time>2017-03-24T08:53:48Z</time>
      </trkpt>
      <trkpt lat="45.22478" lon="6.02615">
        <ele>1853.4489746094</ele>
        <time>2017-03-24T08:53:55Z</time>
      </trkpt>
      <trkpt lat="45.22481" lon="6.02619">
        <ele>1856.4489746094</ele>
        <time>2017-03-24T08:54:01Z</time>
      </trkpt>
      <trkpt lat="45.22487" lon="6.0262">
        <ele>1854.4489746094</ele>
        <time>2017-03-24T08:54:07Z</time>
      </trkpt>
      <trkpt lat="45.22491" lon="6.02624">
        <ele>1854.4489746094</ele>
        <time>2017-03-24T08:54:11Z</time>
      </trkpt>
      <trkpt lat="45.22496" lon="6.02626">
        <ele>1855.4489746094</ele>
        <time>2017-03-24T08:54:18Z</time>
      </trkpt>
      <trkpt lat="45.225" lon="6.0263">
        <ele>1858.4489746094</ele>
        <time>2017-03-24T08:54:24Z</time>
      </trkpt>
      <trkpt lat="45.22505" lon="6.02631">
        <ele>1863.4489746094</ele>
        <time>2017-03-24T08:54:33Z</time>
      </trkpt>
      <trkpt lat="45.22509" lon="6.02633">
        <ele>1864.4489746094</ele>
        <time>2017-03-24T08:54:37Z</time>
      </trkpt>
      <trkpt lat="45.22514" lon="6.02634">
        <ele>1863.4489746094</ele>
        <time>2017-03-24T08:54:41Z</time>
      </trkpt>
      <trkpt lat="45.22519" lon="6.02634">
        <ele>1861.4489746094</ele>
        <time>2017-03-24T08:54:45Z</time>
      </trkpt>
      <trkpt lat="45.22525" lon="6.02635">
        <ele>1862.4489746094</ele>
        <time>2017-03-24T08:54:49Z</time>
      </trkpt>
      <trkpt lat="45.22529" lon="6.02637">
        <ele>1862.4489746094</ele>
        <time>2017-03-24T08:54:55Z</time>
      </trkpt>
      <trkpt lat="45.22535" lon="6.02638">
        <ele>1862.4489746094</ele>
        <time>2017-03-24T08:55:03Z</time>
      </trkpt>
      <trkpt lat="45.22541" lon="6.02641">
        <ele>1862.4489746094</ele>
        <time>2017-03-24T08:55:08Z</time>
      </trkpt>
      <trkpt lat="45.22545" lon="6.02644">
        <ele>1862.4489746094</ele>
        <time>2017-03-24T08:55:13Z</time>
      </trkpt>
      <trkpt lat="45.22551" lon="6.02645">
        <ele>1864.4489746094</ele>
        <time>2017-03-24T08:55:19Z</time>
      </trkpt>
      <trkpt lat="45.22556" lon="6.02646">
        <ele>1865.4489746094</ele>
        <time>2017-03-24T08:55:24Z</time>
      </trkpt>
      <trkpt lat="45.22562" lon="6.02645">
        <ele>1867.4489746094</ele>
        <time>2017-03-24T08:55:32Z</time>
      </trkpt>
      <trkpt lat="45.22568" lon="6.02646">
        <ele>1869.4489746094</ele>
        <time>2017-03-24T08:55:38Z</time>
      </trkpt>
      <trkpt lat="45.22572" lon="6.02649">
        <ele>1873.4489746094</ele>
        <time>2017-03-24T08:55:43Z</time>
      </trkpt>
      <trkpt lat="45.22574" lon="6.02658">
        <ele>1875.4489746094</ele>
        <time>2017-03-24T08:55:49Z</time>
      </trkpt>
      <trkpt lat="45.22576" lon="6.02664">
        <ele>1875.4489746094</ele>
        <time>2017-03-24T08:55:54Z</time>
      </trkpt>
      <trkpt lat="45.2258" lon="6.0267">
        <ele>1875.4489746094</ele>
        <time>2017-03-24T08:56:01Z</time>
      </trkpt>
      <trkpt lat="45.22583" lon="6.02675">
        <ele>1875.4489746094</ele>
        <time>2017-03-24T08:56:08Z</time>
      </trkpt>
      <trkpt lat="45.22586" lon="6.0268">
        <ele>1878.4489746094</ele>
        <time>2017-03-24T08:56:14Z</time>
      </trkpt>
      <trkpt lat="45.22589" lon="6.02688">
        <ele>1879.4489746094</ele>
        <time>2017-03-24T08:56:18Z</time>
      </trkpt>
      <trkpt lat="45.22592" lon="6.02694">
        <ele>1883.4489746094</ele>
        <time>2017-03-24T08:56:23Z</time>
      </trkpt>
      <trkpt lat="45.22594" lon="6.02701">
        <ele>1882.4489746094</ele>
        <time>2017-03-24T08:56:29Z</time>
      </trkpt>
      <trkpt lat="45.22597" lon="6.02708">
        <ele>1885.4489746094</ele>
        <time>2017-03-24T08:56:38Z</time>
      </trkpt>
      <trkpt lat="45.22602" lon="6.02712">
        <ele>1885.4489746094</ele>
        <time>2017-03-24T08:56:42Z</time>
      </trkpt>
      <trkpt lat="45.22608" lon="6.02714">
        <ele>1885.4489746094</ele>
        <time>2017-03-24T08:56:46Z</time>
      </trkpt>
      <trkpt lat="45.22613" lon="6.02718">
        <ele>1885.4489746094</ele>
        <time>2017-03-24T08:56:50Z</time>
      </trkpt>
      <trkpt lat="45.22617" lon="6.02722">
        <ele>1886.4489746094</ele>
        <time>2017-03-24T08:56:56Z</time>
      </trkpt>
      <trkpt lat="45.22623" lon="6.02723">
        <ele>1889.4489746094</ele>
        <time>2017-03-24T08:57:00Z</time>
      </trkpt>
      <trkpt lat="45.22627" lon="6.02726">
        <ele>1887.4489746094</ele>
        <time>2017-03-24T08:57:07Z</time>
      </trkpt>
      <trkpt lat="45.22632" lon="6.0273">
        <ele>1888.4489746094</ele>
        <time>2017-03-24T08:57:13Z</time>
      </trkpt>
      <trkpt lat="45.22636" lon="6.02733">
        <ele>1889.4489746094</ele>
        <time>2017-03-24T08:57:18Z</time>
      </trkpt>
      <trkpt lat="45.2264" lon="6.02736">
        <ele>1893.4489746094</ele>
        <time>2017-03-24T08:57:27Z</time>
      </trkpt>
      <trkpt lat="45.22646" lon="6.02739">
        <ele>1895.4489746094</ele>
        <time>2017-03-24T08:57:34Z</time>
      </trkpt>
      <trkpt lat="45.22649" lon="6.02743">
        <ele>1895.4489746094</ele>
        <time>2017-03-24T08:57:40Z</time>
      </trkpt>
      <trkpt lat="45.22654" lon="6.02748">
        <ele>1897.4489746094</ele>
        <time>2017-03-24T08:57:46Z</time>
      </trkpt>
      <trkpt lat="45.22657" lon="6.02754">
        <ele>1898.4489746094</ele>
        <time>2017-03-24T08:57:51Z</time>
      </trkpt>
      <trkpt lat="45.22659" lon="6.0276">
        <ele>1895.4489746094</ele>
        <time>2017-03-24T08:57:57Z</time>
      </trkpt>
      <trkpt lat="45.22661" lon="6.02766">
        <ele>1898.4489746094</ele>
        <time>2017-03-24T08:58:02Z</time>
      </trkpt>
      <trkpt lat="45.22665" lon="6.0277">
        <ele>1902.4489746094</ele>
        <time>2017-03-24T08:58:09Z</time>
      </trkpt>
      <trkpt lat="45.22666" lon="6.02777">
        <ele>1905.4489746094</ele>
        <time>2017-03-24T08:58:13Z</time>
      </trkpt>
      <trkpt lat="45.22668" lon="6.02783">
        <ele>1909.4489746094</ele>
        <time>2017-03-24T08:58:24Z</time>
      </trkpt>
      <trkpt lat="45.22669" lon="6.02789">
        <ele>1910.4489746094</ele>
        <time>2017-03-24T08:58:29Z</time>
      </trkpt>
      <trkpt lat="45.22672" lon="6.02794">
        <ele>1912.4489746094</ele>
        <time>2017-03-24T08:58:34Z</time>
      </trkpt>
      <trkpt lat="45.22674" lon="6.028">
        <ele>1912.4489746094</ele>
        <time>2017-03-24T08:58:39Z</time>
      </trkpt>
      <trkpt lat="45.22679" lon="6.02802">
        <ele>1919.4489746094</ele>
        <time>2017-03-24T08:58:45Z</time>
      </trkpt>
      <trkpt lat="45.22681" lon="6.02808">
        <ele>1920.4489746094</ele>
        <time>2017-03-24T08:58:52Z</time>
      </trkpt>
      <trkpt lat="45.22677" lon="6.0281">
        <ele>1922.4489746094</ele>
        <time>2017-03-24T08:58:59Z</time>
      </trkpt>
      <trkpt lat="45.22672" lon="6.02808">
        <ele>1924.4489746094</ele>
        <time>2017-03-24T08:59:04Z</time>
      </trkpt>
      <trkpt lat="45.22676" lon="6.02812">
        <ele>1926.4489746094</ele>
        <time>2017-03-24T08:59:17Z</time>
      </trkpt>
      <trkpt lat="45.22679" lon="6.02818">
        <ele>1928.4489746094</ele>
        <time>2017-03-24T08:59:22Z</time>
      </trkpt>
      <trkpt lat="45.22684" lon="6.02822">
        <ele>1930.4489746094</ele>
        <time>2017-03-24T08:59:27Z</time>
      </trkpt>
      <trkpt lat="45.22689" lon="6.02827">
        <ele>1933.4489746094</ele>
        <time>2017-03-24T08:59:33Z</time>
      </trkpt>
      <trkpt lat="45.22692" lon="6.02833">
        <ele>1936.4489746094</ele>
        <time>2017-03-24T08:59:43Z</time>
      </trkpt>
      <trkpt lat="45.22691" lon="6.02841">
        <ele>1937.4489746094</ele>
        <time>2017-03-24T08:59:51Z</time>
      </trkpt>
      <trkpt lat="45.22697" lon="6.02843">
        <ele>1937.4489746094</ele>
        <time>2017-03-24T08:59:58Z</time>
      </trkpt>
      <trkpt lat="45.22701" lon="6.02843">
        <ele>1940.4489746094</ele>
        <time>2017-03-24T09:00:07Z</time>
      </trkpt>
      <trkpt lat="45.22699" lon="6.0285">
        <ele>1942.4489746094</ele>
        <time>2017-03-24T09:00:13Z</time>
      </trkpt>
      <trkpt lat="45.22696" lon="6.02857">
        <ele>1942.4489746094</ele>
        <time>2017-03-24T09:00:17Z</time>
      </trkpt>
      <trkpt lat="45.22693" lon="6.02862">
        <ele>1944.4489746094</ele>
        <time>2017-03-24T09:00:24Z</time>
      </trkpt>
      <trkpt lat="45.22688" lon="6.02863">
        <ele>1948.4489746094</ele>
        <time>2017-03-24T09:00:35Z</time>
      </trkpt>
      <trkpt lat="45.22685" lon="6.02868">
        <ele>1948.4489746094</ele>
        <time>2017-03-24T09:00:40Z</time>
      </trkpt>
      <trkpt lat="45.22681" lon="6.02872">
        <ele>1949.4489746094</ele>
        <time>2017-03-24T09:00:47Z</time>
      </trkpt>
      <trkpt lat="45.22675" lon="6.02875">
        <ele>1949.4489746094</ele>
        <time>2017-03-24T09:00:52Z</time>
      </trkpt>
      <trkpt lat="45.22671" lon="6.02876">
        <ele>1950.4489746094</ele>
        <time>2017-03-24T09:01:00Z</time>
      </trkpt>
      <trkpt lat="45.22666" lon="6.02873">
        <ele>1951.4489746094</ele>
        <time>2017-03-24T09:01:06Z</time>
      </trkpt>
      <trkpt lat="45.22661" lon="6.02871">
        <ele>1954.4489746094</ele>
        <time>2017-03-24T09:01:10Z</time>
      </trkpt>
      <trkpt lat="45.22657" lon="6.0287">
        <ele>1955.4489746094</ele>
        <time>2017-03-24T09:01:16Z</time>
      </trkpt>
      <trkpt lat="45.22652" lon="6.02869">
        <ele>1957.4489746094</ele>
        <time>2017-03-24T09:01:22Z</time>
      </trkpt>
      <trkpt lat="45.22647" lon="6.02869">
        <ele>1958.4489746094</ele>
        <time>2017-03-24T09:01:28Z</time>
      </trkpt>
      <trkpt lat="45.22642" lon="6.02871">
        <ele>1957.4489746094</ele>
        <time>2017-03-24T09:01:33Z</time>
      </trkpt>
      <trkpt lat="45.2264" lon="6.02878">
        <ele>1958.4489746094</ele>
        <time>2017-03-24T09:01:42Z</time>
      </trkpt>
      <trkpt lat="45.22637" lon="6.02882">
        <ele>1959.4489746094</ele>
        <time>2017-03-24T09:01:49Z</time>
      </trkpt>
      <trkpt lat="45.22635" lon="6.02889">
        <ele>1961.4489746094</ele>
        <time>2017-03-24T09:01:58Z</time>
      </trkpt>
      <trkpt lat="45.22632" lon="6.02896">
        <ele>1962.4489746094</ele>
        <time>2017-03-24T09:02:07Z</time>
      </trkpt>
      <trkpt lat="45.22634" lon="6.02902">
        <ele>1966.4489746094</ele>
        <time>2017-03-24T09:02:18Z</time>
      </trkpt>
      <trkpt lat="45.22638" lon="6.02905">
        <ele>1966.4489746094</ele>
        <time>2017-03-24T09:02:26Z</time>
      </trkpt>
      <trkpt lat="45.22641" lon="6.0291">
        <ele>1965.4489746094</ele>
        <time>2017-03-24T09:02:32Z</time>
      </trkpt>
      <trkpt lat="45.22645" lon="6.02914">
        <ele>1967.4489746094</ele>
        <time>2017-03-24T09:02:40Z</time>
      </trkpt>
      <trkpt lat="45.22642" lon="6.02919">
        <ele>1971.4489746094</ele>
        <time>2017-03-24T09:02:46Z</time>
      </trkpt>
      <trkpt lat="45.2264" lon="6.02926">
        <ele>1971.4489746094</ele>
        <time>2017-03-24T09:02:55Z</time>
      </trkpt>
      <trkpt lat="45.22637" lon="6.02932">
        <ele>1972.4489746094</ele>
        <time>2017-03-24T09:03:03Z</time>
      </trkpt>
      <trkpt lat="45.22635" lon="6.02937">
        <ele>1970.4489746094</ele>
        <time>2017-03-24T09:03:07Z</time>
      </trkpt>
      <trkpt lat="45.22632" lon="6.02943">
        <ele>1971.4489746094</ele>
        <time>2017-03-24T09:03:12Z</time>
      </trkpt>
      <trkpt lat="45.22629" lon="6.02949">
        <ele>1971.4489746094</ele>
        <time>2017-03-24T09:03:21Z</time>
      </trkpt>
      <trkpt lat="45.22624" lon="6.02952">
        <ele>1975.4489746094</ele>
        <time>2017-03-24T09:03:31Z</time>
      </trkpt>
      <trkpt lat="45.22621" lon="6.02957">
        <ele>1979.4489746094</ele>
        <time>2017-03-24T09:03:34Z</time>
      </trkpt>
      <trkpt lat="45.22625" lon="6.02959">
        <ele>1981.4489746094</ele>
        <time>2017-03-24T09:03:43Z</time>
      </trkpt>
      <trkpt lat="45.2263" lon="6.02963">
        <ele>1983.4489746094</ele>
        <time>2017-03-24T09:03:49Z</time>
      </trkpt>
      <trkpt lat="45.22626" lon="6.02969">
        <ele>1984.4489746094</ele>
        <time>2017-03-24T09:03:57Z</time>
      </trkpt>
      <trkpt lat="45.22621" lon="6.02972">
        <ele>1986.4489746094</ele>
        <time>2017-03-24T09:04:04Z</time>
      </trkpt>
      <trkpt lat="45.22618" lon="6.02977">
        <ele>1986.4489746094</ele>
        <time>2017-03-24T09:04:12Z</time>
      </trkpt>
      <trkpt lat="45.22614" lon="6.02982">
        <ele>1987.4489746094</ele>
        <time>2017-03-24T09:04:18Z</time>
      </trkpt>
      <trkpt lat="45.22612" lon="6.0299">
        <ele>1988.4489746094</ele>
        <time>2017-03-24T09:04:26Z</time>
      </trkpt>
      <trkpt lat="45.2261" lon="6.02997">
        <ele>1991.4489746094</ele>
        <time>2017-03-24T09:04:33Z</time>
      </trkpt>
      <trkpt lat="45.22609" lon="6.03003">
        <ele>1992.4489746094</ele>
        <time>2017-03-24T09:04:39Z</time>
      </trkpt>
      <trkpt lat="45.22607" lon="6.0301">
        <ele>1991.4489746094</ele>
        <time>2017-03-24T09:04:42Z</time>
      </trkpt>
      <trkpt lat="45.22611" lon="6.03013">
        <ele>1991.4489746094</ele>
        <time>2017-03-24T09:04:49Z</time>
      </trkpt>
      <trkpt lat="45.22617" lon="6.03015">
        <ele>1991.4489746094</ele>
        <time>2017-03-24T09:04:54Z</time>
      </trkpt>
      <trkpt lat="45.22622" lon="6.03017">
        <ele>1994.4489746094</ele>
        <time>2017-03-24T09:05:00Z</time>
      </trkpt>
      <trkpt lat="45.22627" lon="6.03021">
        <ele>1996.4489746094</ele>
        <time>2017-03-24T09:05:12Z</time>
      </trkpt>
      <trkpt lat="45.22631" lon="6.0302">
        <ele>1996.4489746094</ele>
        <time>2017-03-24T09:05:16Z</time>
      </trkpt>
      <trkpt lat="45.22637" lon="6.03022">
        <ele>1998.4489746094</ele>
        <time>2017-03-24T09:05:22Z</time>
      </trkpt>
      <trkpt lat="45.22641" lon="6.03024">
        <ele>1997.4489746094</ele>
        <time>2017-03-24T09:05:29Z</time>
      </trkpt>
      <trkpt lat="45.22647" lon="6.03026">
        <ele>1999.4489746094</ele>
        <time>2017-03-24T09:05:34Z</time>
      </trkpt>
      <trkpt lat="45.22652" lon="6.03029">
        <ele>1999.4499511719</ele>
        <time>2017-03-24T09:05:39Z</time>
      </trkpt>
      <trkpt lat="45.22656" lon="6.03033">
        <ele>2000.4499511719</ele>
        <time>2017-03-24T09:05:45Z</time>
      </trkpt>
      <trkpt lat="45.22661" lon="6.03033">
        <ele>2001.4499511719</ele>
        <time>2017-03-24T09:05:52Z</time>
      </trkpt>
      <trkpt lat="45.22666" lon="6.03034">
        <ele>2003.4499511719</ele>
        <time>2017-03-24T09:05:58Z</time>
      </trkpt>
      <trkpt lat="45.22671" lon="6.03033">
        <ele>2007.4499511719</ele>
        <time>2017-03-24T09:06:04Z</time>
      </trkpt>
      <trkpt lat="45.22676" lon="6.03033">
        <ele>2010.4499511719</ele>
        <time>2017-03-24T09:06:13Z</time>
      </trkpt>
      <trkpt lat="45.22681" lon="6.03034">
        <ele>2011.4499511719</ele>
        <time>2017-03-24T09:06:20Z</time>
      </trkpt>
      <trkpt lat="45.22684" lon="6.03039">
        <ele>2015.4499511719</ele>
        <time>2017-03-24T09:06:32Z</time>
      </trkpt>
      <trkpt lat="45.22689" lon="6.03041">
        <ele>2016.4499511719</ele>
        <time>2017-03-24T09:06:41Z</time>
      </trkpt>
      <trkpt lat="45.22691" lon="6.03047">
        <ele>2021.4499511719</ele>
        <time>2017-03-24T09:06:53Z</time>
      </trkpt>
      <trkpt lat="45.22692" lon="6.03055">
        <ele>2022.4499511719</ele>
        <time>2017-03-24T09:07:08Z</time>
      </trkpt>
      <trkpt lat="45.22692" lon="6.03061">
        <ele>2021.4499511719</ele>
        <time>2017-03-24T09:07:11Z</time>
      </trkpt>
      <trkpt lat="45.22696" lon="6.03061">
        <ele>2026.4499511719</ele>
        <time>2017-03-24T09:07:24Z</time>
      </trkpt>
      <trkpt lat="45.22697" lon="6.03068">
        <ele>2027.4499511719</ele>
        <time>2017-03-24T09:07:30Z</time>
      </trkpt>
      <trkpt lat="45.22697" lon="6.03076">
        <ele>2030.4499511719</ele>
        <time>2017-03-24T09:07:36Z</time>
      </trkpt>
      <trkpt lat="45.22698" lon="6.03083">
        <ele>2035.4499511719</ele>
        <time>2017-03-24T09:07:42Z</time>
      </trkpt>
      <trkpt lat="45.22698" lon="6.0309">
        <ele>2035.4499511719</ele>
        <time>2017-03-24T09:07:47Z</time>
      </trkpt>
      <trkpt lat="45.22702" lon="6.03095">
        <ele>2036.4499511719</ele>
        <time>2017-03-24T09:07:50Z</time>
      </trkpt>
      <trkpt lat="45.22704" lon="6.03101">
        <ele>2035.4499511719</ele>
        <time>2017-03-24T09:07:54Z</time>
      </trkpt>
      <trkpt lat="45.22708" lon="6.03107">
        <ele>2034.4499511719</ele>
        <time>2017-03-24T09:07:59Z</time>
      </trkpt>
      <trkpt lat="45.22712" lon="6.03111">
        <ele>2036.4499511719</ele>
        <time>2017-03-24T09:08:06Z</time>
      </trkpt>
      <trkpt lat="45.22715" lon="6.03116">
        <ele>2038.4499511719</ele>
        <time>2017-03-24T09:08:13Z</time>
      </trkpt>
      <trkpt lat="45.22718" lon="6.03122">
        <ele>2039.4499511719</ele>
        <time>2017-03-24T09:08:18Z</time>
      </trkpt>
      <trkpt lat="45.22721" lon="6.03128">
        <ele>2043.4499511719</ele>
        <time>2017-03-24T09:08:25Z</time>
      </trkpt>
      <trkpt lat="45.22724" lon="6.03134">
        <ele>2043.4499511719</ele>
        <time>2017-03-24T09:08:30Z</time>
      </trkpt>
      <trkpt lat="45.22727" lon="6.0314">
        <ele>2045.4499511719</ele>
        <time>2017-03-24T09:08:36Z</time>
      </trkpt>
      <trkpt lat="45.22728" lon="6.03146">
        <ele>2048.4499511719</ele>
        <time>2017-03-24T09:08:41Z</time>
      </trkpt>
      <trkpt lat="45.22732" lon="6.03151">
        <ele>2050.4499511719</ele>
        <time>2017-03-24T09:08:45Z</time>
      </trkpt>
      <trkpt lat="45.22731" lon="6.03158">
        <ele>2047.4499511719</ele>
        <time>2017-03-24T09:08:53Z</time>
      </trkpt>
      <trkpt lat="45.22733" lon="6.03165">
        <ele>2049.4499511719</ele>
        <time>2017-03-24T09:08:59Z</time>
      </trkpt>
      <trkpt lat="45.22732" lon="6.03172">
        <ele>2048.4499511719</ele>
        <time>2017-03-24T09:09:06Z</time>
      </trkpt>
      <trkpt lat="45.22738" lon="6.03177">
        <ele>2049.4499511719</ele>
        <time>2017-03-24T09:09:13Z</time>
      </trkpt>
      <trkpt lat="45.22743" lon="6.03176">
        <ele>2052.4499511719</ele>
        <time>2017-03-24T09:09:22Z</time>
      </trkpt>
      <trkpt lat="45.22748" lon="6.03178">
        <ele>2052.4499511719</ele>
        <time>2017-03-24T09:09:29Z</time>
      </trkpt>
      <trkpt lat="45.22753" lon="6.03179">
        <ele>2053.4499511719</ele>
        <time>2017-03-24T09:09:35Z</time>
      </trkpt>
      <trkpt lat="45.22755" lon="6.03184">
        <ele>2058.4499511719</ele>
        <time>2017-03-24T09:09:44Z</time>
      </trkpt>
      <trkpt lat="45.22756" lon="6.03192">
        <ele>2060.4499511719</ele>
        <time>2017-03-24T09:09:51Z</time>
      </trkpt>
      <trkpt lat="45.22756" lon="6.03199">
        <ele>2061.4499511719</ele>
        <time>2017-03-24T09:10:00Z</time>
      </trkpt>
      <trkpt lat="45.22754" lon="6.03206">
        <ele>2062.4499511719</ele>
        <time>2017-03-24T09:10:14Z</time>
      </trkpt>
      <trkpt lat="45.2275" lon="6.03213">
        <ele>2063.4499511719</ele>
        <time>2017-03-24T09:10:16Z</time>
      </trkpt>
      <trkpt lat="45.22747" lon="6.0322">
        <ele>2066.4499511719</ele>
        <time>2017-03-24T09:10:19Z</time>
      </trkpt>
      <trkpt lat="45.22749" lon="6.03228">
        <ele>2064.4499511719</ele>
        <time>2017-03-24T09:10:25Z</time>
      </trkpt>
      <trkpt lat="45.22746" lon="6.03234">
        <ele>2065.4499511719</ele>
        <time>2017-03-24T09:10:35Z</time>
      </trkpt>
      <trkpt lat="45.22748" lon="6.03241">
        <ele>2067.4499511719</ele>
        <time>2017-03-24T09:10:45Z</time>
      </trkpt>
      <trkpt lat="45.22753" lon="6.03243">
        <ele>2068.4499511719</ele>
        <time>2017-03-24T09:10:51Z</time>
      </trkpt>
      <trkpt lat="45.22757" lon="6.03246">
        <ele>2070.4499511719</ele>
        <time>2017-03-24T09:11:02Z</time>
      </trkpt>
      <trkpt lat="45.22762" lon="6.03246">
        <ele>2074.4499511719</ele>
        <time>2017-03-24T09:11:07Z</time>
      </trkpt>
      <trkpt lat="45.22768" lon="6.03246">
        <ele>2077.4499511719</ele>
        <time>2017-03-24T09:11:13Z</time>
      </trkpt>
      <trkpt lat="45.22773" lon="6.03249">
        <ele>2081.4499511719</ele>
        <time>2017-03-24T09:11:20Z</time>
      </trkpt>
      <trkpt lat="45.22777" lon="6.03253">
        <ele>2081.4499511719</ele>
        <time>2017-03-24T09:11:25Z</time>
      </trkpt>
      <trkpt lat="45.22781" lon="6.03254">
        <ele>2081.4499511719</ele>
        <time>2017-03-24T09:11:35Z</time>
      </trkpt>
      <trkpt lat="45.22786" lon="6.03251">
        <ele>2086.4499511719</ele>
        <time>2017-03-24T09:11:41Z</time>
      </trkpt>
      <trkpt lat="45.22788" lon="6.03258">
        <ele>2091.4499511719</ele>
        <time>2017-03-24T09:11:56Z</time>
      </trkpt>
      <trkpt lat="45.22786" lon="6.03266">
        <ele>2087.4499511719</ele>
        <time>2017-03-24T09:11:59Z</time>
      </trkpt>
      <trkpt lat="45.22784" lon="6.03272">
        <ele>2090.4499511719</ele>
        <time>2017-03-24T09:12:02Z</time>
      </trkpt>
      <trkpt lat="45.22782" lon="6.0328">
        <ele>2090.4499511719</ele>
        <time>2017-03-24T09:12:07Z</time>
      </trkpt>
      <trkpt lat="45.2278" lon="6.03287">
        <ele>2093.4499511719</ele>
        <time>2017-03-24T09:12:10Z</time>
      </trkpt>
      <trkpt lat="45.22776" lon="6.03291">
        <ele>2095.4499511719</ele>
        <time>2017-03-24T09:12:17Z</time>
      </trkpt>
      <trkpt lat="45.22771" lon="6.03296">
        <ele>2099.4499511719</ele>
        <time>2017-03-24T09:12:30Z</time>
      </trkpt>
      <trkpt lat="45.22777" lon="6.03285">
        <ele>2101.4499511719</ele>
        <time>2017-03-24T09:12:43Z</time>
      </trkpt>
      <trkpt lat="45.22782" lon="6.03282">
        <ele>2103.4499511719</ele>
        <time>2017-03-24T09:12:46Z</time>
      </trkpt>
      <trkpt lat="45.22787" lon="6.03285">
        <ele>2104.4499511719</ele>
        <time>2017-03-24T09:12:54Z</time>
      </trkpt>
      <trkpt lat="45.22792" lon="6.03286">
        <ele>2107.4499511719</ele>
        <time>2017-03-24T09:13:08Z</time>
      </trkpt>
      <trkpt lat="45.22797" lon="6.03283">
        <ele>2110.4499511719</ele>
        <time>2017-03-24T09:13:13Z</time>
      </trkpt>
      <trkpt lat="45.22802" lon="6.03284">
        <ele>2110.4499511719</ele>
        <time>2017-03-24T09:13:17Z</time>
      </trkpt>
      <trkpt lat="45.22807" lon="6.03282">
        <ele>2110.4499511719</ele>
        <time>2017-03-24T09:13:24Z</time>
      </trkpt>
      <trkpt lat="45.22811" lon="6.03281">
        <ele>2112.4499511719</ele>
        <time>2017-03-24T09:13:32Z</time>
      </trkpt>
      <trkpt lat="45.22816" lon="6.03281">
        <ele>2115.4499511719</ele>
        <time>2017-03-24T09:13:39Z</time>
      </trkpt>
      <trkpt lat="45.2282" lon="6.03277">
        <ele>2117.4499511719</ele>
        <time>2017-03-24T09:13:46Z</time>
      </trkpt>
      <trkpt lat="45.22825" lon="6.03275">
        <ele>2120.4499511719</ele>
        <time>2017-03-24T09:13:55Z</time>
      </trkpt>
      <trkpt lat="45.22825" lon="6.03269">
        <ele>2120.4499511719</ele>
        <time>2017-03-24T09:14:00Z</time>
      </trkpt>
      <trkpt lat="45.22829" lon="6.03267">
        <ele>2123.4499511719</ele>
        <time>2017-03-24T09:17:03Z</time>
      </trkpt>
      <trkpt lat="45.22832" lon="6.03261">
        <ele>2124.4499511719</ele>
        <time>2017-03-24T09:17:08Z</time>
      </trkpt>
      <trkpt lat="45.22836" lon="6.03262">
        <ele>2128.4499511719</ele>
        <time>2017-03-24T09:17:15Z</time>
      </trkpt>
      <trkpt lat="45.2284" lon="6.03267">
        <ele>2128.4499511719</ele>
        <time>2017-03-24T09:17:20Z</time>
      </trkpt>
      <trkpt lat="45.22843" lon="6.03273">
        <ele>2129.4499511719</ele>
        <time>2017-03-24T09:17:26Z</time>
      </trkpt>
      <trkpt lat="45.22847" lon="6.03278">
        <ele>2128.4499511719</ele>
        <time>2017-03-24T09:17:29Z</time>
      </trkpt>
      <trkpt lat="45.2285" lon="6.03283">
        <ele>2128.4499511719</ele>
        <time>2017-03-24T09:17:31Z</time>
      </trkpt>
      <trkpt lat="45.22854" lon="6.03288">
        <ele>2127.4499511719</ele>
        <time>2017-03-24T09:17:35Z</time>
      </trkpt>
      <trkpt lat="45.22858" lon="6.03291">
        <ele>2130.4499511719</ele>
        <time>2017-03-24T09:17:39Z</time>
      </trkpt>
      <trkpt lat="45.22863" lon="6.03291">
        <ele>2131.4499511719</ele>
        <time>2017-03-24T09:17:44Z</time>
      </trkpt>
      <trkpt lat="45.22868" lon="6.03292">
        <ele>2132.4499511719</ele>
        <time>2017-03-24T09:17:50Z</time>
      </trkpt>
      <trkpt lat="45.22872" lon="6.03297">
        <ele>2136.4499511719</ele>
        <time>2017-03-24T09:18:00Z</time>
      </trkpt>
      <trkpt lat="45.22876" lon="6.03301">
        <ele>2136.4499511719</ele>
        <time>2017-03-24T09:18:06Z</time>
      </trkpt>
      <trkpt lat="45.22881" lon="6.03304">
        <ele>2137.4499511719</ele>
        <time>2017-03-24T09:18:12Z</time>
      </trkpt>
      <trkpt lat="45.22885" lon="6.03309">
        <ele>2141.4499511719</ele>
        <time>2017-03-24T09:18:19Z</time>
      </trkpt>
      <trkpt lat="45.22889" lon="6.03313">
        <ele>2142.4499511719</ele>
        <time>2017-03-24T09:18:32Z</time>
      </trkpt>
      <trkpt lat="45.22894" lon="6.03313">
        <ele>2141.4499511719</ele>
        <time>2017-03-24T09:18:37Z</time>
      </trkpt>
      <trkpt lat="45.22898" lon="6.03318">
        <ele>2143.4499511719</ele>
        <time>2017-03-24T09:18:47Z</time>
      </trkpt>
      <trkpt lat="45.22902" lon="6.03319">
        <ele>2145.4499511719</ele>
        <time>2017-03-24T09:18:54Z</time>
      </trkpt>
      <trkpt lat="45.22906" lon="6.03322">
        <ele>2148.4499511719</ele>
        <time>2017-03-24T09:18:58Z</time>
      </trkpt>
      <trkpt lat="45.22907" lon="6.03329">
        <ele>2154.4499511719</ele>
        <time>2017-03-24T09:19:08Z</time>
      </trkpt>
      <trkpt lat="45.2291" lon="6.03335">
        <ele>2156.4499511719</ele>
        <time>2017-03-24T09:20:07Z</time>
      </trkpt>
      <trkpt lat="45.22915" lon="6.03337">
        <ele>2158.4499511719</ele>
        <time>2017-03-24T09:20:15Z</time>
      </trkpt>
      <trkpt lat="45.2292" lon="6.03337">
        <ele>2162.4499511719</ele>
        <time>2017-03-24T09:20:21Z</time>
      </trkpt>
      <trkpt lat="45.22924" lon="6.03334">
        <ele>2165.4499511719</ele>
        <time>2017-03-24T09:20:28Z</time>
      </trkpt>
      <trkpt lat="45.22925" lon="6.03342">
        <ele>2166.4499511719</ele>
        <time>2017-03-24T09:20:33Z</time>
      </trkpt>
      <trkpt lat="45.22929" lon="6.03347">
        <ele>2169.4499511719</ele>
        <time>2017-03-24T09:20:40Z</time>
      </trkpt>
      <trkpt lat="45.22931" lon="6.03353">
        <ele>2167.4509277344</ele>
        <time>2017-03-24T09:20:43Z</time>
      </trkpt>
      <trkpt lat="45.22934" lon="6.0336">
        <ele>2165.4509277344</ele>
        <time>2017-03-24T09:20:48Z</time>
      </trkpt>
      <trkpt lat="45.2293" lon="6.03364">
        <ele>2166.4509277344</ele>
        <time>2017-03-24T09:20:53Z</time>
      </trkpt>
      <trkpt lat="45.22936" lon="6.03364">
        <ele>2165.4509277344</ele>
        <time>2017-03-24T09:21:02Z</time>
      </trkpt>
      <trkpt lat="45.22941" lon="6.03361">
        <ele>2168.4509277344</ele>
        <time>2017-03-24T09:21:12Z</time>
      </trkpt>
      <trkpt lat="45.2294" lon="6.03369">
        <ele>2171.4509277344</ele>
        <time>2017-03-24T09:21:17Z</time>
      </trkpt>
      <trkpt lat="45.2294" lon="6.03377">
        <ele>2177.4509277344</ele>
        <time>2017-03-24T09:21:24Z</time>
      </trkpt>
      <trkpt lat="45.22945" lon="6.03379">
        <ele>2177.4509277344</ele>
        <time>2017-03-24T09:21:29Z</time>
      </trkpt>
      <trkpt lat="45.22949" lon="6.03382">
        <ele>2175.4509277344</ele>
        <time>2017-03-24T09:21:34Z</time>
      </trkpt>
      <trkpt lat="45.22952" lon="6.03388">
        <ele>2179.4509277344</ele>
        <time>2017-03-24T09:21:39Z</time>
      </trkpt>
      <trkpt lat="45.22956" lon="6.03392">
        <ele>2183.4509277344</ele>
        <time>2017-03-24T09:21:45Z</time>
      </trkpt>
      <trkpt lat="45.22958" lon="6.03399">
        <ele>2183.4509277344</ele>
        <time>2017-03-24T09:21:51Z</time>
      </trkpt>
      <trkpt lat="45.22962" lon="6.03404">
        <ele>2185.4509277344</ele>
        <time>2017-03-24T09:21:56Z</time>
      </trkpt>
      <trkpt lat="45.22966" lon="6.0341">
        <ele>2185.4509277344</ele>
        <time>2017-03-24T09:22:02Z</time>
      </trkpt>
      <trkpt lat="45.22969" lon="6.03415">
        <ele>2186.4509277344</ele>
        <time>2017-03-24T09:22:08Z</time>
      </trkpt>
      <trkpt lat="45.22972" lon="6.0342">
        <ele>2184.4509277344</ele>
        <time>2017-03-24T09:22:20Z</time>
      </trkpt>
      <trkpt lat="45.22977" lon="6.03422">
        <ele>2187.4509277344</ele>
        <time>2017-03-24T09:22:24Z</time>
      </trkpt>
      <trkpt lat="45.22981" lon="6.03427">
        <ele>2190.4509277344</ele>
        <time>2017-03-24T09:22:31Z</time>
      </trkpt>
      <trkpt lat="45.22984" lon="6.03431">
        <ele>2190.4509277344</ele>
        <time>2017-03-24T09:22:36Z</time>
      </trkpt>
      <trkpt lat="45.22988" lon="6.03435">
        <ele>2193.4509277344</ele>
        <time>2017-03-24T09:22:41Z</time>
      </trkpt>
      <trkpt lat="45.22993" lon="6.03439">
        <ele>2194.4509277344</ele>
        <time>2017-03-24T09:22:46Z</time>
      </trkpt>
      <trkpt lat="45.22996" lon="6.03444">
        <ele>2195.4509277344</ele>
        <time>2017-03-24T09:22:50Z</time>
      </trkpt>
      <trkpt lat="45.22997" lon="6.03452">
        <ele>2194.4509277344</ele>
        <time>2017-03-24T09:22:54Z</time>
      </trkpt>
      <trkpt lat="45.23" lon="6.03458">
        <ele>2194.4509277344</ele>
        <time>2017-03-24T09:23:01Z</time>
      </trkpt>
      <trkpt lat="45.23003" lon="6.03461">
        <ele>2194.4509277344</ele>
        <time>2017-03-24T09:23:06Z</time>
      </trkpt>
      <trkpt lat="45.23005" lon="6.03468">
        <ele>2196.4509277344</ele>
        <time>2017-03-24T09:23:12Z</time>
      </trkpt>
      <trkpt lat="45.23007" lon="6.03474">
        <ele>2198.4509277344</ele>
        <time>2017-03-24T09:23:19Z</time>
      </trkpt>
      <trkpt lat="45.23012" lon="6.03475">
        <ele>2200.4509277344</ele>
        <time>2017-03-24T09:23:22Z</time>
      </trkpt>
      <trkpt lat="45.23016" lon="6.03479">
        <ele>2200.4509277344</ele>
        <time>2017-03-24T09:23:27Z</time>
      </trkpt>
      <trkpt lat="45.23019" lon="6.03484">
        <ele>2199.4509277344</ele>
        <time>2017-03-24T09:23:32Z</time>
      </trkpt>
      <trkpt lat="45.23022" lon="6.0349">
        <ele>2202.4509277344</ele>
        <time>2017-03-24T09:23:36Z</time>
      </trkpt>
      <trkpt lat="45.23025" lon="6.03496">
        <ele>2204.4509277344</ele>
        <time>2017-03-24T09:23:43Z</time>
      </trkpt>
      <trkpt lat="45.23028" lon="6.03501">
        <ele>2206.4509277344</ele>
        <time>2017-03-24T09:23:49Z</time>
      </trkpt>
      <trkpt lat="45.23032" lon="6.03504">
        <ele>2203.4509277344</ele>
        <time>2017-03-24T09:23:52Z</time>
      </trkpt>
      <trkpt lat="45.23037" lon="6.0351">
        <ele>2204.4509277344</ele>
        <time>2017-03-24T09:23:57Z</time>
      </trkpt>
      <trkpt lat="45.23037" lon="6.03516">
        <ele>2204.4509277344</ele>
        <time>2017-03-24T09:24:03Z</time>
      </trkpt>
      <trkpt lat="45.23034" lon="6.03521">
        <ele>2209.4509277344</ele>
        <time>2017-03-24T09:24:09Z</time>
      </trkpt>
      <trkpt lat="45.23036" lon="6.03528">
        <ele>2207.4509277344</ele>
        <time>2017-03-24T09:24:14Z</time>
      </trkpt>
      <trkpt lat="45.23034" lon="6.03535">
        <ele>2208.4509277344</ele>
        <time>2017-03-24T09:24:18Z</time>
      </trkpt>
      <trkpt lat="45.23032" lon="6.03543">
        <ele>2211.4509277344</ele>
        <time>2017-03-24T09:24:23Z</time>
      </trkpt>
      <trkpt lat="45.23032" lon="6.0355">
        <ele>2210.4509277344</ele>
        <time>2017-03-24T09:24:28Z</time>
      </trkpt>
      <trkpt lat="45.23033" lon="6.03559">
        <ele>2211.4509277344</ele>
        <time>2017-03-24T09:24:36Z</time>
      </trkpt>
      <trkpt lat="45.23038" lon="6.03557">
        <ele>2209.4509277344</ele>
        <time>2017-03-24T09:24:38Z</time>
      </trkpt>
      <trkpt lat="45.23037" lon="6.03563">
        <ele>2208.4509277344</ele>
        <time>2017-03-24T09:24:42Z</time>
      </trkpt>
      <trkpt lat="45.23036" lon="6.0357">
        <ele>2209.4509277344</ele>
        <time>2017-03-24T09:24:46Z</time>
      </trkpt>
      <trkpt lat="45.2304" lon="6.03566">
        <ele>2214.4509277344</ele>
        <time>2017-03-24T09:24:53Z</time>
      </trkpt>
      <trkpt lat="45.23044" lon="6.03562">
        <ele>2217.4509277344</ele>
        <time>2017-03-24T09:24:58Z</time>
      </trkpt>
      <trkpt lat="45.2305" lon="6.03562">
        <ele>2217.4509277344</ele>
        <time>2017-03-24T09:25:03Z</time>
      </trkpt>
      <trkpt lat="45.23053" lon="6.03557">
        <ele>2223.4509277344</ele>
        <time>2017-03-24T09:25:10Z</time>
      </trkpt>
      <trkpt lat="45.23058" lon="6.03556">
        <ele>2225.4509277344</ele>
        <time>2017-03-24T09:25:15Z</time>
      </trkpt>
      <trkpt lat="45.2306" lon="6.03549">
        <ele>2226.4509277344</ele>
        <time>2017-03-24T09:25:22Z</time>
      </trkpt>
      <trkpt lat="45.23062" lon="6.03543">
        <ele>2226.4509277344</ele>
        <time>2017-03-24T09:25:28Z</time>
      </trkpt>
      <trkpt lat="45.23067" lon="6.03548">
        <ele>2227.4509277344</ele>
        <time>2017-03-24T09:25:44Z</time>
      </trkpt>
      <trkpt lat="45.23068" lon="6.03555">
        <ele>2229.4509277344</ele>
        <time>2017-03-24T09:25:49Z</time>
      </trkpt>
      <trkpt lat="45.23069" lon="6.03563">
        <ele>2230.4509277344</ele>
        <time>2017-03-24T09:25:53Z</time>
      </trkpt>
      <trkpt lat="45.23073" lon="6.03568">
        <ele>2225.4509277344</ele>
        <time>2017-03-24T09:25:57Z</time>
      </trkpt>
      <trkpt lat="45.23072" lon="6.03562">
        <ele>2230.4509277344</ele>
        <time>2017-03-24T09:26:04Z</time>
      </trkpt>
      <trkpt lat="45.23073" lon="6.03555">
        <ele>2235.4509277344</ele>
        <time>2017-03-24T09:26:10Z</time>
      </trkpt>
      <trkpt lat="45.23075" lon="6.03549">
        <ele>2237.4509277344</ele>
        <time>2017-03-24T09:26:15Z</time>
      </trkpt>
      <trkpt lat="45.23079" lon="6.03544">
        <ele>2242.4509277344</ele>
        <time>2017-03-24T09:26:22Z</time>
      </trkpt>
      <trkpt lat="45.23081" lon="6.03537">
        <ele>2244.4509277344</ele>
        <time>2017-03-24T09:26:30Z</time>
      </trkpt>
      <trkpt lat="45.23082" lon="6.0353">
        <ele>2247.4509277344</ele>
        <time>2017-03-24T09:26:37Z</time>
      </trkpt>
      <trkpt lat="45.23084" lon="6.03524">
        <ele>2248.4509277344</ele>
        <time>2017-03-24T09:26:45Z</time>
      </trkpt>
      <trkpt lat="45.23089" lon="6.03525">
        <ele>2252.4509277344</ele>
        <time>2017-03-24T09:26:54Z</time>
      </trkpt>
      <trkpt lat="45.23091" lon="6.03531">
        <ele>2252.4509277344</ele>
        <time>2017-03-24T09:26:59Z</time>
      </trkpt>
      <trkpt lat="45.23094" lon="6.03536">
        <ele>2252.4509277344</ele>
        <time>2017-03-24T09:27:05Z</time>
      </trkpt>
      <trkpt lat="45.23096" lon="6.03543">
        <ele>2250.4509277344</ele>
        <time>2017-03-24T09:27:12Z</time>
      </trkpt>
      <trkpt lat="45.23099" lon="6.03549">
        <ele>2250.4509277344</ele>
        <time>2017-03-24T09:27:18Z</time>
      </trkpt>
      <trkpt lat="45.23103" lon="6.03548">
        <ele>2260.4509277344</ele>
        <time>2017-03-24T09:27:28Z</time>
      </trkpt>
      <trkpt lat="45.23106" lon="6.0354">
        <ele>2259.4509277344</ele>
        <time>2017-03-24T09:27:36Z</time>
      </trkpt>
      <trkpt lat="45.23108" lon="6.03534">
        <ele>2263.4509277344</ele>
        <time>2017-03-24T09:27:43Z</time>
      </trkpt>
      <trkpt lat="45.2311" lon="6.03528">
        <ele>2264.4509277344</ele>
        <time>2017-03-24T09:27:50Z</time>
      </trkpt>
      <trkpt lat="45.23112" lon="6.03535">
        <ele>2268.4509277344</ele>
        <time>2017-03-24T09:27:56Z</time>
      </trkpt>
      <trkpt lat="45.23115" lon="6.0354">
        <ele>2267.4509277344</ele>
        <time>2017-03-24T09:28:02Z</time>
      </trkpt>
      <trkpt lat="45.23117" lon="6.03545">
        <ele>2268.4509277344</ele>
        <time>2017-03-24T09:28:08Z</time>
      </trkpt>
      <trkpt lat="45.2312" lon="6.03552">
        <ele>2269.4509277344</ele>
        <time>2017-03-24T09:28:14Z</time>
      </trkpt>
      <trkpt lat="45.23122" lon="6.03559">
        <ele>2270.4509277344</ele>
        <time>2017-03-24T09:28:23Z</time>
      </trkpt>
      <trkpt lat="45.23122" lon="6.03567">
        <ele>2273.4509277344</ele>
        <time>2017-03-24T09:28:40Z</time>
      </trkpt>
      <trkpt lat="45.23122" lon="6.03573">
        <ele>2276.4509277344</ele>
        <time>2017-03-24T09:28:45Z</time>
      </trkpt>
      <trkpt lat="45.23126" lon="6.03568">
        <ele>2276.4509277344</ele>
        <time>2017-03-24T09:28:49Z</time>
      </trkpt>
      <trkpt lat="45.23129" lon="6.03563">
        <ele>2275.4509277344</ele>
        <time>2017-03-24T09:28:54Z</time>
      </trkpt>
      <trkpt lat="45.23133" lon="6.03569">
        <ele>2280.4509277344</ele>
        <time>2017-03-24T09:29:08Z</time>
      </trkpt>
      <trkpt lat="45.23133" lon="6.03578">
        <ele>2281.4509277344</ele>
        <time>2017-03-24T09:29:13Z</time>
      </trkpt>
      <trkpt lat="45.23133" lon="6.03585">
        <ele>2281.4509277344</ele>
        <time>2017-03-24T09:29:20Z</time>
      </trkpt>
      <trkpt lat="45.23138" lon="6.03587">
        <ele>2282.4509277344</ele>
        <time>2017-03-24T09:29:26Z</time>
      </trkpt>
      <trkpt lat="45.23138" lon="6.03594">
        <ele>2287.4509277344</ele>
        <time>2017-03-24T09:29:31Z</time>
      </trkpt>
      <trkpt lat="45.23139" lon="6.036">
        <ele>2285.4509277344</ele>
        <time>2017-03-24T09:29:38Z</time>
      </trkpt>
      <trkpt lat="45.23141" lon="6.03606">
        <ele>2285.4509277344</ele>
        <time>2017-03-24T09:29:44Z</time>
      </trkpt>
      <trkpt lat="45.23144" lon="6.03611">
        <ele>2286.4509277344</ele>
        <time>2017-03-24T09:29:50Z</time>
      </trkpt>
      <trkpt lat="45.23148" lon="6.03615">
        <ele>2286.4509277344</ele>
        <time>2017-03-24T09:29:55Z</time>
      </trkpt>
      <trkpt lat="45.23151" lon="6.0362">
        <ele>2286.4509277344</ele>
        <time>2017-03-24T09:30:01Z</time>
      </trkpt>
      <trkpt lat="45.23155" lon="6.03624">
        <ele>2287.4509277344</ele>
        <time>2017-03-24T09:30:05Z</time>
      </trkpt>
      <trkpt lat="45.2316" lon="6.03623">
        <ele>2286.4509277344</ele>
        <time>2017-03-24T09:30:10Z</time>
      </trkpt>
      <trkpt lat="45.23166" lon="6.03621">
        <ele>2285.4509277344</ele>
        <time>2017-03-24T09:30:16Z</time>
      </trkpt>
      <trkpt lat="45.2317" lon="6.03623">
        <ele>2286.4509277344</ele>
        <time>2017-03-24T09:30:21Z</time>
      </trkpt>
      <trkpt lat="45.23175" lon="6.03624">
        <ele>2287.4509277344</ele>
        <time>2017-03-24T09:30:24Z</time>
      </trkpt>
      <trkpt lat="45.23182" lon="6.03626">
        <ele>2286.4509277344</ele>
        <time>2017-03-24T09:30:28Z</time>
      </trkpt>
      <trkpt lat="45.23185" lon="6.03631">
        <ele>2288.4509277344</ele>
        <time>2017-03-24T09:30:33Z</time>
      </trkpt>
      <trkpt lat="45.23187" lon="6.03638">
        <ele>2288.4509277344</ele>
        <time>2017-03-24T09:30:36Z</time>
      </trkpt>
      <trkpt lat="45.23189" lon="6.03646">
        <ele>2287.4509277344</ele>
        <time>2017-03-24T09:30:39Z</time>
      </trkpt>
      <trkpt lat="45.23191" lon="6.03655">
        <ele>2285.4509277344</ele>
        <time>2017-03-24T09:30:42Z</time>
      </trkpt>
      <trkpt lat="45.23193" lon="6.0366">
        <ele>2282.4509277344</ele>
        <time>2017-03-24T09:30:44Z</time>
      </trkpt>
      <trkpt lat="45.23196" lon="6.03667">
        <ele>2282.4509277344</ele>
        <time>2017-03-24T09:30:46Z</time>
      </trkpt>
      <trkpt lat="45.23199" lon="6.03672">
        <ele>2281.4509277344</ele>
        <time>2017-03-24T09:30:49Z</time>
      </trkpt>
      <trkpt lat="45.23199" lon="6.03665">
        <ele>2281.4509277344</ele>
        <time>2017-03-24T09:38:02Z</time>
      </trkpt>
      <trkpt lat="45.23194" lon="6.03663">
        <ele>2280.4509277344</ele>
        <time>2017-03-24T09:38:16Z</time>
      </trkpt>
      <trkpt lat="45.23192" lon="6.03656">
        <ele>2281.4509277344</ele>
        <time>2017-03-24T09:38:21Z</time>
      </trkpt>
      <trkpt lat="45.23189" lon="6.03651">
        <ele>2282.4509277344</ele>
        <time>2017-03-24T09:38:27Z</time>
      </trkpt>
      <trkpt lat="45.23186" lon="6.03645">
        <ele>2281.4509277344</ele>
        <time>2017-03-24T09:38:32Z</time>
      </trkpt>
      <trkpt lat="45.23184" lon="6.03639">
        <ele>2281.4509277344</ele>
        <time>2017-03-24T09:38:37Z</time>
      </trkpt>
      <trkpt lat="45.23181" lon="6.03634">
        <ele>2279.4509277344</ele>
        <time>2017-03-24T09:38:42Z</time>
      </trkpt>
      <trkpt lat="45.23176" lon="6.0363">
        <ele>2278.4509277344</ele>
        <time>2017-03-24T09:38:45Z</time>
      </trkpt>
      <trkpt lat="45.23173" lon="6.03625">
        <ele>2278.4509277344</ele>
        <time>2017-03-24T09:38:51Z</time>
      </trkpt>
      <trkpt lat="45.23168" lon="6.03627">
        <ele>2287.4509277344</ele>
        <time>2017-03-24T09:39:04Z</time>
      </trkpt>
      <trkpt lat="45.23163" lon="6.03628">
        <ele>2287.4509277344</ele>
        <time>2017-03-24T09:39:07Z</time>
      </trkpt>
      <trkpt lat="45.23159" lon="6.03624">
        <ele>2286.4509277344</ele>
        <time>2017-03-24T09:39:10Z</time>
      </trkpt>
      <trkpt lat="45.23154" lon="6.03619">
        <ele>2287.4509277344</ele>
        <time>2017-03-24T09:39:14Z</time>
      </trkpt>
      <trkpt lat="45.23151" lon="6.03614">
        <ele>2287.4509277344</ele>
        <time>2017-03-24T09:39:17Z</time>
      </trkpt>
      <trkpt lat="45.23156" lon="6.03616">
        <ele>2300.4509277344</ele>
        <time>2017-03-24T09:43:13Z</time>
      </trkpt>
      <trkpt lat="45.23152" lon="6.03609">
        <ele>2292.4509277344</ele>
        <time>2017-03-24T09:44:50Z</time>
      </trkpt>
      <trkpt lat="45.23147" lon="6.03602">
        <ele>2289.4509277344</ele>
        <time>2017-03-24T09:44:52Z</time>
      </trkpt>
      <trkpt lat="45.23143" lon="6.03592">
        <ele>2291.4509277344</ele>
        <time>2017-03-24T09:44:53Z</time>
      </trkpt>
      <trkpt lat="45.23142" lon="6.03579">
        <ele>2290.4509277344</ele>
        <time>2017-03-24T09:44:55Z</time>
      </trkpt>
      <trkpt lat="45.2314" lon="6.03571">
        <ele>2291.4509277344</ele>
        <time>2017-03-24T09:44:58Z</time>
      </trkpt>
      <trkpt lat="45.23137" lon="6.03565">
        <ele>2292.4509277344</ele>
        <time>2017-03-24T09:45:00Z</time>
      </trkpt>
      <trkpt lat="45.23132" lon="6.03565">
        <ele>2292.4509277344</ele>
        <time>2017-03-24T09:45:04Z</time>
      </trkpt>
      <trkpt lat="45.23125" lon="6.03565">
        <ele>2290.4509277344</ele>
        <time>2017-03-24T09:45:07Z</time>
      </trkpt>
      <trkpt lat="45.23122" lon="6.0356">
        <ele>2287.4509277344</ele>
        <time>2017-03-24T09:45:09Z</time>
      </trkpt>
      <trkpt lat="45.23117" lon="6.03548">
        <ele>2284.4509277344</ele>
        <time>2017-03-24T09:45:11Z</time>
      </trkpt>
      <trkpt lat="45.2311" lon="6.03535">
        <ele>2281.4509277344</ele>
        <time>2017-03-24T09:45:13Z</time>
      </trkpt>
      <trkpt lat="45.23103" lon="6.03532">
        <ele>2279.4509277344</ele>
        <time>2017-03-24T09:45:15Z</time>
      </trkpt>
      <trkpt lat="45.23096" lon="6.03536">
        <ele>2278.4509277344</ele>
        <time>2017-03-24T09:45:17Z</time>
      </trkpt>
      <trkpt lat="45.23091" lon="6.03529">
        <ele>2276.4509277344</ele>
        <time>2017-03-24T09:45:20Z</time>
      </trkpt>
      <trkpt lat="45.2308" lon="6.03533">
        <ele>2273.4509277344</ele>
        <time>2017-03-24T09:45:24Z</time>
      </trkpt>
      <trkpt lat="45.23075" lon="6.03536">
        <ele>2271.4509277344</ele>
        <time>2017-03-24T09:45:27Z</time>
      </trkpt>
      <trkpt lat="45.23069" lon="6.0354">
        <ele>2272.4509277344</ele>
        <time>2017-03-24T09:45:29Z</time>
      </trkpt>
      <trkpt lat="45.23064" lon="6.03543">
        <ele>2271.4509277344</ele>
        <time>2017-03-24T09:45:31Z</time>
      </trkpt>
      <trkpt lat="45.23058" lon="6.03545">
        <ele>2271.4509277344</ele>
        <time>2017-03-24T09:45:33Z</time>
      </trkpt>
      <trkpt lat="45.23046" lon="6.03553">
        <ele>2271.4509277344</ele>
        <time>2017-03-24T09:45:35Z</time>
      </trkpt>
      <trkpt lat="45.23038" lon="6.03567">
        <ele>2270.4509277344</ele>
        <time>2017-03-24T09:45:36Z</time>
      </trkpt>
      <trkpt lat="45.23032" lon="6.03578">
        <ele>2270.4509277344</ele>
        <time>2017-03-24T09:45:37Z</time>
      </trkpt>
      <trkpt lat="45.23024" lon="6.03584">
        <ele>2270.4509277344</ele>
        <time>2017-03-24T09:45:38Z</time>
      </trkpt>
      <trkpt lat="45.23016" lon="6.03585">
        <ele>2269.4509277344</ele>
        <time>2017-03-24T09:45:39Z</time>
      </trkpt>
      <trkpt lat="45.23005" lon="6.03587">
        <ele>2266.4509277344</ele>
        <time>2017-03-24T09:45:41Z</time>
      </trkpt>
      <trkpt lat="45.22994" lon="6.0358">
        <ele>2263.4509277344</ele>
        <time>2017-03-24T09:45:43Z</time>
      </trkpt>
      <trkpt lat="45.22987" lon="6.03567">
        <ele>2255.4509277344</ele>
        <time>2017-03-24T09:45:45Z</time>
      </trkpt>
      <trkpt lat="45.22987" lon="6.03549">
        <ele>2249.4509277344</ele>
        <time>2017-03-24T09:45:47Z</time>
      </trkpt>
      <trkpt lat="45.2299" lon="6.03534">
        <ele>2247.4509277344</ele>
        <time>2017-03-24T09:45:48Z</time>
      </trkpt>
      <trkpt lat="45.22989" lon="6.03523">
        <ele>2245.4509277344</ele>
        <time>2017-03-24T09:45:49Z</time>
      </trkpt>
      <trkpt lat="45.22994" lon="6.03501">
        <ele>2243.4509277344</ele>
        <time>2017-03-24T09:45:51Z</time>
      </trkpt>
      <trkpt lat="45.22996" lon="6.03476">
        <ele>2238.4509277344</ele>
        <time>2017-03-24T09:45:54Z</time>
      </trkpt>
      <trkpt lat="45.22998" lon="6.03459">
        <ele>2237.4509277344</ele>
        <time>2017-03-24T09:45:56Z</time>
      </trkpt>
      <trkpt lat="45.22993" lon="6.0346">
        <ele>2228.4509277344</ele>
        <time>2017-03-24T09:46:03Z</time>
      </trkpt>
      <trkpt lat="45.22989" lon="6.0346">
        <ele>2211.4509277344</ele>
        <time>2017-03-24T09:46:33Z</time>
      </trkpt>
      <trkpt lat="45.22985" lon="6.03455">
        <ele>2208.4509277344</ele>
        <time>2017-03-24T09:46:49Z</time>
      </trkpt>
      <trkpt lat="45.22982" lon="6.03447">
        <ele>2205.4509277344</ele>
        <time>2017-03-24T09:46:50Z</time>
      </trkpt>
      <trkpt lat="45.22978" lon="6.03443">
        <ele>2207.4509277344</ele>
        <time>2017-03-24T09:46:52Z</time>
      </trkpt>
      <trkpt lat="45.22967" lon="6.03438">
        <ele>2203.4509277344</ele>
        <time>2017-03-24T09:46:55Z</time>
      </trkpt>
      <trkpt lat="45.22961" lon="6.03436">
        <ele>2200.4509277344</ele>
        <time>2017-03-24T09:46:56Z</time>
      </trkpt>
      <trkpt lat="45.22951" lon="6.03432">
        <ele>2200.4509277344</ele>
        <time>2017-03-24T09:46:58Z</time>
      </trkpt>
      <trkpt lat="45.22944" lon="6.0343">
        <ele>2198.4509277344</ele>
        <time>2017-03-24T09:46:59Z</time>
      </trkpt>
      <trkpt lat="45.22933" lon="6.03425">
        <ele>2196.4509277344</ele>
        <time>2017-03-24T09:47:01Z</time>
      </trkpt>
      <trkpt lat="45.22923" lon="6.03421">
        <ele>2196.4509277344</ele>
        <time>2017-03-24T09:47:04Z</time>
      </trkpt>
      <trkpt lat="45.22917" lon="6.03419">
        <ele>2195.4509277344</ele>
        <time>2017-03-24T09:47:07Z</time>
      </trkpt>
      <trkpt lat="45.22911" lon="6.03416">
        <ele>2195.4509277344</ele>
        <time>2017-03-24T09:47:09Z</time>
      </trkpt>
      <trkpt lat="45.22906" lon="6.03412">
        <ele>2195.4509277344</ele>
        <time>2017-03-24T09:47:11Z</time>
      </trkpt>
      <trkpt lat="45.229" lon="6.03409">
        <ele>2192.4509277344</ele>
        <time>2017-03-24T09:47:13Z</time>
      </trkpt>
      <trkpt lat="45.22893" lon="6.03407">
        <ele>2191.4509277344</ele>
        <time>2017-03-24T09:47:15Z</time>
      </trkpt>
      <trkpt lat="45.22882" lon="6.03404">
        <ele>2189.4499511719</ele>
        <time>2017-03-24T09:47:17Z</time>
      </trkpt>
      <trkpt lat="45.2287" lon="6.03403">
        <ele>2188.4499511719</ele>
        <time>2017-03-24T09:47:20Z</time>
      </trkpt>
      <trkpt lat="45.22864" lon="6.03404">
        <ele>2189.4499511719</ele>
        <time>2017-03-24T09:47:22Z</time>
      </trkpt>
      <trkpt lat="45.22858" lon="6.03406">
        <ele>2188.4499511719</ele>
        <time>2017-03-24T09:47:24Z</time>
      </trkpt>
      <trkpt lat="45.22854" lon="6.03405">
        <ele>2186.4499511719</ele>
        <time>2017-03-24T09:47:52Z</time>
      </trkpt>
      <trkpt lat="45.22847" lon="6.03402">
        <ele>2185.4499511719</ele>
        <time>2017-03-24T09:47:55Z</time>
      </trkpt>
      <trkpt lat="45.22846" lon="6.03409">
        <ele>2177.4499511719</ele>
        <time>2017-03-24T09:48:00Z</time>
      </trkpt>
      <trkpt lat="45.22847" lon="6.03401">
        <ele>2172.4499511719</ele>
        <time>2017-03-24T09:48:08Z</time>
      </trkpt>
      <trkpt lat="45.22849" lon="6.03393">
        <ele>2170.4499511719</ele>
        <time>2017-03-24T09:48:10Z</time>
      </trkpt>
      <trkpt lat="45.22846" lon="6.03377">
        <ele>2168.4499511719</ele>
        <time>2017-03-24T09:48:12Z</time>
      </trkpt>
      <trkpt lat="45.2284" lon="6.03355">
        <ele>2166.4499511719</ele>
        <time>2017-03-24T09:48:14Z</time>
      </trkpt>
      <trkpt lat="45.22826" lon="6.03337">
        <ele>2166.4499511719</ele>
        <time>2017-03-24T09:48:16Z</time>
      </trkpt>
      <trkpt lat="45.22812" lon="6.03342">
        <ele>2164.4499511719</ele>
        <time>2017-03-24T09:48:18Z</time>
      </trkpt>
      <trkpt lat="45.22798" lon="6.03344">
        <ele>2162.4499511719</ele>
        <time>2017-03-24T09:48:20Z</time>
      </trkpt>
      <trkpt lat="45.22794" lon="6.03346">
        <ele>2161.4499511719</ele>
        <time>2017-03-24T09:48:21Z</time>
      </trkpt>
      <trkpt lat="45.22788" lon="6.03347">
        <ele>2157.4499511719</ele>
        <time>2017-03-24T09:48:23Z</time>
      </trkpt>
      <trkpt lat="45.22783" lon="6.03348">
        <ele>2153.4499511719</ele>
        <time>2017-03-24T09:48:27Z</time>
      </trkpt>
      <trkpt lat="45.22775" lon="6.03349">
        <ele>2152.4499511719</ele>
        <time>2017-03-24T09:48:29Z</time>
      </trkpt>
      <trkpt lat="45.22773" lon="6.03342">
        <ele>2146.4499511719</ele>
        <time>2017-03-24T09:48:38Z</time>
      </trkpt>
      <trkpt lat="45.22773" lon="6.03322">
        <ele>2143.4499511719</ele>
        <time>2017-03-24T09:48:40Z</time>
      </trkpt>
      <trkpt lat="45.2277" lon="6.03306">
        <ele>2142.4499511719</ele>
        <time>2017-03-24T09:48:41Z</time>
      </trkpt>
      <trkpt lat="45.22764" lon="6.03285">
        <ele>2137.4499511719</ele>
        <time>2017-03-24T09:48:43Z</time>
      </trkpt>
      <trkpt lat="45.2274" lon="6.03282">
        <ele>2135.4499511719</ele>
        <time>2017-03-24T09:48:45Z</time>
      </trkpt>
      <trkpt lat="45.22731" lon="6.03278">
        <ele>2135.4499511719</ele>
        <time>2017-03-24T09:48:46Z</time>
      </trkpt>
      <trkpt lat="45.22727" lon="6.03274">
        <ele>2135.4499511719</ele>
        <time>2017-03-24T09:48:47Z</time>
      </trkpt>
      <trkpt lat="45.22717" lon="6.03254">
        <ele>2132.4499511719</ele>
        <time>2017-03-24T09:48:49Z</time>
      </trkpt>
      <trkpt lat="45.22709" lon="6.03246">
        <ele>2128.4499511719</ele>
        <time>2017-03-24T09:48:50Z</time>
      </trkpt>
      <trkpt lat="45.22705" lon="6.03238">
        <ele>2126.4499511719</ele>
        <time>2017-03-24T09:48:51Z</time>
      </trkpt>
      <trkpt lat="45.22699" lon="6.03215">
        <ele>2120.4499511719</ele>
        <time>2017-03-24T09:48:53Z</time>
      </trkpt>
      <trkpt lat="45.22695" lon="6.03179">
        <ele>2113.4499511719</ele>
        <time>2017-03-24T09:48:55Z</time>
      </trkpt>
      <trkpt lat="45.22682" lon="6.03156">
        <ele>2104.4499511719</ele>
        <time>2017-03-24T09:48:58Z</time>
      </trkpt>
      <trkpt lat="45.22675" lon="6.03142">
        <ele>2099.4499511719</ele>
        <time>2017-03-24T09:49:01Z</time>
      </trkpt>
      <trkpt lat="45.22679" lon="6.03145">
        <ele>2098.4499511719</ele>
        <time>2017-03-24T09:49:06Z</time>
      </trkpt>
      <trkpt lat="45.22684" lon="6.03144">
        <ele>2101.4499511719</ele>
        <time>2017-03-24T09:49:08Z</time>
      </trkpt>
      <trkpt lat="45.22688" lon="6.03142">
        <ele>2105.4499511719</ele>
        <time>2017-03-24T09:49:10Z</time>
      </trkpt>
      <trkpt lat="45.22684" lon="6.03147">
        <ele>2086.4499511719</ele>
        <time>2017-03-24T09:49:42Z</time>
      </trkpt>
      <trkpt lat="45.22674" lon="6.03145">
        <ele>2077.4499511719</ele>
        <time>2017-03-24T09:49:54Z</time>
      </trkpt>
      <trkpt lat="45.22666" lon="6.03145">
        <ele>2074.4499511719</ele>
        <time>2017-03-24T09:49:57Z</time>
      </trkpt>
      <trkpt lat="45.22661" lon="6.03149">
        <ele>2071.4499511719</ele>
        <time>2017-03-24T09:50:01Z</time>
      </trkpt>
      <trkpt lat="45.22656" lon="6.0315">
        <ele>2070.4499511719</ele>
        <time>2017-03-24T09:50:03Z</time>
      </trkpt>
      <trkpt lat="45.22651" lon="6.03153">
        <ele>2067.4499511719</ele>
        <time>2017-03-24T09:50:06Z</time>
      </trkpt>
      <trkpt lat="45.22646" lon="6.03156">
        <ele>2065.4499511719</ele>
        <time>2017-03-24T09:50:09Z</time>
      </trkpt>
      <trkpt lat="45.2264" lon="6.03159">
        <ele>2063.4499511719</ele>
        <time>2017-03-24T09:50:11Z</time>
      </trkpt>
      <trkpt lat="45.22633" lon="6.03153">
        <ele>2058.4499511719</ele>
        <time>2017-03-24T09:50:14Z</time>
      </trkpt>
      <trkpt lat="45.2263" lon="6.03145">
        <ele>2054.4499511719</ele>
        <time>2017-03-24T09:50:16Z</time>
      </trkpt>
      <trkpt lat="45.22616" lon="6.03138">
        <ele>2054.4499511719</ele>
        <time>2017-03-24T09:50:18Z</time>
      </trkpt>
      <trkpt lat="45.22611" lon="6.03124">
        <ele>2051.4499511719</ele>
        <time>2017-03-24T09:50:20Z</time>
      </trkpt>
      <trkpt lat="45.22603" lon="6.03123">
        <ele>2048.4499511719</ele>
        <time>2017-03-24T09:50:22Z</time>
      </trkpt>
      <trkpt lat="45.22596" lon="6.03123">
        <ele>2047.4499511719</ele>
        <time>2017-03-24T09:50:23Z</time>
      </trkpt>
      <trkpt lat="45.22588" lon="6.03117">
        <ele>2045.4499511719</ele>
        <time>2017-03-24T09:50:25Z</time>
      </trkpt>
      <trkpt lat="45.22584" lon="6.03113">
        <ele>2045.4489746094</ele>
        <time>2017-03-24T09:50:26Z</time>
      </trkpt>
      <trkpt lat="45.22574" lon="6.03109">
        <ele>2045.4489746094</ele>
        <time>2017-03-24T09:50:28Z</time>
      </trkpt>
      <trkpt lat="45.22566" lon="6.03106">
        <ele>2042.4489746094</ele>
        <time>2017-03-24T09:50:30Z</time>
      </trkpt>
      <trkpt lat="45.22558" lon="6.03102">
        <ele>2040.4489746094</ele>
        <time>2017-03-24T09:50:32Z</time>
      </trkpt>
      <trkpt lat="45.22548" lon="6.03096">
        <ele>2037.4489746094</ele>
        <time>2017-03-24T09:50:34Z</time>
      </trkpt>
      <trkpt lat="45.22542" lon="6.03091">
        <ele>2035.4489746094</ele>
        <time>2017-03-24T09:50:36Z</time>
      </trkpt>
      <trkpt lat="45.22536" lon="6.03083">
        <ele>2033.4489746094</ele>
        <time>2017-03-24T09:50:38Z</time>
      </trkpt>
      <trkpt lat="45.22528" lon="6.03076">
        <ele>2028.4489746094</ele>
        <time>2017-03-24T09:50:41Z</time>
      </trkpt>
      <trkpt lat="45.22525" lon="6.03072">
        <ele>2024.4489746094</ele>
        <time>2017-03-24T09:50:42Z</time>
      </trkpt>
      <trkpt lat="45.22527" lon="6.03064">
        <ele>2028.4489746094</ele>
        <time>2017-03-24T09:50:46Z</time>
      </trkpt>
      <trkpt lat="45.22522" lon="6.03059">
        <ele>2027.4489746094</ele>
        <time>2017-03-24T09:50:48Z</time>
      </trkpt>
      <trkpt lat="45.22518" lon="6.03056">
        <ele>2029.4489746094</ele>
        <time>2017-03-24T09:50:53Z</time>
      </trkpt>
      <trkpt lat="45.22512" lon="6.03054">
        <ele>2027.4489746094</ele>
        <time>2017-03-24T09:50:59Z</time>
      </trkpt>
      <trkpt lat="45.22508" lon="6.03051">
        <ele>2026.4489746094</ele>
        <time>2017-03-24T09:51:02Z</time>
      </trkpt>
      <trkpt lat="45.22501" lon="6.03049">
        <ele>2024.4489746094</ele>
        <time>2017-03-24T09:51:04Z</time>
      </trkpt>
      <trkpt lat="45.22497" lon="6.0305">
        <ele>2022.4489746094</ele>
        <time>2017-03-24T09:51:09Z</time>
      </trkpt>
      <trkpt lat="45.225" lon="6.03056">
        <ele>2025.4489746094</ele>
        <time>2017-03-24T09:52:22Z</time>
      </trkpt>
      <trkpt lat="45.225" lon="6.03063">
        <ele>2023.4489746094</ele>
        <time>2017-03-24T09:54:38Z</time>
      </trkpt>
      <trkpt lat="45.225" lon="6.03071">
        <ele>2021.4489746094</ele>
        <time>2017-03-24T09:54:44Z</time>
      </trkpt>
      <trkpt lat="45.225" lon="6.03077">
        <ele>2022.4489746094</ele>
        <time>2017-03-24T09:55:00Z</time>
      </trkpt>
      <trkpt lat="45.22498" lon="6.03082">
        <ele>2022.4489746094</ele>
        <time>2017-03-24T09:55:06Z</time>
      </trkpt>
      <trkpt lat="45.22499" lon="6.03089">
        <ele>2026.4489746094</ele>
        <time>2017-03-24T09:55:26Z</time>
      </trkpt>
      <trkpt lat="45.22498" lon="6.03095">
        <ele>2026.4489746094</ele>
        <time>2017-03-24T09:55:43Z</time>
      </trkpt>
      <trkpt lat="45.22494" lon="6.03099">
        <ele>2029.4489746094</ele>
        <time>2017-03-24T09:56:01Z</time>
      </trkpt>
      <trkpt lat="45.2249" lon="6.03102">
        <ele>2037.4489746094</ele>
        <time>2017-03-24T09:56:33Z</time>
      </trkpt>
      <trkpt lat="45.22487" lon="6.03109">
        <ele>2041.4489746094</ele>
        <time>2017-03-24T09:56:48Z</time>
      </trkpt>
      <trkpt lat="45.22485" lon="6.03115">
        <ele>2045.4489746094</ele>
        <time>2017-03-24T09:57:05Z</time>
      </trkpt>
      <trkpt lat="45.22483" lon="6.03121">
        <ele>2046.4489746094</ele>
        <time>2017-03-24T09:57:22Z</time>
      </trkpt>
      <trkpt lat="45.22482" lon="6.03128">
        <ele>2051.4489746094</ele>
        <time>2017-03-24T09:57:43Z</time>
      </trkpt>
      <trkpt lat="45.22482" lon="6.03134">
        <ele>2050.4489746094</ele>
        <time>2017-03-24T09:58:02Z</time>
      </trkpt>
      <trkpt lat="45.22482" lon="6.0314">
        <ele>2054.4489746094</ele>
        <time>2017-03-24T09:58:21Z</time>
      </trkpt>
      <trkpt lat="45.2248" lon="6.03147">
        <ele>2058.4489746094</ele>
        <time>2017-03-24T09:58:33Z</time>
      </trkpt>
      <trkpt lat="45.22478" lon="6.03154">
        <ele>2066.4489746094</ele>
        <time>2017-03-24T09:58:46Z</time>
      </trkpt>
      <trkpt lat="45.22475" lon="6.0316">
        <ele>2073.4489746094</ele>
        <time>2017-03-24T09:59:00Z</time>
      </trkpt>
      <trkpt lat="45.22471" lon="6.03164">
        <ele>2075.4489746094</ele>
        <time>2017-03-24T09:59:07Z</time>
      </trkpt>
      <trkpt lat="45.22474" lon="6.0317">
        <ele>2082.4489746094</ele>
        <time>2017-03-24T09:59:26Z</time>
      </trkpt>
      <trkpt lat="45.22477" lon="6.03176">
        <ele>2087.4489746094</ele>
        <time>2017-03-24T10:00:03Z</time>
      </trkpt>
      <trkpt lat="45.22476" lon="6.03183">
        <ele>2086.4489746094</ele>
        <time>2017-03-24T10:00:14Z</time>
      </trkpt>
      <trkpt lat="45.22474" lon="6.03189">
        <ele>2086.4489746094</ele>
        <time>2017-03-24T10:01:15Z</time>
      </trkpt>
      <trkpt lat="45.22474" lon="6.03196">
        <ele>2086.4489746094</ele>
        <time>2017-03-24T10:01:33Z</time>
      </trkpt>
      <trkpt lat="45.22476" lon="6.03202">
        <ele>2087.4489746094</ele>
        <time>2017-03-24T10:02:08Z</time>
      </trkpt>
      <trkpt lat="45.22474" lon="6.03208">
        <ele>2088.4489746094</ele>
        <time>2017-03-24T10:02:13Z</time>
      </trkpt>
      <trkpt lat="45.22474" lon="6.03215">
        <ele>2092.4489746094</ele>
        <time>2017-03-24T10:02:29Z</time>
      </trkpt>
      <trkpt lat="45.22473" lon="6.03221">
        <ele>2090.4489746094</ele>
        <time>2017-03-24T10:02:41Z</time>
      </trkpt>
      <trkpt lat="45.22474" lon="6.03227">
        <ele>2094.4489746094</ele>
        <time>2017-03-24T10:03:00Z</time>
      </trkpt>
      <trkpt lat="45.22478" lon="6.03234">
        <ele>2095.4489746094</ele>
        <time>2017-03-24T10:05:56Z</time>
      </trkpt>
      <trkpt lat="45.22477" lon="6.0324">
        <ele>2096.4489746094</ele>
        <time>2017-03-24T10:06:08Z</time>
      </trkpt>
      <trkpt lat="45.22473" lon="6.03244">
        <ele>2094.4489746094</ele>
        <time>2017-03-24T10:06:12Z</time>
      </trkpt>
      <trkpt lat="45.22476" lon="6.03249">
        <ele>2100.4489746094</ele>
        <time>2017-03-24T10:06:26Z</time>
      </trkpt>
      <trkpt lat="45.2248" lon="6.03253">
        <ele>2110.4489746094</ele>
        <time>2017-03-24T10:06:53Z</time>
      </trkpt>
      <trkpt lat="45.22483" lon="6.03258">
        <ele>2115.4489746094</ele>
        <time>2017-03-24T10:07:06Z</time>
      </trkpt>
      <trkpt lat="45.22487" lon="6.03263">
        <ele>2119.4499511719</ele>
        <time>2017-03-24T10:07:19Z</time>
      </trkpt>
      <trkpt lat="45.22486" lon="6.0327">
        <ele>2124.4499511719</ele>
        <time>2017-03-24T10:07:45Z</time>
      </trkpt>
      <trkpt lat="45.22483" lon="6.03276">
        <ele>2132.4499511719</ele>
        <time>2017-03-24T10:08:08Z</time>
      </trkpt>
      <trkpt lat="45.22483" lon="6.03282">
        <ele>2135.4499511719</ele>
        <time>2017-03-24T10:08:22Z</time>
      </trkpt>
      <trkpt lat="45.22481" lon="6.03288">
        <ele>2141.4499511719</ele>
        <time>2017-03-24T10:08:45Z</time>
      </trkpt>
      <trkpt lat="45.2248" lon="6.03295">
        <ele>2147.4499511719</ele>
        <time>2017-03-24T10:09:10Z</time>
      </trkpt>
      <trkpt lat="45.22481" lon="6.03302">
        <ele>2156.4499511719</ele>
        <time>2017-03-24T10:09:29Z</time>
      </trkpt>
      <trkpt lat="45.22485" lon="6.03304">
        <ele>2157.4499511719</ele>
        <time>2017-03-24T10:09:34Z</time>
      </trkpt>
      <trkpt lat="45.22481" lon="6.03309">
        <ele>2154.4499511719</ele>
        <time>2017-03-24T10:09:58Z</time>
      </trkpt>
      <trkpt lat="45.22484" lon="6.03314">
        <ele>2165.4499511719</ele>
        <time>2017-03-24T10:10:13Z</time>
      </trkpt>
      <trkpt lat="45.22484" lon="6.03322">
        <ele>2165.4499511719</ele>
        <time>2017-03-24T10:11:10Z</time>
      </trkpt>
      <trkpt lat="45.22484" lon="6.03329">
        <ele>2166.4499511719</ele>
        <time>2017-03-24T10:11:24Z</time>
      </trkpt>
      <trkpt lat="45.22481" lon="6.03334">
        <ele>2169.4499511719</ele>
        <time>2017-03-24T10:11:39Z</time>
      </trkpt>
      <trkpt lat="45.22482" lon="6.0334">
        <ele>2172.4499511719</ele>
        <time>2017-03-24T10:11:55Z</time>
      </trkpt>
      <trkpt lat="45.22485" lon="6.03345">
        <ele>2179.4499511719</ele>
        <time>2017-03-24T10:12:15Z</time>
      </trkpt>
      <trkpt lat="45.22487" lon="6.03351">
        <ele>2184.4499511719</ele>
        <time>2017-03-24T10:12:43Z</time>
      </trkpt>
      <trkpt lat="45.22486" lon="6.03357">
        <ele>2187.4499511719</ele>
        <time>2017-03-24T10:12:59Z</time>
      </trkpt>
      <trkpt lat="45.22488" lon="6.03363">
        <ele>2191.4499511719</ele>
        <time>2017-03-24T10:13:26Z</time>
      </trkpt>
      <trkpt lat="45.22493" lon="6.03366">
        <ele>2197.4499511719</ele>
        <time>2017-03-24T10:13:59Z</time>
      </trkpt>
      <trkpt lat="45.22488" lon="6.03368">
        <ele>2195.4499511719</ele>
        <time>2017-03-24T10:19:57Z</time>
      </trkpt>
      <trkpt lat="45.22486" lon="6.03359">
        <ele>2195.4499511719</ele>
        <time>2017-03-24T10:20:02Z</time>
      </trkpt>
      <trkpt lat="45.22486" lon="6.0335">
        <ele>2191.4499511719</ele>
        <time>2017-03-24T10:20:04Z</time>
      </trkpt>
      <trkpt lat="45.22487" lon="6.03344">
        <ele>2193.4499511719</ele>
        <time>2017-03-24T10:20:06Z</time>
      </trkpt>
      <trkpt lat="45.2248" lon="6.03344">
        <ele>2185.4499511719</ele>
        <time>2017-03-24T10:20:18Z</time>
      </trkpt>
      <trkpt lat="45.2248" lon="6.03337">
        <ele>2175.4499511719</ele>
        <time>2017-03-24T10:20:21Z</time>
      </trkpt>
      <trkpt lat="45.22474" lon="6.03326">
        <ele>2173.4499511719</ele>
        <time>2017-03-24T10:20:27Z</time>
      </trkpt>
      <trkpt lat="45.22474" lon="6.03315">
        <ele>2174.4499511719</ele>
        <time>2017-03-24T10:20:31Z</time>
      </trkpt>
      <trkpt lat="45.22475" lon="6.03305">
        <ele>2171.4499511719</ele>
        <time>2017-03-24T10:20:34Z</time>
      </trkpt>
      <trkpt lat="45.2248" lon="6.03302">
        <ele>2170.4499511719</ele>
        <time>2017-03-24T10:20:37Z</time>
      </trkpt>
      <trkpt lat="45.22481" lon="6.03295">
        <ele>2164.4499511719</ele>
        <time>2017-03-24T10:21:25Z</time>
      </trkpt>
      <trkpt lat="45.22485" lon="6.03289">
        <ele>2163.4499511719</ele>
        <time>2017-03-24T10:21:28Z</time>
      </trkpt>
      <trkpt lat="45.22486" lon="6.03279">
        <ele>2162.4499511719</ele>
        <time>2017-03-24T10:21:30Z</time>
      </trkpt>
      <trkpt lat="45.22488" lon="6.03273">
        <ele>2159.4499511719</ele>
        <time>2017-03-24T10:21:32Z</time>
      </trkpt>
      <trkpt lat="45.22487" lon="6.03266">
        <ele>2160.4499511719</ele>
        <time>2017-03-24T10:21:34Z</time>
      </trkpt>
      <trkpt lat="45.22486" lon="6.03259">
        <ele>2157.4489746094</ele>
        <time>2017-03-24T10:21:36Z</time>
      </trkpt>
      <trkpt lat="45.22489" lon="6.03252">
        <ele>2154.4489746094</ele>
        <time>2017-03-24T10:21:38Z</time>
      </trkpt>
      <trkpt lat="45.22487" lon="6.03234">
        <ele>2151.4489746094</ele>
        <time>2017-03-24T10:21:39Z</time>
      </trkpt>
      <trkpt lat="45.22494" lon="6.03226">
        <ele>2143.4489746094</ele>
        <time>2017-03-24T10:21:41Z</time>
      </trkpt>
      <trkpt lat="45.22488" lon="6.03224">
        <ele>2136.4489746094</ele>
        <time>2017-03-24T10:21:43Z</time>
      </trkpt>
      <trkpt lat="45.22484" lon="6.03212">
        <ele>2133.4489746094</ele>
        <time>2017-03-24T10:21:45Z</time>
      </trkpt>
      <trkpt lat="45.22486" lon="6.03195">
        <ele>2127.4489746094</ele>
        <time>2017-03-24T10:21:48Z</time>
      </trkpt>
      <trkpt lat="45.22482" lon="6.03191">
        <ele>2126.4489746094</ele>
        <time>2017-03-24T10:21:54Z</time>
      </trkpt>
      <trkpt lat="45.22477" lon="6.0319">
        <ele>2117.4489746094</ele>
        <time>2017-03-24T10:22:53Z</time>
      </trkpt>
      <trkpt lat="45.22481" lon="6.03184">
        <ele>2112.4489746094</ele>
        <time>2017-03-24T10:22:55Z</time>
      </trkpt>
      <trkpt lat="45.22483" lon="6.03175">
        <ele>2110.4489746094</ele>
        <time>2017-03-24T10:22:57Z</time>
      </trkpt>
      <trkpt lat="45.22472" lon="6.03162">
        <ele>2106.4489746094</ele>
        <time>2017-03-24T10:23:00Z</time>
      </trkpt>
      <trkpt lat="45.22465" lon="6.03159">
        <ele>2106.4489746094</ele>
        <time>2017-03-24T10:23:01Z</time>
      </trkpt>
      <trkpt lat="45.22459" lon="6.03152">
        <ele>2102.4489746094</ele>
        <time>2017-03-24T10:23:02Z</time>
      </trkpt>
      <trkpt lat="45.22454" lon="6.03145">
        <ele>2099.4489746094</ele>
        <time>2017-03-24T10:23:04Z</time>
      </trkpt>
      <trkpt lat="45.22465" lon="6.03125">
        <ele>2096.4489746094</ele>
        <time>2017-03-24T10:23:06Z</time>
      </trkpt>
      <trkpt lat="45.22461" lon="6.03114">
        <ele>2091.4489746094</ele>
        <time>2017-03-24T10:23:07Z</time>
      </trkpt>
      <trkpt lat="45.22459" lon="6.03104">
        <ele>2087.4489746094</ele>
        <time>2017-03-24T10:23:08Z</time>
      </trkpt>
      <trkpt lat="45.22449" lon="6.03093">
        <ele>2083.4489746094</ele>
        <time>2017-03-24T10:23:09Z</time>
      </trkpt>
      <trkpt lat="45.22435" lon="6.03078">
        <ele>2081.4489746094</ele>
        <time>2017-03-24T10:23:11Z</time>
      </trkpt>
      <trkpt lat="45.22428" lon="6.03063">
        <ele>2080.4489746094</ele>
        <time>2017-03-24T10:23:13Z</time>
      </trkpt>
      <trkpt lat="45.22424" lon="6.03059">
        <ele>2077.4489746094</ele>
        <time>2017-03-24T10:23:14Z</time>
      </trkpt>
      <trkpt lat="45.2242" lon="6.03052">
        <ele>2070.4489746094</ele>
        <time>2017-03-24T10:23:15Z</time>
      </trkpt>
      <trkpt lat="45.22415" lon="6.03033">
        <ele>2060.4489746094</ele>
        <time>2017-03-24T10:23:18Z</time>
      </trkpt>
      <trkpt lat="45.22422" lon="6.03003">
        <ele>2053.4489746094</ele>
        <time>2017-03-24T10:23:21Z</time>
      </trkpt>
      <trkpt lat="45.22421" lon="6.02984">
        <ele>2048.4489746094</ele>
        <time>2017-03-24T10:23:23Z</time>
      </trkpt>
      <trkpt lat="45.22408" lon="6.02977">
        <ele>2046.4489746094</ele>
        <time>2017-03-24T10:23:25Z</time>
      </trkpt>
      <trkpt lat="45.22397" lon="6.02972">
        <ele>2046.4489746094</ele>
        <time>2017-03-24T10:23:27Z</time>
      </trkpt>
      <trkpt lat="45.22382" lon="6.02951">
        <ele>2040.4489746094</ele>
        <time>2017-03-24T10:23:30Z</time>
      </trkpt>
      <trkpt lat="45.22375" lon="6.02943">
        <ele>2036.4489746094</ele>
        <time>2017-03-24T10:23:31Z</time>
      </trkpt>
      <trkpt lat="45.2237" lon="6.02949">
        <ele>2036.4489746094</ele>
        <time>2017-03-24T10:23:33Z</time>
      </trkpt>
      <trkpt lat="45.22368" lon="6.02938">
        <ele>2027.4489746094</ele>
        <time>2017-03-24T10:23:36Z</time>
      </trkpt>
      <trkpt lat="45.22365" lon="6.02933">
        <ele>2024.4489746094</ele>
        <time>2017-03-24T10:23:37Z</time>
      </trkpt>
      <trkpt lat="45.22363" lon="6.02926">
        <ele>2019.4489746094</ele>
        <time>2017-03-24T10:23:51Z</time>
      </trkpt>
      <trkpt lat="45.22361" lon="6.02917">
        <ele>2014.4489746094</ele>
        <time>2017-03-24T10:23:53Z</time>
      </trkpt>
      <trkpt lat="45.22365" lon="6.02912">
        <ele>2006.4489746094</ele>
        <time>2017-03-24T10:23:55Z</time>
      </trkpt>
      <trkpt lat="45.22374" lon="6.029">
        <ele>2002.4489746094</ele>
        <time>2017-03-24T10:23:57Z</time>
      </trkpt>
      <trkpt lat="45.22377" lon="6.0289">
        <ele>1999.4489746094</ele>
        <time>2017-03-24T10:23:59Z</time>
      </trkpt>
      <trkpt lat="45.2238" lon="6.0288">
        <ele>1997.4489746094</ele>
        <time>2017-03-24T10:24:00Z</time>
      </trkpt>
      <trkpt lat="45.22387" lon="6.02869">
        <ele>1994.4489746094</ele>
        <time>2017-03-24T10:24:03Z</time>
      </trkpt>
      <trkpt lat="45.22382" lon="6.02862">
        <ele>1994.4489746094</ele>
        <time>2017-03-24T10:24:05Z</time>
      </trkpt>
      <trkpt lat="45.22375" lon="6.02853">
        <ele>1993.4489746094</ele>
        <time>2017-03-24T10:24:06Z</time>
      </trkpt>
      <trkpt lat="45.2237" lon="6.02849">
        <ele>1993.4489746094</ele>
        <time>2017-03-24T10:24:07Z</time>
      </trkpt>
      <trkpt lat="45.22363" lon="6.02838">
        <ele>1992.4489746094</ele>
        <time>2017-03-24T10:24:11Z</time>
      </trkpt>
      <trkpt lat="45.2236" lon="6.02834">
        <ele>1988.4489746094</ele>
        <time>2017-03-24T10:24:13Z</time>
      </trkpt>
      <trkpt lat="45.22365" lon="6.02831">
        <ele>1976.4489746094</ele>
        <time>2017-03-24T10:24:28Z</time>
      </trkpt>
      <trkpt lat="45.22373" lon="6.02829">
        <ele>1971.4489746094</ele>
        <time>2017-03-24T10:24:29Z</time>
      </trkpt>
      <trkpt lat="45.2238" lon="6.02827">
        <ele>1970.4489746094</ele>
        <time>2017-03-24T10:24:30Z</time>
      </trkpt>
      <trkpt lat="45.22391" lon="6.02823">
        <ele>1965.4489746094</ele>
        <time>2017-03-24T10:24:32Z</time>
      </trkpt>
      <trkpt lat="45.22401" lon="6.02824">
        <ele>1960.4489746094</ele>
        <time>2017-03-24T10:24:34Z</time>
      </trkpt>
      <trkpt lat="45.22404" lon="6.02814">
        <ele>1952.4489746094</ele>
        <time>2017-03-24T10:24:37Z</time>
      </trkpt>
      <trkpt lat="45.22413" lon="6.02803">
        <ele>1947.4489746094</ele>
        <time>2017-03-24T10:24:40Z</time>
      </trkpt>
      <trkpt lat="45.22418" lon="6.02772">
        <ele>1941.4489746094</ele>
        <time>2017-03-24T10:24:43Z</time>
      </trkpt>
      <trkpt lat="45.22413" lon="6.02762">
        <ele>1938.4489746094</ele>
        <time>2017-03-24T10:24:45Z</time>
      </trkpt>
      <trkpt lat="45.22406" lon="6.02754">
        <ele>1937.4489746094</ele>
        <time>2017-03-24T10:24:46Z</time>
      </trkpt>
      <trkpt lat="45.22409" lon="6.02746">
        <ele>1934.4489746094</ele>
        <time>2017-03-24T10:24:48Z</time>
      </trkpt>
      <trkpt lat="45.22415" lon="6.02748">
        <ele>1931.4489746094</ele>
        <time>2017-03-24T10:24:49Z</time>
      </trkpt>
      <trkpt lat="45.22423" lon="6.02741">
        <ele>1929.4489746094</ele>
        <time>2017-03-24T10:24:51Z</time>
      </trkpt>
      <trkpt lat="45.22422" lon="6.02733">
        <ele>1925.4489746094</ele>
        <time>2017-03-24T10:24:53Z</time>
      </trkpt>
      <trkpt lat="45.22424" lon="6.02721">
        <ele>1921.4489746094</ele>
        <time>2017-03-24T10:24:55Z</time>
      </trkpt>
      <trkpt lat="45.22425" lon="6.02699">
        <ele>1919.4489746094</ele>
        <time>2017-03-24T10:24:57Z</time>
      </trkpt>
      <trkpt lat="45.22412" lon="6.02683">
        <ele>1918.4489746094</ele>
        <time>2017-03-24T10:24:59Z</time>
      </trkpt>
      <trkpt lat="45.22397" lon="6.02674">
        <ele>1913.4489746094</ele>
        <time>2017-03-24T10:25:01Z</time>
      </trkpt>
      <trkpt lat="45.22383" lon="6.02667">
        <ele>1907.4479980469</ele>
        <time>2017-03-24T10:25:03Z</time>
      </trkpt>
      <trkpt lat="45.22376" lon="6.02668">
        <ele>1904.4479980469</ele>
        <time>2017-03-24T10:25:04Z</time>
      </trkpt>
      <trkpt lat="45.22362" lon="6.02667">
        <ele>1901.4479980469</ele>
        <time>2017-03-24T10:25:06Z</time>
      </trkpt>
      <trkpt lat="45.22355" lon="6.02668">
        <ele>1899.4479980469</ele>
        <time>2017-03-24T10:25:07Z</time>
      </trkpt>
      <trkpt lat="45.22348" lon="6.02668">
        <ele>1898.4479980469</ele>
        <time>2017-03-24T10:25:08Z</time>
      </trkpt>
      <trkpt lat="45.22337" lon="6.02664">
        <ele>1901.4479980469</ele>
        <time>2017-03-24T10:25:10Z</time>
      </trkpt>
      <trkpt lat="45.22323" lon="6.0267">
        <ele>1897.4479980469</ele>
        <time>2017-03-24T10:25:13Z</time>
      </trkpt>
      <trkpt lat="45.22318" lon="6.02672">
        <ele>1891.4479980469</ele>
        <time>2017-03-24T10:25:16Z</time>
      </trkpt>
      <trkpt lat="45.22312" lon="6.02665">
        <ele>1874.4479980469</ele>
        <time>2017-03-24T10:25:51Z</time>
      </trkpt>
      <trkpt lat="45.22304" lon="6.02653">
        <ele>1861.4479980469</ele>
        <time>2017-03-24T10:25:53Z</time>
      </trkpt>
      <trkpt lat="45.22302" lon="6.02635">
        <ele>1852.4479980469</ele>
        <time>2017-03-24T10:25:56Z</time>
      </trkpt>
      <trkpt lat="45.22295" lon="6.02607">
        <ele>1850.4479980469</ele>
        <time>2017-03-24T10:25:58Z</time>
      </trkpt>
      <trkpt lat="45.22297" lon="6.02572">
        <ele>1845.4479980469</ele>
        <time>2017-03-24T10:26:00Z</time>
      </trkpt>
      <trkpt lat="45.22306" lon="6.02561">
        <ele>1840.4479980469</ele>
        <time>2017-03-24T10:26:02Z</time>
      </trkpt>
      <trkpt lat="45.22315" lon="6.02559">
        <ele>1837.4479980469</ele>
        <time>2017-03-24T10:26:03Z</time>
      </trkpt>
      <trkpt lat="45.22322" lon="6.02543">
        <ele>1833.4479980469</ele>
        <time>2017-03-24T10:26:06Z</time>
      </trkpt>
      <trkpt lat="45.22318" lon="6.02532">
        <ele>1831.4479980469</ele>
        <time>2017-03-24T10:26:07Z</time>
      </trkpt>
      <trkpt lat="45.22325" lon="6.02528">
        <ele>1826.4479980469</ele>
        <time>2017-03-24T10:26:09Z</time>
      </trkpt>
      <trkpt lat="45.22318" lon="6.02517">
        <ele>1822.4479980469</ele>
        <time>2017-03-24T10:26:11Z</time>
      </trkpt>
      <trkpt lat="45.22318" lon="6.02497">
        <ele>1816.4479980469</ele>
        <time>2017-03-24T10:26:12Z</time>
      </trkpt>
      <trkpt lat="45.22331" lon="6.02489">
        <ele>1809.4479980469</ele>
        <time>2017-03-24T10:26:15Z</time>
      </trkpt>
      <trkpt lat="45.22334" lon="6.02486">
        <ele>1805.4479980469</ele>
        <time>2017-03-24T10:26:16Z</time>
      </trkpt>
      <trkpt lat="45.22342" lon="6.02478">
        <ele>1804.4479980469</ele>
        <time>2017-03-24T10:26:18Z</time>
      </trkpt>
      <trkpt lat="45.22344" lon="6.02471">
        <ele>1799.4479980469</ele>
        <time>2017-03-24T10:26:20Z</time>
      </trkpt>
      <trkpt lat="45.22346" lon="6.0245">
        <ele>1794.4479980469</ele>
        <time>2017-03-24T10:26:21Z</time>
      </trkpt>
      <trkpt lat="45.22355" lon="6.02432">
        <ele>1790.4479980469</ele>
        <time>2017-03-24T10:26:23Z</time>
      </trkpt>
      <trkpt lat="45.22357" lon="6.02424">
        <ele>1790.4479980469</ele>
        <time>2017-03-24T10:26:24Z</time>
      </trkpt>
      <trkpt lat="45.22358" lon="6.02418">
        <ele>1790.4479980469</ele>
        <time>2017-03-24T10:26:25Z</time>
      </trkpt>
      <trkpt lat="45.22357" lon="6.02412">
        <ele>1784.4479980469</ele>
        <time>2017-03-24T10:26:31Z</time>
      </trkpt>
      <trkpt lat="45.2235" lon="6.02408">
        <ele>1782.4479980469</ele>
        <time>2017-03-24T10:26:33Z</time>
      </trkpt>
      <trkpt lat="45.22346" lon="6.02397">
        <ele>1779.4479980469</ele>
        <time>2017-03-24T10:26:35Z</time>
      </trkpt>
      <trkpt lat="45.22345" lon="6.02387">
        <ele>1775.4479980469</ele>
        <time>2017-03-24T10:26:37Z</time>
      </trkpt>
      <trkpt lat="45.22342" lon="6.02375">
        <ele>1771.4479980469</ele>
        <time>2017-03-24T10:26:39Z</time>
      </trkpt>
      <trkpt lat="45.22337" lon="6.02354">
        <ele>1768.4479980469</ele>
        <time>2017-03-24T10:26:41Z</time>
      </trkpt>
      <trkpt lat="45.22334" lon="6.02334">
        <ele>1770.4479980469</ele>
        <time>2017-03-24T10:26:43Z</time>
      </trkpt>
      <trkpt lat="45.22335" lon="6.02325">
        <ele>1771.4479980469</ele>
        <time>2017-03-24T10:26:45Z</time>
      </trkpt>
      <trkpt lat="45.22338" lon="6.0232">
        <ele>1773.4479980469</ele>
        <time>2017-03-24T10:31:31Z</time>
      </trkpt>
      <trkpt lat="45.22343" lon="6.02322">
        <ele>1768.4479980469</ele>
        <time>2017-03-24T10:31:36Z</time>
      </trkpt>
      <trkpt lat="45.22348" lon="6.02326">
        <ele>1770.4479980469</ele>
        <time>2017-03-24T10:32:01Z</time>
      </trkpt>
      <trkpt lat="45.22353" lon="6.02329">
        <ele>1770.4479980469</ele>
        <time>2017-03-24T10:32:03Z</time>
      </trkpt>
      <trkpt lat="45.22355" lon="6.02335">
        <ele>1770.4479980469</ele>
        <time>2017-03-24T10:32:08Z</time>
      </trkpt>
      <trkpt lat="45.22354" lon="6.02342">
        <ele>1766.4479980469</ele>
        <time>2017-03-24T10:32:13Z</time>
      </trkpt>
      <trkpt lat="45.22356" lon="6.02348">
        <ele>1767.4479980469</ele>
        <time>2017-03-24T10:32:17Z</time>
      </trkpt>
      <trkpt lat="45.22357" lon="6.02355">
        <ele>1765.4479980469</ele>
        <time>2017-03-24T10:32:23Z</time>
      </trkpt>
      <trkpt lat="45.22359" lon="6.02361">
        <ele>1764.4479980469</ele>
        <time>2017-03-24T10:32:27Z</time>
      </trkpt>
      <trkpt lat="45.2236" lon="6.02368">
        <ele>1770.4479980469</ele>
        <time>2017-03-24T10:32:35Z</time>
      </trkpt>
      <trkpt lat="45.22359" lon="6.02375">
        <ele>1770.4479980469</ele>
        <time>2017-03-24T10:32:42Z</time>
      </trkpt>
      <trkpt lat="45.22359" lon="6.02381">
        <ele>1767.4479980469</ele>
        <time>2017-03-24T10:32:47Z</time>
      </trkpt>
      <trkpt lat="45.2236" lon="6.02389">
        <ele>1766.4479980469</ele>
        <time>2017-03-24T10:32:53Z</time>
      </trkpt>
      <trkpt lat="45.22363" lon="6.02394">
        <ele>1762.4479980469</ele>
        <time>2017-03-24T10:32:59Z</time>
      </trkpt>
      <trkpt lat="45.22367" lon="6.02399">
        <ele>1766.4479980469</ele>
        <time>2017-03-24T10:33:06Z</time>
      </trkpt>
      <trkpt lat="45.2237" lon="6.02405">
        <ele>1768.4479980469</ele>
        <time>2017-03-24T10:33:14Z</time>
      </trkpt>
      <trkpt lat="45.22371" lon="6.02411">
        <ele>1775.4479980469</ele>
        <time>2017-03-24T10:33:21Z</time>
      </trkpt>
      <trkpt lat="45.22376" lon="6.02413">
        <ele>1782.4479980469</ele>
        <time>2017-03-24T10:33:26Z</time>
      </trkpt>
      <trkpt lat="45.22381" lon="6.02414">
        <ele>1786.4479980469</ele>
        <time>2017-03-24T10:33:34Z</time>
      </trkpt>
      <trkpt lat="45.22386" lon="6.02415">
        <ele>1788.4479980469</ele>
        <time>2017-03-24T10:33:48Z</time>
      </trkpt>
      <trkpt lat="45.22388" lon="6.02422">
        <ele>1788.4479980469</ele>
        <time>2017-03-24T10:33:55Z</time>
      </trkpt>
      <trkpt lat="45.22391" lon="6.02427">
        <ele>1790.4479980469</ele>
        <time>2017-03-24T10:34:01Z</time>
      </trkpt>
      <trkpt lat="45.22392" lon="6.02434">
        <ele>1791.4479980469</ele>
        <time>2017-03-24T10:34:08Z</time>
      </trkpt>
      <trkpt lat="45.22391" lon="6.02441">
        <ele>1789.4479980469</ele>
        <time>2017-03-24T10:34:12Z</time>
      </trkpt>
      <trkpt lat="45.22391" lon="6.02448">
        <ele>1789.4479980469</ele>
        <time>2017-03-24T10:34:19Z</time>
      </trkpt>
      <trkpt lat="45.22392" lon="6.02454">
        <ele>1789.4479980469</ele>
        <time>2017-03-24T10:34:24Z</time>
      </trkpt>
      <trkpt lat="45.22393" lon="6.0246">
        <ele>1788.4479980469</ele>
        <time>2017-03-24T10:34:30Z</time>
      </trkpt>
      <trkpt lat="45.22395" lon="6.02466">
        <ele>1789.4479980469</ele>
        <time>2017-03-24T10:34:35Z</time>
      </trkpt>
      <trkpt lat="45.22396" lon="6.02473">
        <ele>1792.4479980469</ele>
        <time>2017-03-24T10:34:43Z</time>
      </trkpt>
      <trkpt lat="45.22399" lon="6.0248">
        <ele>1793.4479980469</ele>
        <time>2017-03-24T10:34:50Z</time>
      </trkpt>
      <trkpt lat="45.224" lon="6.02486">
        <ele>1796.4479980469</ele>
        <time>2017-03-24T10:34:58Z</time>
      </trkpt>
      <trkpt lat="45.22401" lon="6.02494">
        <ele>1797.4479980469</ele>
        <time>2017-03-24T10:35:11Z</time>
      </trkpt>
      <trkpt lat="45.22402" lon="6.02501">
        <ele>1797.4479980469</ele>
        <time>2017-03-24T10:35:17Z</time>
      </trkpt>
      <trkpt lat="45.22403" lon="6.02508">
        <ele>1795.4479980469</ele>
        <time>2017-03-24T10:35:29Z</time>
      </trkpt>
      <trkpt lat="45.22402" lon="6.02515">
        <ele>1798.4479980469</ele>
        <time>2017-03-24T10:35:37Z</time>
      </trkpt>
      <trkpt lat="45.224" lon="6.02522">
        <ele>1798.4479980469</ele>
        <time>2017-03-24T10:35:41Z</time>
      </trkpt>
      <trkpt lat="45.22398" lon="6.02529">
        <ele>1802.4479980469</ele>
        <time>2017-03-24T10:35:47Z</time>
      </trkpt>
      <trkpt lat="45.22401" lon="6.02535">
        <ele>1805.4479980469</ele>
        <time>2017-03-24T10:36:00Z</time>
      </trkpt>
      <trkpt lat="45.22405" lon="6.02537">
        <ele>1805.4479980469</ele>
        <time>2017-03-24T10:36:06Z</time>
      </trkpt>
      <trkpt lat="45.22408" lon="6.02543">
        <ele>1809.4479980469</ele>
        <time>2017-03-24T10:36:14Z</time>
      </trkpt>
      <trkpt lat="45.22412" lon="6.02547">
        <ele>1811.4479980469</ele>
        <time>2017-03-24T10:36:19Z</time>
      </trkpt>
      <trkpt lat="45.22417" lon="6.0255">
        <ele>1817.4479980469</ele>
        <time>2017-03-24T10:36:26Z</time>
      </trkpt>
      <trkpt lat="45.22419" lon="6.02556">
        <ele>1818.4479980469</ele>
        <time>2017-03-24T10:36:35Z</time>
      </trkpt>
      <trkpt lat="45.22425" lon="6.02558">
        <ele>1820.4479980469</ele>
        <time>2017-03-24T10:36:37Z</time>
      </trkpt>
      <trkpt lat="45.2243" lon="6.02562">
        <ele>1821.4479980469</ele>
        <time>2017-03-24T10:36:44Z</time>
      </trkpt>
      <trkpt lat="45.22434" lon="6.02563">
        <ele>1824.4479980469</ele>
        <time>2017-03-24T10:36:50Z</time>
      </trkpt>
      <trkpt lat="45.2244" lon="6.02566">
        <ele>1822.4479980469</ele>
        <time>2017-03-24T10:37:06Z</time>
      </trkpt>
      <trkpt lat="45.22444" lon="6.0257">
        <ele>1824.4479980469</ele>
        <time>2017-03-24T10:37:12Z</time>
      </trkpt>
      <trkpt lat="45.22449" lon="6.02574">
        <ele>1825.4479980469</ele>
        <time>2017-03-24T10:37:14Z</time>
      </trkpt>
      <trkpt lat="45.22448" lon="6.0258">
        <ele>1826.4479980469</ele>
        <time>2017-03-24T10:37:19Z</time>
      </trkpt>
      <trkpt lat="45.22444" lon="6.02586">
        <ele>1824.4479980469</ele>
        <time>2017-03-24T10:37:23Z</time>
      </trkpt>
      <trkpt lat="45.2244" lon="6.02591">
        <ele>1828.4479980469</ele>
        <time>2017-03-24T10:37:29Z</time>
      </trkpt>
      <trkpt lat="45.22438" lon="6.02598">
        <ele>1833.4479980469</ele>
        <time>2017-03-24T10:37:48Z</time>
      </trkpt>
      <trkpt lat="45.22434" lon="6.02602">
        <ele>1835.4479980469</ele>
        <time>2017-03-24T10:37:56Z</time>
      </trkpt>
      <trkpt lat="45.2243" lon="6.02606">
        <ele>1835.4479980469</ele>
        <time>2017-03-24T10:38:00Z</time>
      </trkpt>
      <trkpt lat="45.22429" lon="6.02612">
        <ele>1839.4479980469</ele>
        <time>2017-03-24T10:38:11Z</time>
      </trkpt>
      <trkpt lat="45.22433" lon="6.02616">
        <ele>1842.4479980469</ele>
        <time>2017-03-24T10:38:20Z</time>
      </trkpt>
      <trkpt lat="45.22437" lon="6.0262">
        <ele>1843.4489746094</ele>
        <time>2017-03-24T10:38:28Z</time>
      </trkpt>
      <trkpt lat="45.22441" lon="6.02625">
        <ele>1846.4489746094</ele>
        <time>2017-03-24T10:38:37Z</time>
      </trkpt>
      <trkpt lat="45.22446" lon="6.0263">
        <ele>1843.4489746094</ele>
        <time>2017-03-24T10:38:52Z</time>
      </trkpt>
      <trkpt lat="45.22449" lon="6.02635">
        <ele>1851.4489746094</ele>
        <time>2017-03-24T10:39:02Z</time>
      </trkpt>
      <trkpt lat="45.22453" lon="6.02639">
        <ele>1852.4489746094</ele>
        <time>2017-03-24T10:39:09Z</time>
      </trkpt>
      <trkpt lat="45.22456" lon="6.02644">
        <ele>1855.4489746094</ele>
        <time>2017-03-24T10:39:17Z</time>
      </trkpt>
      <trkpt lat="45.2246" lon="6.02649">
        <ele>1860.4489746094</ele>
        <time>2017-03-24T10:39:26Z</time>
      </trkpt>
      <trkpt lat="45.22462" lon="6.02656">
        <ele>1860.4489746094</ele>
        <time>2017-03-24T10:39:34Z</time>
      </trkpt>
      <trkpt lat="45.22464" lon="6.02662">
        <ele>1859.4489746094</ele>
        <time>2017-03-24T10:39:42Z</time>
      </trkpt>
      <trkpt lat="45.22466" lon="6.02668">
        <ele>1860.4489746094</ele>
        <time>2017-03-24T10:39:49Z</time>
      </trkpt>
      <trkpt lat="45.2247" lon="6.02673">
        <ele>1859.4489746094</ele>
        <time>2017-03-24T10:39:59Z</time>
      </trkpt>
      <trkpt lat="45.22474" lon="6.02679">
        <ele>1864.4489746094</ele>
        <time>2017-03-24T10:40:16Z</time>
      </trkpt>
      <trkpt lat="45.22476" lon="6.02685">
        <ele>1867.4489746094</ele>
        <time>2017-03-24T10:40:23Z</time>
      </trkpt>
      <trkpt lat="45.22479" lon="6.02691">
        <ele>1870.4489746094</ele>
        <time>2017-03-24T10:40:30Z</time>
      </trkpt>
      <trkpt lat="45.22482" lon="6.02696">
        <ele>1870.4489746094</ele>
        <time>2017-03-24T10:40:37Z</time>
      </trkpt>
      <trkpt lat="45.22484" lon="6.02702">
        <ele>1868.4489746094</ele>
        <time>2017-03-24T10:40:44Z</time>
      </trkpt>
      <trkpt lat="45.22485" lon="6.02708">
        <ele>1862.4489746094</ele>
        <time>2017-03-24T10:40:51Z</time>
      </trkpt>
      <trkpt lat="45.22488" lon="6.02714">
        <ele>1866.4489746094</ele>
        <time>2017-03-24T10:40:59Z</time>
      </trkpt>
      <trkpt lat="45.2249" lon="6.02721">
        <ele>1879.4489746094</ele>
        <time>2017-03-24T10:41:10Z</time>
      </trkpt>
      <trkpt lat="45.22494" lon="6.02723">
        <ele>1877.4489746094</ele>
        <time>2017-03-24T10:41:13Z</time>
      </trkpt>
      <trkpt lat="45.22498" lon="6.02726">
        <ele>1877.4489746094</ele>
        <time>2017-03-24T10:41:21Z</time>
      </trkpt>
      <trkpt lat="45.22503" lon="6.02729">
        <ele>1880.4489746094</ele>
        <time>2017-03-24T10:41:27Z</time>
      </trkpt>
      <trkpt lat="45.22508" lon="6.02732">
        <ele>1889.4489746094</ele>
        <time>2017-03-24T10:41:32Z</time>
      </trkpt>
      <trkpt lat="45.22511" lon="6.02737">
        <ele>1887.4489746094</ele>
        <time>2017-03-24T10:41:43Z</time>
      </trkpt>
      <trkpt lat="45.22513" lon="6.02743">
        <ele>1885.4489746094</ele>
        <time>2017-03-24T10:41:52Z</time>
      </trkpt>
      <trkpt lat="45.22516" lon="6.02749">
        <ele>1886.4489746094</ele>
        <time>2017-03-24T10:42:02Z</time>
      </trkpt>
      <trkpt lat="45.2252" lon="6.02753">
        <ele>1887.4489746094</ele>
        <time>2017-03-24T10:42:12Z</time>
      </trkpt>
      <trkpt lat="45.22519" lon="6.02759">
        <ele>1887.4489746094</ele>
        <time>2017-03-24T10:42:24Z</time>
      </trkpt>
      <trkpt lat="45.22515" lon="6.02762">
        <ele>1893.4489746094</ele>
        <time>2017-03-24T10:42:47Z</time>
      </trkpt>
      <trkpt lat="45.2251" lon="6.02764">
        <ele>1898.4489746094</ele>
        <time>2017-03-24T10:42:57Z</time>
      </trkpt>
      <trkpt lat="45.22505" lon="6.02766">
        <ele>1899.4489746094</ele>
        <time>2017-03-24T10:43:03Z</time>
      </trkpt>
      <trkpt lat="45.22499" lon="6.02767">
        <ele>1900.4489746094</ele>
        <time>2017-03-24T10:43:09Z</time>
      </trkpt>
      <trkpt lat="45.22494" lon="6.02768">
        <ele>1900.4489746094</ele>
        <time>2017-03-24T10:43:15Z</time>
      </trkpt>
      <trkpt lat="45.22497" lon="6.02773">
        <ele>1898.4489746094</ele>
        <time>2017-03-24T10:43:36Z</time>
      </trkpt>
      <trkpt lat="45.22501" lon="6.02778">
        <ele>1903.4489746094</ele>
        <time>2017-03-24T10:43:43Z</time>
      </trkpt>
      <trkpt lat="45.22505" lon="6.02782">
        <ele>1908.4489746094</ele>
        <time>2017-03-24T10:43:50Z</time>
      </trkpt>
      <trkpt lat="45.22508" lon="6.02786">
        <ele>1907.4489746094</ele>
        <time>2017-03-24T10:43:59Z</time>
      </trkpt>
      <trkpt lat="45.2251" lon="6.02792">
        <ele>1912.4489746094</ele>
        <time>2017-03-24T10:44:03Z</time>
      </trkpt>
      <trkpt lat="45.22513" lon="6.02797">
        <ele>1911.4489746094</ele>
        <time>2017-03-24T10:44:12Z</time>
      </trkpt>
      <trkpt lat="45.22508" lon="6.02796">
        <ele>1919.4489746094</ele>
        <time>2017-03-24T10:44:27Z</time>
      </trkpt>
      <trkpt lat="45.22504" lon="6.02796">
        <ele>1916.4489746094</ele>
        <time>2017-03-24T10:44:34Z</time>
      </trkpt>
      <trkpt lat="45.22499" lon="6.02798">
        <ele>1919.4489746094</ele>
        <time>2017-03-24T10:44:42Z</time>
      </trkpt>
      <trkpt lat="45.22494" lon="6.02802">
        <ele>1921.4489746094</ele>
        <time>2017-03-24T10:44:46Z</time>
      </trkpt>
      <trkpt lat="45.22489" lon="6.02799">
        <ele>1922.4489746094</ele>
        <time>2017-03-24T10:44:55Z</time>
      </trkpt>
      <trkpt lat="45.22484" lon="6.02799">
        <ele>1925.4489746094</ele>
        <time>2017-03-24T10:45:06Z</time>
      </trkpt>
      <trkpt lat="45.22479" lon="6.02798">
        <ele>1927.4489746094</ele>
        <time>2017-03-24T10:45:13Z</time>
      </trkpt>
      <trkpt lat="45.22475" lon="6.02797">
        <ele>1930.4489746094</ele>
        <time>2017-03-24T10:45:20Z</time>
      </trkpt>
      <trkpt lat="45.2247" lon="6.02797">
        <ele>1930.4489746094</ele>
        <time>2017-03-24T10:45:25Z</time>
      </trkpt>
      <trkpt lat="45.22465" lon="6.02799">
        <ele>1926.4489746094</ele>
        <time>2017-03-24T10:45:33Z</time>
      </trkpt>
      <trkpt lat="45.22465" lon="6.02807">
        <ele>1927.4489746094</ele>
        <time>2017-03-24T10:45:48Z</time>
      </trkpt>
      <trkpt lat="45.22467" lon="6.02813">
        <ele>1931.4489746094</ele>
        <time>2017-03-24T10:45:56Z</time>
      </trkpt>
      <trkpt lat="45.22472" lon="6.02816">
        <ele>1931.4489746094</ele>
        <time>2017-03-24T10:46:03Z</time>
      </trkpt>
      <trkpt lat="45.22473" lon="6.02822">
        <ele>1933.4489746094</ele>
        <time>2017-03-24T10:46:08Z</time>
      </trkpt>
      <trkpt lat="45.22471" lon="6.0283">
        <ele>1932.4489746094</ele>
        <time>2017-03-24T10:46:14Z</time>
      </trkpt>
      <trkpt lat="45.22467" lon="6.02836">
        <ele>1932.4489746094</ele>
        <time>2017-03-24T10:46:20Z</time>
      </trkpt>
      <trkpt lat="45.22462" lon="6.02839">
        <ele>1933.4489746094</ele>
        <time>2017-03-24T10:46:28Z</time>
      </trkpt>
      <trkpt lat="45.22458" lon="6.02842">
        <ele>1935.4489746094</ele>
        <time>2017-03-24T10:46:34Z</time>
      </trkpt>
      <trkpt lat="45.22453" lon="6.02844">
        <ele>1941.4489746094</ele>
        <time>2017-03-24T10:46:43Z</time>
      </trkpt>
      <trkpt lat="45.22449" lon="6.02847">
        <ele>1944.4489746094</ele>
        <time>2017-03-24T10:46:49Z</time>
      </trkpt>
      <trkpt lat="45.22444" lon="6.02848">
        <ele>1944.4489746094</ele>
        <time>2017-03-24T10:46:55Z</time>
      </trkpt>
      <trkpt lat="45.22439" lon="6.02848">
        <ele>1949.4489746094</ele>
        <time>2017-03-24T10:47:00Z</time>
      </trkpt>
      <trkpt lat="45.22435" lon="6.0285">
        <ele>1952.4489746094</ele>
        <time>2017-03-24T10:47:04Z</time>
      </trkpt>
      <trkpt lat="45.22438" lon="6.02854">
        <ele>1951.4489746094</ele>
        <time>2017-03-24T10:47:10Z</time>
      </trkpt>
      <trkpt lat="45.2244" lon="6.02861">
        <ele>1952.4489746094</ele>
        <time>2017-03-24T10:47:17Z</time>
      </trkpt>
      <trkpt lat="45.22443" lon="6.02866">
        <ele>1955.4489746094</ele>
        <time>2017-03-24T10:47:24Z</time>
      </trkpt>
      <trkpt lat="45.22446" lon="6.02872">
        <ele>1956.4489746094</ele>
        <time>2017-03-24T10:47:32Z</time>
      </trkpt>
      <trkpt lat="45.22449" lon="6.02877">
        <ele>1957.4489746094</ele>
        <time>2017-03-24T10:47:37Z</time>
      </trkpt>
      <trkpt lat="45.22452" lon="6.02882">
        <ele>1961.4489746094</ele>
        <time>2017-03-24T10:47:44Z</time>
      </trkpt>
      <trkpt lat="45.22456" lon="6.02885">
        <ele>1960.4489746094</ele>
        <time>2017-03-24T10:47:52Z</time>
      </trkpt>
      <trkpt lat="45.2246" lon="6.0289">
        <ele>1961.4489746094</ele>
        <time>2017-03-24T10:48:01Z</time>
      </trkpt>
      <trkpt lat="45.22465" lon="6.02894">
        <ele>1965.4489746094</ele>
        <time>2017-03-24T10:48:11Z</time>
      </trkpt>
      <trkpt lat="45.22469" lon="6.02897">
        <ele>1968.4489746094</ele>
        <time>2017-03-24T10:48:17Z</time>
      </trkpt>
      <trkpt lat="45.22473" lon="6.02901">
        <ele>1968.4489746094</ele>
        <time>2017-03-24T10:48:23Z</time>
      </trkpt>
      <trkpt lat="45.22477" lon="6.02906">
        <ele>1968.4489746094</ele>
        <time>2017-03-24T10:48:35Z</time>
      </trkpt>
      <trkpt lat="45.22479" lon="6.02913">
        <ele>1973.4489746094</ele>
        <time>2017-03-24T10:48:51Z</time>
      </trkpt>
      <trkpt lat="45.22475" lon="6.02916">
        <ele>1980.4489746094</ele>
        <time>2017-03-24T10:48:58Z</time>
      </trkpt>
      <trkpt lat="45.22469" lon="6.02918">
        <ele>1979.4489746094</ele>
        <time>2017-03-24T10:49:04Z</time>
      </trkpt>
      <trkpt lat="45.22465" lon="6.02921">
        <ele>1979.4489746094</ele>
        <time>2017-03-24T10:49:09Z</time>
      </trkpt>
      <trkpt lat="45.2246" lon="6.02923">
        <ele>1979.4489746094</ele>
        <time>2017-03-24T10:49:15Z</time>
      </trkpt>
      <trkpt lat="45.22456" lon="6.02926">
        <ele>1980.4489746094</ele>
        <time>2017-03-24T10:49:20Z</time>
      </trkpt>
      <trkpt lat="45.22451" lon="6.02927">
        <ele>1986.4489746094</ele>
        <time>2017-03-24T10:49:28Z</time>
      </trkpt>
      <trkpt lat="45.22449" lon="6.02934">
        <ele>1984.4489746094</ele>
        <time>2017-03-24T10:49:35Z</time>
      </trkpt>
      <trkpt lat="45.22449" lon="6.02942">
        <ele>1982.4489746094</ele>
        <time>2017-03-24T10:49:41Z</time>
      </trkpt>
      <trkpt lat="45.2245" lon="6.02949">
        <ele>1980.4489746094</ele>
        <time>2017-03-24T10:49:47Z</time>
      </trkpt>
      <trkpt lat="45.22449" lon="6.02956">
        <ele>1982.4489746094</ele>
        <time>2017-03-24T10:49:55Z</time>
      </trkpt>
      <trkpt lat="45.22449" lon="6.02964">
        <ele>1981.4489746094</ele>
        <time>2017-03-24T10:50:02Z</time>
      </trkpt>
      <trkpt lat="45.22448" lon="6.0297">
        <ele>1980.4489746094</ele>
        <time>2017-03-24T10:50:09Z</time>
      </trkpt>
      <trkpt lat="45.22447" lon="6.02976">
        <ele>1980.4489746094</ele>
        <time>2017-03-24T10:50:12Z</time>
      </trkpt>
      <trkpt lat="45.22444" lon="6.02984">
        <ele>1983.4489746094</ele>
        <time>2017-03-24T10:50:17Z</time>
      </trkpt>
      <trkpt lat="45.22441" lon="6.0299">
        <ele>1987.4489746094</ele>
        <time>2017-03-24T10:50:23Z</time>
      </trkpt>
      <trkpt lat="45.22441" lon="6.02997">
        <ele>1996.4489746094</ele>
        <time>2017-03-24T10:50:40Z</time>
      </trkpt>
      <trkpt lat="45.2244" lon="6.03004">
        <ele>1999.4489746094</ele>
        <time>2017-03-24T10:50:46Z</time>
      </trkpt>
      <trkpt lat="45.22437" lon="6.03013">
        <ele>1997.4489746094</ele>
        <time>2017-03-24T10:50:51Z</time>
      </trkpt>
      <trkpt lat="45.22437" lon="6.0302">
        <ele>1997.4489746094</ele>
        <time>2017-03-24T10:50:56Z</time>
      </trkpt>
      <trkpt lat="45.22437" lon="6.03027">
        <ele>1997.4489746094</ele>
        <time>2017-03-24T10:51:03Z</time>
      </trkpt>
      <trkpt lat="45.22439" lon="6.03033">
        <ele>1996.4489746094</ele>
        <time>2017-03-24T10:51:14Z</time>
      </trkpt>
      <trkpt lat="45.22441" lon="6.03039">
        <ele>1998.4489746094</ele>
        <time>2017-03-24T10:51:22Z</time>
      </trkpt>
      <trkpt lat="45.22444" lon="6.03045">
        <ele>2003.4489746094</ele>
        <time>2017-03-24T10:51:30Z</time>
      </trkpt>
      <trkpt lat="45.22445" lon="6.03052">
        <ele>2007.4489746094</ele>
        <time>2017-03-24T10:51:39Z</time>
      </trkpt>
      <trkpt lat="45.22447" lon="6.03058">
        <ele>2009.4489746094</ele>
        <time>2017-03-24T10:51:46Z</time>
      </trkpt>
      <trkpt lat="45.2245" lon="6.03063">
        <ele>2009.4489746094</ele>
        <time>2017-03-24T10:51:52Z</time>
      </trkpt>
      <trkpt lat="45.2245" lon="6.03071">
        <ele>2012.4489746094</ele>
        <time>2017-03-24T10:51:59Z</time>
      </trkpt>
      <trkpt lat="45.22453" lon="6.03076">
        <ele>2016.4489746094</ele>
        <time>2017-03-24T10:52:06Z</time>
      </trkpt>
      <trkpt lat="45.22457" lon="6.03079">
        <ele>2021.4489746094</ele>
        <time>2017-03-24T10:52:13Z</time>
      </trkpt>
      <trkpt lat="45.22461" lon="6.03083">
        <ele>2023.4489746094</ele>
        <time>2017-03-24T10:52:20Z</time>
      </trkpt>
      <trkpt lat="45.22464" lon="6.03089">
        <ele>2027.4489746094</ele>
        <time>2017-03-24T10:52:29Z</time>
      </trkpt>
      <trkpt lat="45.22468" lon="6.03091">
        <ele>2029.4489746094</ele>
        <time>2017-03-24T10:52:35Z</time>
      </trkpt>
      <trkpt lat="45.2247" lon="6.03099">
        <ele>2027.4489746094</ele>
        <time>2017-03-24T10:52:44Z</time>
      </trkpt>
      <trkpt lat="45.22474" lon="6.03103">
        <ele>2025.4489746094</ele>
        <time>2017-03-24T10:52:48Z</time>
      </trkpt>
      <trkpt lat="45.22475" lon="6.0311">
        <ele>2025.4489746094</ele>
        <time>2017-03-24T10:52:56Z</time>
      </trkpt>
      <trkpt lat="45.22478" lon="6.03117">
        <ele>2024.4489746094</ele>
        <time>2017-03-24T10:53:04Z</time>
      </trkpt>
      <trkpt lat="45.2248" lon="6.03122">
        <ele>2028.4489746094</ele>
        <time>2017-03-24T10:53:12Z</time>
      </trkpt>
      <trkpt lat="45.22483" lon="6.03128">
        <ele>2029.4489746094</ele>
        <time>2017-03-24T10:53:20Z</time>
      </trkpt>
      <trkpt lat="45.22486" lon="6.03133">
        <ele>2027.4489746094</ele>
        <time>2017-03-24T10:53:28Z</time>
      </trkpt>
      <trkpt lat="45.22487" lon="6.0314">
        <ele>2030.4489746094</ele>
        <time>2017-03-24T10:53:36Z</time>
      </trkpt>
      <trkpt lat="45.2249" lon="6.03145">
        <ele>2033.4489746094</ele>
        <time>2017-03-24T10:53:45Z</time>
      </trkpt>
      <trkpt lat="45.22492" lon="6.03151">
        <ele>2038.4489746094</ele>
        <time>2017-03-24T10:53:53Z</time>
      </trkpt>
      <trkpt lat="45.22488" lon="6.03148">
        <ele>2030.4489746094</ele>
        <time>2017-03-24T10:54:03Z</time>
      </trkpt>
      <trkpt lat="45.22483" lon="6.03149">
        <ele>2033.4489746094</ele>
        <time>2017-03-24T10:54:14Z</time>
      </trkpt>
      <trkpt lat="45.22477" lon="6.03151">
        <ele>2034.4489746094</ele>
        <time>2017-03-24T10:54:23Z</time>
      </trkpt>
      <trkpt lat="45.22473" lon="6.03151">
        <ele>2038.4489746094</ele>
        <time>2017-03-24T10:54:30Z</time>
      </trkpt>
      <trkpt lat="45.22468" lon="6.03152">
        <ele>2041.4489746094</ele>
        <time>2017-03-24T10:54:37Z</time>
      </trkpt>
      <trkpt lat="45.22463" lon="6.03151">
        <ele>2047.4489746094</ele>
        <time>2017-03-24T10:54:47Z</time>
      </trkpt>
      <trkpt lat="45.22464" lon="6.03157">
        <ele>2049.4489746094</ele>
        <time>2017-03-24T10:54:59Z</time>
      </trkpt>
      <trkpt lat="45.22466" lon="6.03164">
        <ele>2048.4489746094</ele>
        <time>2017-03-24T10:55:06Z</time>
      </trkpt>
      <trkpt lat="45.2247" lon="6.03167">
        <ele>2051.4489746094</ele>
        <time>2017-03-24T10:55:13Z</time>
      </trkpt>
      <trkpt lat="45.22473" lon="6.03173">
        <ele>2052.4489746094</ele>
        <time>2017-03-24T10:55:20Z</time>
      </trkpt>
      <trkpt lat="45.22479" lon="6.03175">
        <ele>2058.4489746094</ele>
        <time>2017-03-24T10:55:31Z</time>
      </trkpt>
      <trkpt lat="45.22475" lon="6.03181">
        <ele>2063.4489746094</ele>
        <time>2017-03-24T10:55:52Z</time>
      </trkpt>
      <trkpt lat="45.2247" lon="6.03181">
        <ele>2064.4489746094</ele>
        <time>2017-03-24T10:56:01Z</time>
      </trkpt>
      <trkpt lat="45.22468" lon="6.03186">
        <ele>2067.4489746094</ele>
        <time>2017-03-24T10:56:19Z</time>
      </trkpt>
      <trkpt lat="45.22473" lon="6.03188">
        <ele>2069.4489746094</ele>
        <time>2017-03-24T10:56:36Z</time>
      </trkpt>
      <trkpt lat="45.22474" lon="6.03194">
        <ele>2069.4489746094</ele>
        <time>2017-03-24T10:58:28Z</time>
      </trkpt>
      <trkpt lat="45.22475" lon="6.03201">
        <ele>2073.4489746094</ele>
        <time>2017-03-24T10:58:43Z</time>
      </trkpt>
      <trkpt lat="45.22473" lon="6.03207">
        <ele>2077.4489746094</ele>
        <time>2017-03-24T10:58:59Z</time>
      </trkpt>
      <trkpt lat="45.22473" lon="6.03213">
        <ele>2086.4489746094</ele>
        <time>2017-03-24T10:59:20Z</time>
      </trkpt>
      <trkpt lat="45.22476" lon="6.03219">
        <ele>2089.4489746094</ele>
        <time>2017-03-24T10:59:29Z</time>
      </trkpt>
      <trkpt lat="45.22479" lon="6.03225">
        <ele>2092.4489746094</ele>
        <time>2017-03-24T10:59:41Z</time>
      </trkpt>
      <trkpt lat="45.22473" lon="6.03229">
        <ele>2099.4489746094</ele>
        <time>2017-03-24T11:00:02Z</time>
      </trkpt>
      <trkpt lat="45.22474" lon="6.03235">
        <ele>2100.4489746094</ele>
        <time>2017-03-24T11:00:19Z</time>
      </trkpt>
      <trkpt lat="45.22474" lon="6.03242">
        <ele>2116.4489746094</ele>
        <time>2017-03-24T11:00:56Z</time>
      </trkpt>
      <trkpt lat="45.22476" lon="6.03248">
        <ele>2116.4489746094</ele>
        <time>2017-03-24T11:01:09Z</time>
      </trkpt>
      <trkpt lat="45.2248" lon="6.03253">
        <ele>2116.4489746094</ele>
        <time>2017-03-24T11:01:27Z</time>
      </trkpt>
      <trkpt lat="45.22484" lon="6.03258">
        <ele>2121.4489746094</ele>
        <time>2017-03-24T11:01:36Z</time>
      </trkpt>
      <trkpt lat="45.22487" lon="6.03263">
        <ele>2127.4499511719</ele>
        <time>2017-03-24T11:01:58Z</time>
      </trkpt>
      <trkpt lat="45.22487" lon="6.0327">
        <ele>2130.4499511719</ele>
        <time>2017-03-24T11:02:25Z</time>
      </trkpt>
      <trkpt lat="45.22485" lon="6.03276">
        <ele>2134.4499511719</ele>
        <time>2017-03-24T11:02:49Z</time>
      </trkpt>
      <trkpt lat="45.22482" lon="6.03282">
        <ele>2138.4499511719</ele>
        <time>2017-03-24T11:03:03Z</time>
      </trkpt>
      <trkpt lat="45.2248" lon="6.03287">
        <ele>2145.4499511719</ele>
        <time>2017-03-24T11:03:18Z</time>
      </trkpt>
      <trkpt lat="45.22484" lon="6.0329">
        <ele>2146.4499511719</ele>
        <time>2017-03-24T11:03:30Z</time>
      </trkpt>
      <trkpt lat="45.22485" lon="6.03298">
        <ele>2152.4499511719</ele>
        <time>2017-03-24T11:03:49Z</time>
      </trkpt>
      <trkpt lat="45.22485" lon="6.03304">
        <ele>2153.4499511719</ele>
        <time>2017-03-24T11:04:06Z</time>
      </trkpt>
      <trkpt lat="45.22483" lon="6.0331">
        <ele>2155.4499511719</ele>
        <time>2017-03-24T11:04:35Z</time>
      </trkpt>
      <trkpt lat="45.22486" lon="6.03316">
        <ele>2159.4499511719</ele>
        <time>2017-03-24T11:04:47Z</time>
      </trkpt>
      <trkpt lat="45.22484" lon="6.03323">
        <ele>2162.4499511719</ele>
        <time>2017-03-24T11:05:05Z</time>
      </trkpt>
      <trkpt lat="45.22484" lon="6.0333">
        <ele>2166.4499511719</ele>
        <time>2017-03-24T11:05:30Z</time>
      </trkpt>
      <trkpt lat="45.22484" lon="6.03337">
        <ele>2173.4499511719</ele>
        <time>2017-03-24T11:05:54Z</time>
      </trkpt>
      <trkpt lat="45.22486" lon="6.03343">
        <ele>2183.4499511719</ele>
        <time>2017-03-24T11:06:31Z</time>
      </trkpt>
      <trkpt lat="45.22487" lon="6.0335">
        <ele>2187.4499511719</ele>
        <time>2017-03-24T11:06:45Z</time>
      </trkpt>
      <trkpt lat="45.2249" lon="6.03355">
        <ele>2189.4499511719</ele>
        <time>2017-03-24T11:06:55Z</time>
      </trkpt>
      <trkpt lat="45.22489" lon="6.03362">
        <ele>2192.4499511719</ele>
        <time>2017-03-24T11:07:05Z</time>
      </trkpt>
      <trkpt lat="45.22491" lon="6.03367">
        <ele>2193.4499511719</ele>
        <time>2017-03-24T11:07:21Z</time>
      </trkpt>
      <trkpt lat="45.22496" lon="6.03364">
        <ele>2195.4499511719</ele>
        <time>2017-03-24T11:07:34Z</time>
      </trkpt>
      <trkpt lat="45.22498" lon="6.03353">
        <ele>2191.4499511719</ele>
        <time>2017-03-24T11:16:26Z</time>
      </trkpt>
      <trkpt lat="45.22498" lon="6.03343">
        <ele>2190.4499511719</ele>
        <time>2017-03-24T11:16:28Z</time>
      </trkpt>
      <trkpt lat="45.22496" lon="6.03337">
        <ele>2188.4499511719</ele>
        <time>2017-03-24T11:16:32Z</time>
      </trkpt>
      <trkpt lat="45.22492" lon="6.03331">
        <ele>2183.4499511719</ele>
        <time>2017-03-24T11:16:36Z</time>
      </trkpt>
      <trkpt lat="45.22492" lon="6.03324">
        <ele>2180.4499511719</ele>
        <time>2017-03-24T11:16:39Z</time>
      </trkpt>
      <trkpt lat="45.22488" lon="6.03319">
        <ele>2180.4499511719</ele>
        <time>2017-03-24T11:16:41Z</time>
      </trkpt>
      <trkpt lat="45.22486" lon="6.03313">
        <ele>2172.4499511719</ele>
        <time>2017-03-24T11:16:49Z</time>
      </trkpt>
      <trkpt lat="45.22489" lon="6.03308">
        <ele>2169.4499511719</ele>
        <time>2017-03-24T11:16:51Z</time>
      </trkpt>
      <trkpt lat="45.22488" lon="6.03301">
        <ele>2168.4499511719</ele>
        <time>2017-03-24T11:16:53Z</time>
      </trkpt>
      <trkpt lat="45.22487" lon="6.03283">
        <ele>2159.4499511719</ele>
        <time>2017-03-24T11:17:13Z</time>
      </trkpt>
      <trkpt lat="45.22482" lon="6.03274">
        <ele>2154.4499511719</ele>
        <time>2017-03-24T11:17:15Z</time>
      </trkpt>
      <trkpt lat="45.22479" lon="6.03262">
        <ele>2152.4489746094</ele>
        <time>2017-03-24T11:17:17Z</time>
      </trkpt>
      <trkpt lat="45.22476" lon="6.03257">
        <ele>2152.4489746094</ele>
        <time>2017-03-24T11:17:20Z</time>
      </trkpt>
      <trkpt lat="45.22478" lon="6.03251">
        <ele>2146.4489746094</ele>
        <time>2017-03-24T11:17:35Z</time>
      </trkpt>
      <trkpt lat="45.22476" lon="6.03239">
        <ele>2141.4489746094</ele>
        <time>2017-03-24T11:17:38Z</time>
      </trkpt>
      <trkpt lat="45.22473" lon="6.03232">
        <ele>2138.4489746094</ele>
        <time>2017-03-24T11:17:40Z</time>
      </trkpt>
      <trkpt lat="45.22473" lon="6.03221">
        <ele>2135.4489746094</ele>
        <time>2017-03-24T11:17:42Z</time>
      </trkpt>
      <trkpt lat="45.22472" lon="6.03206">
        <ele>2133.4489746094</ele>
        <time>2017-03-24T11:17:44Z</time>
      </trkpt>
      <trkpt lat="45.22475" lon="6.03182">
        <ele>2128.4489746094</ele>
        <time>2017-03-24T11:17:46Z</time>
      </trkpt>
      <trkpt lat="45.22474" lon="6.03168">
        <ele>2126.4489746094</ele>
        <time>2017-03-24T11:17:47Z</time>
      </trkpt>
      <trkpt lat="45.22476" lon="6.03146">
        <ele>2124.4489746094</ele>
        <time>2017-03-24T11:17:49Z</time>
      </trkpt>
      <trkpt lat="45.22478" lon="6.03137">
        <ele>2124.4489746094</ele>
        <time>2017-03-24T11:17:50Z</time>
      </trkpt>
      <trkpt lat="45.22472" lon="6.03137">
        <ele>2121.4489746094</ele>
        <time>2017-03-24T11:17:51Z</time>
      </trkpt>
      <trkpt lat="45.22465" lon="6.03134">
        <ele>2120.4489746094</ele>
        <time>2017-03-24T11:17:53Z</time>
      </trkpt>
      <trkpt lat="45.22462" lon="6.0314">
        <ele>2115.4489746094</ele>
        <time>2017-03-24T11:17:55Z</time>
      </trkpt>
      <trkpt lat="45.22469" lon="6.03136">
        <ele>2117.4489746094</ele>
        <time>2017-03-24T11:17:59Z</time>
      </trkpt>
      <trkpt lat="45.22463" lon="6.03133">
        <ele>2104.4489746094</ele>
        <time>2017-03-24T11:18:22Z</time>
      </trkpt>
      <trkpt lat="45.22455" lon="6.03114">
        <ele>2099.4489746094</ele>
        <time>2017-03-24T11:18:25Z</time>
      </trkpt>
      <trkpt lat="45.22454" lon="6.03103">
        <ele>2094.4489746094</ele>
        <time>2017-03-24T11:18:26Z</time>
      </trkpt>
      <trkpt lat="45.22449" lon="6.03085">
        <ele>2088.4489746094</ele>
        <time>2017-03-24T11:18:28Z</time>
      </trkpt>
      <trkpt lat="45.22437" lon="6.03071">
        <ele>2083.4489746094</ele>
        <time>2017-03-24T11:18:30Z</time>
      </trkpt>
      <trkpt lat="45.22427" lon="6.03059">
        <ele>2077.4489746094</ele>
        <time>2017-03-24T11:18:32Z</time>
      </trkpt>
      <trkpt lat="45.22427" lon="6.0304">
        <ele>2074.4489746094</ele>
        <time>2017-03-24T11:18:34Z</time>
      </trkpt>
      <trkpt lat="45.22425" lon="6.03007">
        <ele>2069.4489746094</ele>
        <time>2017-03-24T11:18:36Z</time>
      </trkpt>
      <trkpt lat="45.22429" lon="6.02994">
        <ele>2067.4489746094</ele>
        <time>2017-03-24T11:18:37Z</time>
      </trkpt>
      <trkpt lat="45.22424" lon="6.02974">
        <ele>2060.4489746094</ele>
        <time>2017-03-24T11:18:39Z</time>
      </trkpt>
      <trkpt lat="45.22418" lon="6.02957">
        <ele>2055.4489746094</ele>
        <time>2017-03-24T11:18:42Z</time>
      </trkpt>
      <trkpt lat="45.22427" lon="6.02946">
        <ele>2051.4489746094</ele>
        <time>2017-03-24T11:18:44Z</time>
      </trkpt>
      <trkpt lat="45.22419" lon="6.02932">
        <ele>2046.4489746094</ele>
        <time>2017-03-24T11:18:47Z</time>
      </trkpt>
      <trkpt lat="45.22414" lon="6.02927">
        <ele>2044.4489746094</ele>
        <time>2017-03-24T11:18:49Z</time>
      </trkpt>
      <trkpt lat="45.22409" lon="6.02926">
        <ele>2040.4489746094</ele>
        <time>2017-03-24T11:18:51Z</time>
      </trkpt>
      <trkpt lat="45.22406" lon="6.02931">
        <ele>2036.4489746094</ele>
        <time>2017-03-24T11:18:53Z</time>
      </trkpt>
      <trkpt lat="45.22399" lon="6.02937">
        <ele>2030.4489746094</ele>
        <time>2017-03-24T11:18:59Z</time>
      </trkpt>
      <trkpt lat="45.22394" lon="6.02938">
        <ele>2026.4489746094</ele>
        <time>2017-03-24T11:19:03Z</time>
      </trkpt>
      <trkpt lat="45.22389" lon="6.02938">
        <ele>2019.4489746094</ele>
        <time>2017-03-24T11:19:23Z</time>
      </trkpt>
      <trkpt lat="45.22384" lon="6.02937">
        <ele>2012.4489746094</ele>
        <time>2017-03-24T11:19:28Z</time>
      </trkpt>
      <trkpt lat="45.22377" lon="6.02932">
        <ele>2011.4489746094</ele>
        <time>2017-03-24T11:19:30Z</time>
      </trkpt>
      <trkpt lat="45.22372" lon="6.02925">
        <ele>2011.4489746094</ele>
        <time>2017-03-24T11:19:32Z</time>
      </trkpt>
      <trkpt lat="45.22368" lon="6.02907">
        <ele>2010.4489746094</ele>
        <time>2017-03-24T11:19:34Z</time>
      </trkpt>
      <trkpt lat="45.22362" lon="6.02894">
        <ele>2009.4489746094</ele>
        <time>2017-03-24T11:19:36Z</time>
      </trkpt>
      <trkpt lat="45.22359" lon="6.02879">
        <ele>2008.4489746094</ele>
        <time>2017-03-24T11:19:38Z</time>
      </trkpt>
      <trkpt lat="45.22365" lon="6.02863">
        <ele>2006.4489746094</ele>
        <time>2017-03-24T11:19:39Z</time>
      </trkpt>
      <trkpt lat="45.22366" lon="6.02853">
        <ele>2004.4489746094</ele>
        <time>2017-03-24T11:19:40Z</time>
      </trkpt>
      <trkpt lat="45.22361" lon="6.02841">
        <ele>1996.4489746094</ele>
        <time>2017-03-24T11:19:42Z</time>
      </trkpt>
      <trkpt lat="45.2236" lon="6.02823">
        <ele>1995.4489746094</ele>
        <time>2017-03-24T11:19:45Z</time>
      </trkpt>
      <trkpt lat="45.22381" lon="6.02823">
        <ele>1992.4489746094</ele>
        <time>2017-03-24T11:19:47Z</time>
      </trkpt>
      <trkpt lat="45.22394" lon="6.02817">
        <ele>1990.4489746094</ele>
        <time>2017-03-24T11:19:49Z</time>
      </trkpt>
      <trkpt lat="45.224" lon="6.02821">
        <ele>1982.4489746094</ele>
        <time>2017-03-24T11:19:52Z</time>
      </trkpt>
      <trkpt lat="45.22405" lon="6.02819">
        <ele>1975.4489746094</ele>
        <time>2017-03-24T11:19:58Z</time>
      </trkpt>
      <trkpt lat="45.22402" lon="6.02811">
        <ele>1964.4489746094</ele>
        <time>2017-03-24T11:20:03Z</time>
      </trkpt>
      <trkpt lat="45.22403" lon="6.02801">
        <ele>1960.4489746094</ele>
        <time>2017-03-24T11:20:05Z</time>
      </trkpt>
      <trkpt lat="45.22396" lon="6.02792">
        <ele>1959.4489746094</ele>
        <time>2017-03-24T11:20:06Z</time>
      </trkpt>
      <trkpt lat="45.22391" lon="6.02775">
        <ele>1956.4489746094</ele>
        <time>2017-03-24T11:20:08Z</time>
      </trkpt>
      <trkpt lat="45.22395" lon="6.02765">
        <ele>1955.4489746094</ele>
        <time>2017-03-24T11:20:09Z</time>
      </trkpt>
      <trkpt lat="45.22391" lon="6.02743">
        <ele>1953.4489746094</ele>
        <time>2017-03-24T11:20:11Z</time>
      </trkpt>
      <trkpt lat="45.22392" lon="6.02726">
        <ele>1951.4489746094</ele>
        <time>2017-03-24T11:20:13Z</time>
      </trkpt>
      <trkpt lat="45.22387" lon="6.02715">
        <ele>1947.4489746094</ele>
        <time>2017-03-24T11:20:15Z</time>
      </trkpt>
      <trkpt lat="45.22386" lon="6.02706">
        <ele>1946.4489746094</ele>
        <time>2017-03-24T11:20:16Z</time>
      </trkpt>
      <trkpt lat="45.22365" lon="6.02679">
        <ele>1941.4479980469</ele>
        <time>2017-03-24T11:20:20Z</time>
      </trkpt>
      <trkpt lat="45.2236" lon="6.0267">
        <ele>1938.4479980469</ele>
        <time>2017-03-24T11:20:22Z</time>
      </trkpt>
      <trkpt lat="45.22347" lon="6.0267">
        <ele>1934.4479980469</ele>
        <time>2017-03-24T11:20:24Z</time>
      </trkpt>
      <trkpt lat="45.22334" lon="6.02658">
        <ele>1931.4479980469</ele>
        <time>2017-03-24T11:20:26Z</time>
      </trkpt>
      <trkpt lat="45.22321" lon="6.02653">
        <ele>1928.4479980469</ele>
        <time>2017-03-24T11:20:28Z</time>
      </trkpt>
      <trkpt lat="45.22314" lon="6.02654">
        <ele>1926.4479980469</ele>
        <time>2017-03-24T11:20:29Z</time>
      </trkpt>
      <trkpt lat="45.22298" lon="6.02652">
        <ele>1922.4479980469</ele>
        <time>2017-03-24T11:20:31Z</time>
      </trkpt>
      <trkpt lat="45.22283" lon="6.02641">
        <ele>1916.4479980469</ele>
        <time>2017-03-24T11:20:33Z</time>
      </trkpt>
      <trkpt lat="45.22271" lon="6.02635">
        <ele>1914.4479980469</ele>
        <time>2017-03-24T11:20:35Z</time>
      </trkpt>
      <trkpt lat="45.22284" lon="6.02631">
        <ele>1903.4479980469</ele>
        <time>2017-03-24T11:20:40Z</time>
      </trkpt>
      <trkpt lat="45.22291" lon="6.02621">
        <ele>1899.4479980469</ele>
        <time>2017-03-24T11:20:43Z</time>
      </trkpt>
      <trkpt lat="45.22297" lon="6.02621">
        <ele>1896.4479980469</ele>
        <time>2017-03-24T11:20:48Z</time>
      </trkpt>
      <trkpt lat="45.22301" lon="6.02616">
        <ele>1893.4479980469</ele>
        <time>2017-03-24T11:21:06Z</time>
      </trkpt>
      <trkpt lat="45.22306" lon="6.02609">
        <ele>1890.4479980469</ele>
        <time>2017-03-24T11:21:07Z</time>
      </trkpt>
      <trkpt lat="45.22305" lon="6.026">
        <ele>1887.4479980469</ele>
        <time>2017-03-24T11:21:08Z</time>
      </trkpt>
      <trkpt lat="45.22301" lon="6.0258">
        <ele>1881.4479980469</ele>
        <time>2017-03-24T11:21:10Z</time>
      </trkpt>
      <trkpt lat="45.22297" lon="6.02553">
        <ele>1875.4479980469</ele>
        <time>2017-03-24T11:21:13Z</time>
      </trkpt>
      <trkpt lat="45.22305" lon="6.02546">
        <ele>1869.4479980469</ele>
        <time>2017-03-24T11:21:14Z</time>
      </trkpt>
      <trkpt lat="45.22307" lon="6.02527">
        <ele>1862.4479980469</ele>
        <time>2017-03-24T11:21:16Z</time>
      </trkpt>
      <trkpt lat="45.22311" lon="6.02512">
        <ele>1859.4479980469</ele>
        <time>2017-03-24T11:21:18Z</time>
      </trkpt>
      <trkpt lat="45.22308" lon="6.02498">
        <ele>1855.4479980469</ele>
        <time>2017-03-24T11:21:21Z</time>
      </trkpt>
      <trkpt lat="45.22306" lon="6.0249">
        <ele>1852.4479980469</ele>
        <time>2017-03-24T11:21:22Z</time>
      </trkpt>
      <trkpt lat="45.22297" lon="6.02473">
        <ele>1849.4479980469</ele>
        <time>2017-03-24T11:21:24Z</time>
      </trkpt>
      <trkpt lat="45.22298" lon="6.0246">
        <ele>1842.4479980469</ele>
        <time>2017-03-24T11:21:25Z</time>
      </trkpt>
      <trkpt lat="45.22309" lon="6.02449">
        <ele>1836.4479980469</ele>
        <time>2017-03-24T11:21:27Z</time>
      </trkpt>
      <trkpt lat="45.22314" lon="6.0245">
        <ele>1835.4479980469</ele>
        <time>2017-03-24T11:21:28Z</time>
      </trkpt>
      <trkpt lat="45.22322" lon="6.02442">
        <ele>1830.4479980469</ele>
        <time>2017-03-24T11:21:30Z</time>
      </trkpt>
      <trkpt lat="45.2233" lon="6.0243">
        <ele>1825.4479980469</ele>
        <time>2017-03-24T11:21:32Z</time>
      </trkpt>
      <trkpt lat="45.22338" lon="6.02413">
        <ele>1822.4479980469</ele>
        <time>2017-03-24T11:21:34Z</time>
      </trkpt>
      <trkpt lat="45.22335" lon="6.02407">
        <ele>1807.4479980469</ele>
        <time>2017-03-24T11:21:39Z</time>
      </trkpt>
      <trkpt lat="45.22331" lon="6.02403">
        <ele>1802.4479980469</ele>
        <time>2017-03-24T11:21:41Z</time>
      </trkpt>
      <trkpt lat="45.22321" lon="6.02388">
        <ele>1796.4479980469</ele>
        <time>2017-03-24T11:21:44Z</time>
      </trkpt>
      <trkpt lat="45.22315" lon="6.0239">
        <ele>1794.4479980469</ele>
        <time>2017-03-24T11:21:45Z</time>
      </trkpt>
      <trkpt lat="45.22307" lon="6.02378">
        <ele>1790.4479980469</ele>
        <time>2017-03-24T11:21:47Z</time>
      </trkpt>
      <trkpt lat="45.22302" lon="6.02361">
        <ele>1787.4479980469</ele>
        <time>2017-03-24T11:21:49Z</time>
      </trkpt>
      <trkpt lat="45.22292" lon="6.02354">
        <ele>1783.4479980469</ele>
        <time>2017-03-24T11:21:51Z</time>
      </trkpt>
      <trkpt lat="45.22289" lon="6.0236">
        <ele>1782.4479980469</ele>
        <time>2017-03-24T11:21:52Z</time>
      </trkpt>
      <trkpt lat="45.22279" lon="6.02359">
        <ele>1774.4479980469</ele>
        <time>2017-03-24T11:22:00Z</time>
      </trkpt>
      <trkpt lat="45.22273" lon="6.02362">
        <ele>1772.4479980469</ele>
        <time>2017-03-24T11:22:51Z</time>
      </trkpt>
      <trkpt lat="45.22271" lon="6.0237">
        <ele>1769.4479980469</ele>
        <time>2017-03-24T11:22:53Z</time>
      </trkpt>
      <trkpt lat="45.22264" lon="6.02377">
        <ele>1767.4479980469</ele>
        <time>2017-03-24T11:22:54Z</time>
      </trkpt>
      <trkpt lat="45.22259" lon="6.0238">
        <ele>1769.4479980469</ele>
        <time>2017-03-24T11:22:55Z</time>
      </trkpt>
      <trkpt lat="45.22251" lon="6.02379">
        <ele>1767.4479980469</ele>
        <time>2017-03-24T11:22:57Z</time>
      </trkpt>
      <trkpt lat="45.22245" lon="6.02373">
        <ele>1761.4479980469</ele>
        <time>2017-03-24T11:22:59Z</time>
      </trkpt>
      <trkpt lat="45.22247" lon="6.02367">
        <ele>1760.4479980469</ele>
        <time>2017-03-24T11:23:00Z</time>
      </trkpt>
      <trkpt lat="45.22238" lon="6.02357">
        <ele>1757.4479980469</ele>
        <time>2017-03-24T11:23:02Z</time>
      </trkpt>
      <trkpt lat="45.22239" lon="6.02345">
        <ele>1755.4479980469</ele>
        <time>2017-03-24T11:23:03Z</time>
      </trkpt>
      <trkpt lat="45.2224" lon="6.02332">
        <ele>1750.4479980469</ele>
        <time>2017-03-24T11:23:05Z</time>
      </trkpt>
      <trkpt lat="45.22238" lon="6.02325">
        <ele>1748.4479980469</ele>
        <time>2017-03-24T11:23:06Z</time>
      </trkpt>
      <trkpt lat="45.22229" lon="6.02312">
        <ele>1743.4479980469</ele>
        <time>2017-03-24T11:23:09Z</time>
      </trkpt>
      <trkpt lat="45.22227" lon="6.02305">
        <ele>1744.4479980469</ele>
        <time>2017-03-24T11:23:11Z</time>
      </trkpt>
      <trkpt lat="45.22225" lon="6.02298">
        <ele>1742.4479980469</ele>
        <time>2017-03-24T11:23:13Z</time>
      </trkpt>
      <trkpt lat="45.22224" lon="6.02291">
        <ele>1740.4479980469</ele>
        <time>2017-03-24T11:23:15Z</time>
      </trkpt>
      <trkpt lat="45.22224" lon="6.02284">
        <ele>1740.4479980469</ele>
        <time>2017-03-24T11:23:24Z</time>
      </trkpt>
      <trkpt lat="45.22226" lon="6.02274">
        <ele>1739.4479980469</ele>
        <time>2017-03-24T11:23:40Z</time>
      </trkpt>
      <trkpt lat="45.22228" lon="6.02266">
        <ele>1739.4479980469</ele>
        <time>2017-03-24T11:23:43Z</time>
      </trkpt>
      <trkpt lat="45.22229" lon="6.0226">
        <ele>1739.4479980469</ele>
        <time>2017-03-24T11:23:45Z</time>
      </trkpt>
      <trkpt lat="45.22229" lon="6.02253">
        <ele>1740.4479980469</ele>
        <time>2017-03-24T11:23:47Z</time>
      </trkpt>
      <trkpt lat="45.22229" lon="6.02244">
        <ele>1737.4479980469</ele>
        <time>2017-03-24T11:23:50Z</time>
      </trkpt>
      <trkpt lat="45.22229" lon="6.02237">
        <ele>1737.4479980469</ele>
        <time>2017-03-24T11:23:52Z</time>
      </trkpt>
      <trkpt lat="45.22228" lon="6.02228">
        <ele>1736.4479980469</ele>
        <time>2017-03-24T11:23:55Z</time>
      </trkpt>
      <trkpt lat="45.22228" lon="6.02222">
        <ele>1736.4479980469</ele>
        <time>2017-03-24T11:23:57Z</time>
      </trkpt>
      <trkpt lat="45.22226" lon="6.02216">
        <ele>1736.4479980469</ele>
        <time>2017-03-24T11:23:59Z</time>
      </trkpt>
      <trkpt lat="45.22226" lon="6.02209">
        <ele>1733.4479980469</ele>
        <time>2017-03-24T11:24:01Z</time>
      </trkpt>
      <trkpt lat="45.22226" lon="6.02203">
        <ele>1732.4479980469</ele>
        <time>2017-03-24T11:24:03Z</time>
      </trkpt>
      <trkpt lat="45.22226" lon="6.02193">
        <ele>1731.4479980469</ele>
        <time>2017-03-24T11:24:05Z</time>
      </trkpt>
      <trkpt lat="45.22229" lon="6.0218">
        <ele>1731.4470214844</ele>
        <time>2017-03-24T11:24:07Z</time>
      </trkpt>
      <trkpt lat="45.22234" lon="6.02171">
        <ele>1729.4470214844</ele>
        <time>2017-03-24T11:24:09Z</time>
      </trkpt>
      <trkpt lat="45.22239" lon="6.02167">
        <ele>1727.4470214844</ele>
        <time>2017-03-24T11:24:11Z</time>
      </trkpt>
      <trkpt lat="45.22241" lon="6.02156">
        <ele>1727.4470214844</ele>
        <time>2017-03-24T11:24:16Z</time>
      </trkpt>
      <trkpt lat="45.22244" lon="6.02148">
        <ele>1726.4470214844</ele>
        <time>2017-03-24T11:24:17Z</time>
      </trkpt>
      <trkpt lat="45.22247" lon="6.0213">
        <ele>1723.4470214844</ele>
        <time>2017-03-24T11:24:19Z</time>
      </trkpt>
      <trkpt lat="45.22249" lon="6.02114">
        <ele>1722.4470214844</ele>
        <time>2017-03-24T11:24:21Z</time>
      </trkpt>
      <trkpt lat="45.2225" lon="6.02108">
        <ele>1721.4470214844</ele>
        <time>2017-03-24T11:24:23Z</time>
      </trkpt>
      <trkpt lat="45.22253" lon="6.02096">
        <ele>1721.4470214844</ele>
        <time>2017-03-24T11:24:25Z</time>
      </trkpt>
      <trkpt lat="45.22251" lon="6.02077">
        <ele>1717.4470214844</ele>
        <time>2017-03-24T11:24:28Z</time>
      </trkpt>
      <trkpt lat="45.22249" lon="6.0206">
        <ele>1714.4470214844</ele>
        <time>2017-03-24T11:24:30Z</time>
      </trkpt>
      <trkpt lat="45.22244" lon="6.02044">
        <ele>1713.4470214844</ele>
        <time>2017-03-24T11:24:32Z</time>
      </trkpt>
      <trkpt lat="45.22244" lon="6.02026">
        <ele>1711.4470214844</ele>
        <time>2017-03-24T11:24:34Z</time>
      </trkpt>
      <trkpt lat="45.22241" lon="6.02014">
        <ele>1710.4470214844</ele>
        <time>2017-03-24T11:24:36Z</time>
      </trkpt>
      <trkpt lat="45.22242" lon="6.02">
        <ele>1708.4470214844</ele>
        <time>2017-03-24T11:24:38Z</time>
      </trkpt>
      <trkpt lat="45.22244" lon="6.0198">
        <ele>1707.4470214844</ele>
        <time>2017-03-24T11:24:40Z</time>
      </trkpt>
      <trkpt lat="45.22249" lon="6.0196">
        <ele>1707.4470214844</ele>
        <time>2017-03-24T11:24:42Z</time>
      </trkpt>
      <trkpt lat="45.2225" lon="6.01953">
        <ele>1707.4470214844</ele>
        <time>2017-03-24T11:24:44Z</time>
      </trkpt>
      <trkpt lat="45.22251" lon="6.01943">
        <ele>1707.4470214844</ele>
        <time>2017-03-24T11:24:46Z</time>
      </trkpt>
      <trkpt lat="45.22249" lon="6.01938">
        <ele>1708.4470214844</ele>
        <time>2017-03-24T11:24:48Z</time>
      </trkpt>
      <trkpt lat="45.22249" lon="6.01928">
        <ele>1706.4470214844</ele>
        <time>2017-03-24T11:24:51Z</time>
      </trkpt>
      <trkpt lat="45.22246" lon="6.01918">
        <ele>1702.4470214844</ele>
        <time>2017-03-24T11:24:54Z</time>
      </trkpt>
      <trkpt lat="45.22248" lon="6.01909">
        <ele>1700.4470214844</ele>
        <time>2017-03-24T11:24:56Z</time>
      </trkpt>
      <trkpt lat="45.2225" lon="6.01902">
        <ele>1700.4470214844</ele>
        <time>2017-03-24T11:24:57Z</time>
      </trkpt>
      <trkpt lat="45.22253" lon="6.01888">
        <ele>1699.4470214844</ele>
        <time>2017-03-24T11:24:59Z</time>
      </trkpt>
      <trkpt lat="45.22255" lon="6.01872">
        <ele>1699.4470214844</ele>
        <time>2017-03-24T11:25:02Z</time>
      </trkpt>
      <trkpt lat="45.22257" lon="6.01862">
        <ele>1699.4470214844</ele>
        <time>2017-03-24T11:25:04Z</time>
      </trkpt>
      <trkpt lat="45.22257" lon="6.01855">
        <ele>1695.4470214844</ele>
        <time>2017-03-24T11:25:07Z</time>
      </trkpt>
      <trkpt lat="45.2226" lon="6.01849">
        <ele>1695.4470214844</ele>
        <time>2017-03-24T11:25:09Z</time>
      </trkpt>
      <trkpt lat="45.22257" lon="6.01838">
        <ele>1694.4470214844</ele>
        <time>2017-03-24T11:25:13Z</time>
      </trkpt>
      <trkpt lat="45.22256" lon="6.01821">
        <ele>1694.4470214844</ele>
        <time>2017-03-24T11:25:15Z</time>
      </trkpt>
      <trkpt lat="45.22261" lon="6.01814">
        <ele>1693.4470214844</ele>
        <time>2017-03-24T11:25:17Z</time>
      </trkpt>
      <trkpt lat="45.22266" lon="6.01811">
        <ele>1693.4470214844</ele>
        <time>2017-03-24T11:25:20Z</time>
      </trkpt>
      <trkpt lat="45.22266" lon="6.018">
        <ele>1692.4470214844</ele>
        <time>2017-03-24T11:25:22Z</time>
      </trkpt>
      <trkpt lat="45.22264" lon="6.01789">
        <ele>1691.4470214844</ele>
        <time>2017-03-24T11:25:24Z</time>
      </trkpt>
      <trkpt lat="45.22258" lon="6.01782">
        <ele>1689.4470214844</ele>
        <time>2017-03-24T11:25:26Z</time>
      </trkpt>
      <trkpt lat="45.22258" lon="6.01767">
        <ele>1683.4470214844</ele>
        <time>2017-03-24T11:25:28Z</time>
      </trkpt>
      <trkpt lat="45.22262" lon="6.01744">
        <ele>1681.4470214844</ele>
        <time>2017-03-24T11:25:30Z</time>
      </trkpt>
      <trkpt lat="45.22262" lon="6.01725">
        <ele>1681.4470214844</ele>
        <time>2017-03-24T11:25:32Z</time>
      </trkpt>
      <trkpt lat="45.22262" lon="6.01717">
        <ele>1679.4470214844</ele>
        <time>2017-03-24T11:25:34Z</time>
      </trkpt>
      <trkpt lat="45.22261" lon="6.01709">
        <ele>1680.4470214844</ele>
        <time>2017-03-24T11:25:36Z</time>
      </trkpt>
      <trkpt lat="45.22261" lon="6.01703">
        <ele>1681.4470214844</ele>
        <time>2017-03-24T11:25:38Z</time>
      </trkpt>
      <trkpt lat="45.22261" lon="6.01695">
        <ele>1680.4470214844</ele>
        <time>2017-03-24T11:25:43Z</time>
      </trkpt>
      <trkpt lat="45.22261" lon="6.01689">
        <ele>1678.4470214844</ele>
        <time>2017-03-24T11:25:52Z</time>
      </trkpt>
      <trkpt lat="45.22263" lon="6.01682">
        <ele>1675.4470214844</ele>
        <time>2017-03-24T11:25:56Z</time>
      </trkpt>
      <trkpt lat="45.22262" lon="6.01671">
        <ele>1673.4470214844</ele>
        <time>2017-03-24T11:26:01Z</time>
      </trkpt>
      <trkpt lat="45.22262" lon="6.01665">
        <ele>1674.4470214844</ele>
        <time>2017-03-24T11:26:03Z</time>
      </trkpt>
      <trkpt lat="45.22261" lon="6.01657">
        <ele>1674.4470214844</ele>
        <time>2017-03-24T11:26:06Z</time>
      </trkpt>
      <trkpt lat="45.22261" lon="6.0165">
        <ele>1675.4470214844</ele>
        <time>2017-03-24T11:26:09Z</time>
      </trkpt>
      <trkpt lat="45.22261" lon="6.01643">
        <ele>1676.4470214844</ele>
        <time>2017-03-24T11:26:14Z</time>
      </trkpt>
      <trkpt lat="45.22262" lon="6.01636">
        <ele>1677.4470214844</ele>
        <time>2017-03-24T11:26:18Z</time>
      </trkpt>
      <trkpt lat="45.22262" lon="6.01628">
        <ele>1676.4470214844</ele>
        <time>2017-03-24T11:26:23Z</time>
      </trkpt>
      <trkpt lat="45.22259" lon="6.01621">
        <ele>1675.4470214844</ele>
        <time>2017-03-24T11:26:29Z</time>
      </trkpt>
      <trkpt lat="45.2226" lon="6.01614">
        <ele>1674.4470214844</ele>
        <time>2017-03-24T11:26:35Z</time>
      </trkpt>
      <trkpt lat="45.22261" lon="6.01607">
        <ele>1676.4470214844</ele>
        <time>2017-03-24T11:26:49Z</time>
      </trkpt>
      <trkpt lat="45.2226" lon="6.01599">
        <ele>1677.4470214844</ele>
        <time>2017-03-24T11:26:53Z</time>
      </trkpt>
      <trkpt lat="45.22257" lon="6.01591">
        <ele>1677.4470214844</ele>
        <time>2017-03-24T11:26:56Z</time>
      </trkpt>
      <trkpt lat="45.22257" lon="6.01583">
        <ele>1675.4470214844</ele>
        <time>2017-03-24T11:26:59Z</time>
      </trkpt>
      <trkpt lat="45.22256" lon="6.01574">
        <ele>1675.4470214844</ele>
        <time>2017-03-24T11:27:02Z</time>
      </trkpt>
      <trkpt lat="45.22256" lon="6.01567">
        <ele>1674.4470214844</ele>
        <time>2017-03-24T11:27:06Z</time>
      </trkpt>
      <trkpt lat="45.22254" lon="6.01559">
        <ele>1675.4470214844</ele>
        <time>2017-03-24T11:27:09Z</time>
      </trkpt>
      <trkpt lat="45.22252" lon="6.01552">
        <ele>1676.4470214844</ele>
        <time>2017-03-24T11:27:39Z</time>
      </trkpt>
      <trkpt lat="45.22249" lon="6.01547">
        <ele>1677.4470214844</ele>
        <time>2017-03-24T11:27:43Z</time>
      </trkpt>
      <trkpt lat="45.22247" lon="6.01541">
        <ele>1678.4470214844</ele>
        <time>2017-03-24T11:27:47Z</time>
      </trkpt>
      <trkpt lat="45.22243" lon="6.01536">
        <ele>1680.4470214844</ele>
        <time>2017-03-24T11:27:51Z</time>
      </trkpt>
      <trkpt lat="45.22246" lon="6.01528">
        <ele>1680.4470214844</ele>
        <time>2017-03-24T11:27:55Z</time>
      </trkpt>
      <trkpt lat="45.22248" lon="6.01522">
        <ele>1678.4470214844</ele>
        <time>2017-03-24T11:27:59Z</time>
      </trkpt>
      <trkpt lat="45.22245" lon="6.01517">
        <ele>1677.4470214844</ele>
        <time>2017-03-24T11:28:07Z</time>
      </trkpt>
      <trkpt lat="45.22244" lon="6.01509">
        <ele>1679.4470214844</ele>
        <time>2017-03-24T11:28:23Z</time>
      </trkpt>
      <trkpt lat="45.22242" lon="6.01503">
        <ele>1675.4470214844</ele>
        <time>2017-03-24T11:28:54Z</time>
      </trkpt>
      <trkpt lat="45.22241" lon="6.01496">
        <ele>1674.4470214844</ele>
        <time>2017-03-24T11:28:57Z</time>
      </trkpt>
      <trkpt lat="45.2224" lon="6.0149">
        <ele>1673.4470214844</ele>
        <time>2017-03-24T11:29:01Z</time>
      </trkpt>
      <trkpt lat="45.22239" lon="6.01482">
        <ele>1673.4470214844</ele>
        <time>2017-03-24T11:29:05Z</time>
      </trkpt>
      <trkpt lat="45.22238" lon="6.01472">
        <ele>1672.4470214844</ele>
        <time>2017-03-24T11:29:08Z</time>
      </trkpt>
      <trkpt lat="45.22238" lon="6.01465">
        <ele>1672.4470214844</ele>
        <time>2017-03-24T11:29:10Z</time>
      </trkpt>
      <trkpt lat="45.22236" lon="6.01459">
        <ele>1669.4470214844</ele>
        <time>2017-03-24T11:29:12Z</time>
      </trkpt>
      <trkpt lat="45.22232" lon="6.01442">
        <ele>1663.4460449219</ele>
        <time>2017-03-24T11:29:17Z</time>
      </trkpt>
      <trkpt lat="45.2223" lon="6.01436">
        <ele>1664.4460449219</ele>
        <time>2017-03-24T11:29:19Z</time>
      </trkpt>
      <trkpt lat="45.22228" lon="6.01428">
        <ele>1663.4460449219</ele>
        <time>2017-03-24T11:29:22Z</time>
      </trkpt>
      <trkpt lat="45.22229" lon="6.0142">
        <ele>1663.4460449219</ele>
        <time>2017-03-24T11:29:24Z</time>
      </trkpt>
      <trkpt lat="45.2223" lon="6.01412">
        <ele>1662.4460449219</ele>
        <time>2017-03-24T11:29:26Z</time>
      </trkpt>
      <trkpt lat="45.22234" lon="6.01401">
        <ele>1663.4460449219</ele>
        <time>2017-03-24T11:29:28Z</time>
      </trkpt>
      <trkpt lat="45.2224" lon="6.01392">
        <ele>1661.4460449219</ele>
        <time>2017-03-24T11:29:30Z</time>
      </trkpt>
      <trkpt lat="45.22245" lon="6.01385">
        <ele>1661.4460449219</ele>
        <time>2017-03-24T11:29:32Z</time>
      </trkpt>
      <trkpt lat="45.22249" lon="6.0138">
        <ele>1662.4460449219</ele>
        <time>2017-03-24T11:29:33Z</time>
      </trkpt>
      <trkpt lat="45.22257" lon="6.01372">
        <ele>1662.4460449219</ele>
        <time>2017-03-24T11:29:35Z</time>
      </trkpt>
      <trkpt lat="45.22262" lon="6.01366">
        <ele>1661.4460449219</ele>
        <time>2017-03-24T11:29:38Z</time>
      </trkpt>
      <trkpt lat="45.22267" lon="6.01366">
        <ele>1663.4460449219</ele>
        <time>2017-03-24T11:29:43Z</time>
      </trkpt>
      <trkpt lat="45.22269" lon="6.0136">
        <ele>1663.4460449219</ele>
        <time>2017-03-24T11:29:51Z</time>
      </trkpt>
      <trkpt lat="45.22268" lon="6.01353">
        <ele>1662.4460449219</ele>
        <time>2017-03-24T11:30:04Z</time>
      </trkpt>
      <trkpt lat="45.2227" lon="6.01346">
        <ele>1660.4460449219</ele>
        <time>2017-03-24T11:30:07Z</time>
      </trkpt>
      <trkpt lat="45.22276" lon="6.01341">
        <ele>1660.4460449219</ele>
        <time>2017-03-24T11:30:10Z</time>
      </trkpt>
      <trkpt lat="45.22278" lon="6.01332">
        <ele>1658.4460449219</ele>
        <time>2017-03-24T11:30:13Z</time>
      </trkpt>
      <trkpt lat="45.22278" lon="6.01324">
        <ele>1659.4460449219</ele>
        <time>2017-03-24T11:30:15Z</time>
      </trkpt>
      <trkpt lat="45.2228" lon="6.01318">
        <ele>1660.4460449219</ele>
        <time>2017-03-24T11:30:23Z</time>
      </trkpt>
      <trkpt lat="45.22274" lon="6.01312">
        <ele>1661.4460449219</ele>
        <time>2017-03-24T11:30:38Z</time>
      </trkpt>
      <trkpt lat="45.22258" lon="6.01308">
        <ele>1661.4460449219</ele>
        <time>2017-03-24T11:30:40Z</time>
      </trkpt>
      <trkpt lat="45.22249" lon="6.01297">
        <ele>1663.4460449219</ele>
        <time>2017-03-24T11:30:42Z</time>
      </trkpt>
      <trkpt lat="45.22243" lon="6.01289">
        <ele>1661.4460449219</ele>
        <time>2017-03-24T11:30:44Z</time>
      </trkpt>
      <trkpt lat="45.2224" lon="6.01271">
        <ele>1659.4460449219</ele>
        <time>2017-03-24T11:30:47Z</time>
      </trkpt>
      <trkpt lat="45.22237" lon="6.01265">
        <ele>1660.4460449219</ele>
        <time>2017-03-24T11:30:48Z</time>
      </trkpt>
      <trkpt lat="45.22238" lon="6.01255">
        <ele>1655.4460449219</ele>
        <time>2017-03-24T11:30:50Z</time>
      </trkpt>
      <trkpt lat="45.22241" lon="6.01243">
        <ele>1653.4460449219</ele>
        <time>2017-03-24T11:30:52Z</time>
      </trkpt>
      <trkpt lat="45.2224" lon="6.01232">
        <ele>1650.4460449219</ele>
        <time>2017-03-24T11:30:54Z</time>
      </trkpt>
      <trkpt lat="45.22242" lon="6.01223">
        <ele>1649.4460449219</ele>
        <time>2017-03-24T11:30:56Z</time>
      </trkpt>
      <trkpt lat="45.22246" lon="6.01218">
        <ele>1648.4460449219</ele>
        <time>2017-03-24T11:30:57Z</time>
      </trkpt>
      <trkpt lat="45.22242" lon="6.01216">
        <ele>1646.4460449219</ele>
        <time>2017-03-24T11:30:59Z</time>
      </trkpt>
      <trkpt lat="45.22241" lon="6.01209">
        <ele>1646.4460449219</ele>
        <time>2017-03-24T11:31:03Z</time>
      </trkpt>
      <trkpt lat="45.22238" lon="6.01204">
        <ele>1636.4460449219</ele>
        <time>2017-03-24T11:31:12Z</time>
      </trkpt>
      <trkpt lat="45.22239" lon="6.01197">
        <ele>1635.4460449219</ele>
        <time>2017-03-24T11:31:14Z</time>
      </trkpt>
      <trkpt lat="45.22242" lon="6.01186">
        <ele>1635.4460449219</ele>
        <time>2017-03-24T11:31:15Z</time>
      </trkpt>
      <trkpt lat="45.22241" lon="6.01166">
        <ele>1637.4460449219</ele>
        <time>2017-03-24T11:31:17Z</time>
      </trkpt>
      <trkpt lat="45.22234" lon="6.01155">
        <ele>1635.4460449219</ele>
        <time>2017-03-24T11:31:19Z</time>
      </trkpt>
      <trkpt lat="45.2223" lon="6.01149">
        <ele>1629.4460449219</ele>
        <time>2017-03-24T11:31:21Z</time>
      </trkpt>
      <trkpt lat="45.22233" lon="6.01129">
        <ele>1627.4460449219</ele>
        <time>2017-03-24T11:31:24Z</time>
      </trkpt>
      <trkpt lat="45.22233" lon="6.01114">
        <ele>1625.4460449219</ele>
        <time>2017-03-24T11:31:26Z</time>
      </trkpt>
      <trkpt lat="45.2223" lon="6.01097">
        <ele>1624.4460449219</ele>
        <time>2017-03-24T11:31:28Z</time>
      </trkpt>
      <trkpt lat="45.22227" lon="6.01077">
        <ele>1623.4460449219</ele>
        <time>2017-03-24T11:31:30Z</time>
      </trkpt>
      <trkpt lat="45.22227" lon="6.01068">
        <ele>1616.4460449219</ele>
        <time>2017-03-24T11:31:32Z</time>
      </trkpt>
      <trkpt lat="45.22227" lon="6.01061">
        <ele>1615.4460449219</ele>
        <time>2017-03-24T11:31:33Z</time>
      </trkpt>
      <trkpt lat="45.22227" lon="6.01044">
        <ele>1612.4460449219</ele>
        <time>2017-03-24T11:31:35Z</time>
      </trkpt>
      <trkpt lat="45.22229" lon="6.01027">
        <ele>1610.4460449219</ele>
        <time>2017-03-24T11:31:37Z</time>
      </trkpt>
      <trkpt lat="45.22231" lon="6.01007">
        <ele>1607.4460449219</ele>
        <time>2017-03-24T11:31:39Z</time>
      </trkpt>
      <trkpt lat="45.22234" lon="6.00991">
        <ele>1602.4460449219</ele>
        <time>2017-03-24T11:31:43Z</time>
      </trkpt>
      <trkpt lat="45.22233" lon="6.00984">
        <ele>1600.4460449219</ele>
        <time>2017-03-24T11:31:46Z</time>
      </trkpt>
      <trkpt lat="45.2223" lon="6.00976">
        <ele>1601.4460449219</ele>
        <time>2017-03-24T11:31:48Z</time>
      </trkpt>
      <trkpt lat="45.22229" lon="6.0097">
        <ele>1600.4460449219</ele>
        <time>2017-03-24T11:31:51Z</time>
      </trkpt>
      <trkpt lat="45.22231" lon="6.00959">
        <ele>1598.4460449219</ele>
        <time>2017-03-24T11:31:53Z</time>
      </trkpt>
      <trkpt lat="45.22232" lon="6.0095">
        <ele>1595.4460449219</ele>
        <time>2017-03-24T11:31:55Z</time>
      </trkpt>
      <trkpt lat="45.22233" lon="6.00943">
        <ele>1592.4460449219</ele>
        <time>2017-03-24T11:31:57Z</time>
      </trkpt>
      <trkpt lat="45.2223" lon="6.00925">
        <ele>1591.4460449219</ele>
        <time>2017-03-24T11:32:00Z</time>
      </trkpt>
      <trkpt lat="45.22236" lon="6.00928">
        <ele>1587.4460449219</ele>
        <time>2017-03-24T11:32:04Z</time>
      </trkpt>
      <trkpt lat="45.22238" lon="6.00919">
        <ele>1582.4460449219</ele>
        <time>2017-03-24T11:32:08Z</time>
      </trkpt>
      <trkpt lat="45.22235" lon="6.00904">
        <ele>1581.4460449219</ele>
        <time>2017-03-24T11:32:10Z</time>
      </trkpt>
      <trkpt lat="45.22239" lon="6.00884">
        <ele>1576.4460449219</ele>
        <time>2017-03-24T11:32:12Z</time>
      </trkpt>
      <trkpt lat="45.22236" lon="6.0087">
        <ele>1572.4460449219</ele>
        <time>2017-03-24T11:32:14Z</time>
      </trkpt>
      <trkpt lat="45.22231" lon="6.00857">
        <ele>1572.4460449219</ele>
        <time>2017-03-24T11:32:16Z</time>
      </trkpt>
      <trkpt lat="45.22224" lon="6.00841">
        <ele>1570.4460449219</ele>
        <time>2017-03-24T11:32:19Z</time>
      </trkpt>
      <trkpt lat="45.22219" lon="6.0083">
        <ele>1565.4460449219</ele>
        <time>2017-03-24T11:32:21Z</time>
      </trkpt>
      <trkpt lat="45.22208" lon="6.00813">
        <ele>1560.4460449219</ele>
        <time>2017-03-24T11:32:24Z</time>
      </trkpt>
      <trkpt lat="45.22203" lon="6.00799">
        <ele>1559.4460449219</ele>
        <time>2017-03-24T11:32:26Z</time>
      </trkpt>
      <trkpt lat="45.22199" lon="6.00781">
        <ele>1554.4449462891</ele>
        <time>2017-03-24T11:32:28Z</time>
      </trkpt>
      <trkpt lat="45.22196" lon="6.00767">
        <ele>1554.4449462891</ele>
        <time>2017-03-24T11:32:30Z</time>
      </trkpt>
      <trkpt lat="45.22196" lon="6.00758">
        <ele>1549.4449462891</ele>
        <time>2017-03-24T11:32:39Z</time>
      </trkpt>
      <trkpt lat="45.22196" lon="6.00744">
        <ele>1546.4449462891</ele>
        <time>2017-03-24T11:32:41Z</time>
      </trkpt>
      <trkpt lat="45.22194" lon="6.00729">
        <ele>1545.4449462891</ele>
        <time>2017-03-24T11:32:43Z</time>
      </trkpt>
      <trkpt lat="45.22203" lon="6.0073">
        <ele>1539.4449462891</ele>
        <time>2017-03-24T11:32:49Z</time>
      </trkpt>
      <trkpt lat="45.22204" lon="6.0072">
        <ele>1537.4449462891</ele>
        <time>2017-03-24T11:32:52Z</time>
      </trkpt>
      <trkpt lat="45.2221" lon="6.00714">
        <ele>1536.4449462891</ele>
        <time>2017-03-24T11:32:53Z</time>
      </trkpt>
      <trkpt lat="45.2221" lon="6.00706">
        <ele>1535.4449462891</ele>
        <time>2017-03-24T11:32:54Z</time>
      </trkpt>
      <trkpt lat="45.22209" lon="6.00698">
        <ele>1533.4449462891</ele>
        <time>2017-03-24T11:32:55Z</time>
      </trkpt>
      <trkpt lat="45.2221" lon="6.00687">
        <ele>1532.4449462891</ele>
        <time>2017-03-24T11:32:57Z</time>
      </trkpt>
      <trkpt lat="45.22213" lon="6.00682">
        <ele>1532.4449462891</ele>
        <time>2017-03-24T11:32:59Z</time>
      </trkpt>
      <trkpt lat="45.22213" lon="6.00674">
        <ele>1531.4449462891</ele>
        <time>2017-03-24T11:33:01Z</time>
      </trkpt>
      <trkpt lat="45.22209" lon="6.0067">
        <ele>1530.4449462891</ele>
        <time>2017-03-24T11:33:04Z</time>
      </trkpt>
      <trkpt lat="45.22206" lon="6.00664">
        <ele>1529.4449462891</ele>
        <time>2017-03-24T11:33:07Z</time>
      </trkpt>
      <trkpt lat="45.22205" lon="6.00656">
        <ele>1524.4449462891</ele>
        <time>2017-03-24T11:33:43Z</time>
      </trkpt>
      <trkpt lat="45.22207" lon="6.00649">
        <ele>1525.4449462891</ele>
        <time>2017-03-24T11:33:50Z</time>
      </trkpt>
      <trkpt lat="45.2221" lon="6.00644">
        <ele>1520.4449462891</ele>
        <time>2017-03-24T11:34:06Z</time>
      </trkpt>
      <trkpt lat="45.22214" lon="6.00637">
        <ele>1519.4449462891</ele>
        <time>2017-03-24T11:34:09Z</time>
      </trkpt>
      <trkpt lat="45.22217" lon="6.00629">
        <ele>1517.4449462891</ele>
        <time>2017-03-24T11:34:12Z</time>
      </trkpt>
      <trkpt lat="45.22223" lon="6.00617">
        <ele>1518.4449462891</ele>
        <time>2017-03-24T11:34:16Z</time>
      </trkpt>
      <trkpt lat="45.22226" lon="6.00609">
        <ele>1518.4449462891</ele>
        <time>2017-03-24T11:34:18Z</time>
      </trkpt>
      <trkpt lat="45.22225" lon="6.00602">
        <ele>1515.4449462891</ele>
        <time>2017-03-24T11:34:21Z</time>
      </trkpt>
      <trkpt lat="45.22222" lon="6.00597">
        <ele>1516.4449462891</ele>
        <time>2017-03-24T11:34:23Z</time>
      </trkpt>
      <trkpt lat="45.22216" lon="6.00591">
        <ele>1513.4449462891</ele>
        <time>2017-03-24T11:34:25Z</time>
      </trkpt>
      <trkpt lat="45.22217" lon="6.0058">
        <ele>1512.4449462891</ele>
        <time>2017-03-24T11:34:27Z</time>
      </trkpt>
      <trkpt lat="45.22221" lon="6.00571">
        <ele>1511.4449462891</ele>
        <time>2017-03-24T11:34:29Z</time>
      </trkpt>
      <trkpt lat="45.22227" lon="6.00571">
        <ele>1505.4449462891</ele>
        <time>2017-03-24T11:34:34Z</time>
      </trkpt>
      <trkpt lat="45.22227" lon="6.00563">
        <ele>1503.4449462891</ele>
        <time>2017-03-24T11:34:36Z</time>
      </trkpt>
      <trkpt lat="45.22227" lon="6.00556">
        <ele>1502.4449462891</ele>
        <time>2017-03-24T11:34:38Z</time>
      </trkpt>
      <trkpt lat="45.22229" lon="6.00548">
        <ele>1501.4449462891</ele>
        <time>2017-03-24T11:34:40Z</time>
      </trkpt>
      <trkpt lat="45.22235" lon="6.00543">
        <ele>1497.4449462891</ele>
        <time>2017-03-24T11:34:47Z</time>
      </trkpt>
      <trkpt lat="45.22233" lon="6.00535">
        <ele>1495.4449462891</ele>
        <time>2017-03-24T11:34:49Z</time>
      </trkpt>
      <trkpt lat="45.22238" lon="6.0053">
        <ele>1492.4449462891</ele>
        <time>2017-03-24T11:34:52Z</time>
      </trkpt>
      <trkpt lat="45.22235" lon="6.0052">
        <ele>1491.4449462891</ele>
        <time>2017-03-24T11:34:55Z</time>
      </trkpt>
      <trkpt lat="45.22229" lon="6.00506">
        <ele>1491.4449462891</ele>
        <time>2017-03-24T11:34:57Z</time>
      </trkpt>
      <trkpt lat="45.22224" lon="6.00498">
        <ele>1489.4449462891</ele>
        <time>2017-03-24T11:34:59Z</time>
      </trkpt>
      <trkpt lat="45.22222" lon="6.00489">
        <ele>1489.4449462891</ele>
        <time>2017-03-24T11:35:01Z</time>
      </trkpt>
      <trkpt lat="45.22221" lon="6.00475">
        <ele>1486.4449462891</ele>
        <time>2017-03-24T11:35:04Z</time>
      </trkpt>
      <trkpt lat="45.22224" lon="6.00456">
        <ele>1485.4449462891</ele>
        <time>2017-03-24T11:35:07Z</time>
      </trkpt>
      <trkpt lat="45.22227" lon="6.00439">
        <ele>1484.4449462891</ele>
        <time>2017-03-24T11:35:09Z</time>
      </trkpt>
      <trkpt lat="45.22239" lon="6.00435">
        <ele>1478.4449462891</ele>
        <time>2017-03-24T11:35:12Z</time>
      </trkpt>
      <trkpt lat="45.22241" lon="6.00427">
        <ele>1476.4449462891</ele>
        <time>2017-03-24T11:35:16Z</time>
      </trkpt>
      <trkpt lat="45.22243" lon="6.00416">
        <ele>1474.4449462891</ele>
        <time>2017-03-24T11:35:18Z</time>
      </trkpt>
      <trkpt lat="45.22254" lon="6.00402">
        <ele>1468.4449462891</ele>
        <time>2017-03-24T11:35:20Z</time>
      </trkpt>
      <trkpt lat="45.22259" lon="6.00408">
        <ele>1464.4449462891</ele>
        <time>2017-03-24T11:35:21Z</time>
      </trkpt>
      <trkpt lat="45.22264" lon="6.00416">
        <ele>1461.4449462891</ele>
        <time>2017-03-24T11:35:30Z</time>
      </trkpt>
      <trkpt lat="45.22261" lon="6.00407">
        <ele>1458.4449462891</ele>
        <time>2017-03-24T11:35:32Z</time>
      </trkpt>
      <trkpt lat="45.22259" lon="6.00398">
        <ele>1456.4449462891</ele>
        <time>2017-03-24T11:35:34Z</time>
      </trkpt>
      <trkpt lat="45.22262" lon="6.0039">
        <ele>1453.4449462891</ele>
        <time>2017-03-24T11:35:36Z</time>
      </trkpt>
      <trkpt lat="45.22268" lon="6.00393">
        <ele>1452.4449462891</ele>
        <time>2017-03-24T11:35:37Z</time>
      </trkpt>
      <trkpt lat="45.22274" lon="6.00392">
        <ele>1450.4449462891</ele>
        <time>2017-03-24T11:35:39Z</time>
      </trkpt>
      <trkpt lat="45.22274" lon="6.0038">
        <ele>1447.4449462891</ele>
        <time>2017-03-24T11:35:41Z</time>
      </trkpt>
      <trkpt lat="45.2228" lon="6.00373">
        <ele>1446.4449462891</ele>
        <time>2017-03-24T11:35:44Z</time>
      </trkpt>
      <trkpt lat="45.22287" lon="6.00371">
        <ele>1444.4449462891</ele>
        <time>2017-03-24T11:35:48Z</time>
      </trkpt>
      <trkpt lat="45.22289" lon="6.00363">
        <ele>1444.4449462891</ele>
        <time>2017-03-24T11:35:51Z</time>
      </trkpt>
      <trkpt lat="45.22289" lon="6.00354">
        <ele>1445.4449462891</ele>
        <time>2017-03-24T11:35:54Z</time>
      </trkpt>
      <trkpt lat="45.22296" lon="6.00345">
        <ele>1443.4449462891</ele>
        <time>2017-03-24T11:35:56Z</time>
      </trkpt>
      <trkpt lat="45.22298" lon="6.00333">
        <ele>1442.4449462891</ele>
        <time>2017-03-24T11:35:58Z</time>
      </trkpt>
      <trkpt lat="45.22307" lon="6.00323">
        <ele>1441.4449462891</ele>
        <time>2017-03-24T11:36:01Z</time>
      </trkpt>
      <trkpt lat="45.22313" lon="6.00317">
        <ele>1437.4449462891</ele>
        <time>2017-03-24T11:36:03Z</time>
      </trkpt>
      <trkpt lat="45.22313" lon="6.00305">
        <ele>1435.4449462891</ele>
        <time>2017-03-24T11:36:05Z</time>
      </trkpt>
      <trkpt lat="45.22315" lon="6.0029">
        <ele>1434.4449462891</ele>
        <time>2017-03-24T11:36:07Z</time>
      </trkpt>
      <trkpt lat="45.22317" lon="6.00281">
        <ele>1434.4449462891</ele>
        <time>2017-03-24T11:36:08Z</time>
      </trkpt>
      <trkpt lat="45.22315" lon="6.00261">
        <ele>1433.4449462891</ele>
        <time>2017-03-24T11:36:11Z</time>
      </trkpt>
      <trkpt lat="45.22311" lon="6.00255">
        <ele>1431.4449462891</ele>
        <time>2017-03-24T11:36:13Z</time>
      </trkpt>
      <trkpt lat="45.22306" lon="6.00245">
        <ele>1430.4449462891</ele>
        <time>2017-03-24T11:36:15Z</time>
      </trkpt>
      <trkpt lat="45.22302" lon="6.00235">
        <ele>1428.4449462891</ele>
        <time>2017-03-24T11:36:17Z</time>
      </trkpt>
      <trkpt lat="45.22302" lon="6.0022">
        <ele>1422.4449462891</ele>
        <time>2017-03-24T11:36:20Z</time>
      </trkpt>
      <trkpt lat="45.22304" lon="6.00206">
        <ele>1419.4449462891</ele>
        <time>2017-03-24T11:36:22Z</time>
      </trkpt>
      <trkpt lat="45.22313" lon="6.00199">
        <ele>1416.4449462891</ele>
        <time>2017-03-24T11:36:24Z</time>
      </trkpt>
      <trkpt lat="45.22324" lon="6.00195">
        <ele>1415.4449462891</ele>
        <time>2017-03-24T11:36:25Z</time>
      </trkpt>
      <trkpt lat="45.22331" lon="6.00192">
        <ele>1411.4449462891</ele>
        <time>2017-03-24T11:36:27Z</time>
      </trkpt>
      <trkpt lat="45.22332" lon="6.00185">
        <ele>1410.4449462891</ele>
        <time>2017-03-24T11:36:30Z</time>
      </trkpt>
      <trkpt lat="45.22335" lon="6.00178">
        <ele>1409.4449462891</ele>
        <time>2017-03-24T11:36:31Z</time>
      </trkpt>
      <trkpt lat="45.22342" lon="6.00168">
        <ele>1407.4449462891</ele>
        <time>2017-03-24T11:36:33Z</time>
      </trkpt>
      <trkpt lat="45.22352" lon="6.00164">
        <ele>1407.4449462891</ele>
        <time>2017-03-24T11:36:37Z</time>
      </trkpt>
      <trkpt lat="45.22357" lon="6.0016">
        <ele>1405.4449462891</ele>
        <time>2017-03-24T11:36:40Z</time>
      </trkpt>
      <trkpt lat="45.2236" lon="6.00155">
        <ele>1407.4449462891</ele>
        <time>2017-03-24T11:36:43Z</time>
      </trkpt>
      <trkpt lat="45.22362" lon="6.00149">
        <ele>1407.4449462891</ele>
        <time>2017-03-24T11:36:51Z</time>
      </trkpt>
      <trkpt lat="45.22363" lon="6.00143">
        <ele>1405.4449462891</ele>
        <time>2017-03-24T11:38:26Z</time>
      </trkpt>
      <trkpt lat="45.22367" lon="6.00139">
        <ele>1405.4449462891</ele>
        <time>2017-03-24T11:38:30Z</time>
      </trkpt>
      <trkpt lat="45.2237" lon="6.00133">
        <ele>1402.4449462891</ele>
        <time>2017-03-24T11:38:33Z</time>
      </trkpt>
      <trkpt lat="45.22374" lon="6.00124">
        <ele>1403.4449462891</ele>
        <time>2017-03-24T11:38:35Z</time>
      </trkpt>
      <trkpt lat="45.22379" lon="6.00123">
        <ele>1400.4449462891</ele>
        <time>2017-03-24T11:38:39Z</time>
      </trkpt>
      <trkpt lat="45.22384" lon="6.00121">
        <ele>1397.4449462891</ele>
        <time>2017-03-24T11:38:43Z</time>
      </trkpt>
      <trkpt lat="45.22391" lon="6.0012">
        <ele>1400.4449462891</ele>
        <time>2017-03-24T11:38:49Z</time>
      </trkpt>
      <trkpt lat="45.22397" lon="6.00117">
        <ele>1399.4449462891</ele>
        <time>2017-03-24T11:38:51Z</time>
      </trkpt>
      <trkpt lat="45.22402" lon="6.00113">
        <ele>1399.4449462891</ele>
        <time>2017-03-24T11:38:57Z</time>
      </trkpt>
      <trkpt lat="45.22405" lon="6.00108">
        <ele>1397.4449462891</ele>
        <time>2017-03-24T11:39:01Z</time>
      </trkpt>
      <trkpt lat="45.22405" lon="6.00101">
        <ele>1390.4449462891</ele>
        <time>2017-03-24T11:39:14Z</time>
      </trkpt>
      <trkpt lat="45.22408" lon="6.00095">
        <ele>1391.4449462891</ele>
        <time>2017-03-24T11:39:19Z</time>
      </trkpt>
      <trkpt lat="45.22412" lon="6.0009">
        <ele>1388.4449462891</ele>
        <time>2017-03-24T11:39:24Z</time>
      </trkpt>
      <trkpt lat="45.22413" lon="6.00082">
        <ele>1385.4449462891</ele>
        <time>2017-03-24T11:39:30Z</time>
      </trkpt>
      <trkpt lat="45.22417" lon="6.00077">
        <ele>1378.4449462891</ele>
        <time>2017-03-24T11:39:52Z</time>
      </trkpt>
      <trkpt lat="45.22419" lon="6.00071">
        <ele>1378.4449462891</ele>
        <time>2017-03-24T11:39:55Z</time>
      </trkpt>
      <trkpt lat="45.2242" lon="6.00064">
        <ele>1383.4449462891</ele>
        <time>2017-03-24T11:40:02Z</time>
      </trkpt>
      <trkpt lat="45.22421" lon="6.00057">
        <ele>1384.4449462891</ele>
        <time>2017-03-24T11:40:22Z</time>
      </trkpt>
      <trkpt lat="45.22421" lon="6.00049">
        <ele>1383.4449462891</ele>
        <time>2017-03-24T11:40:27Z</time>
      </trkpt>
      <trkpt lat="45.22423" lon="6.00042">
        <ele>1383.4449462891</ele>
        <time>2017-03-24T11:40:36Z</time>
      </trkpt>
      <trkpt lat="45.22427" lon="6.00038">
        <ele>1376.4449462891</ele>
        <time>2017-03-24T11:41:13Z</time>
      </trkpt>
      <trkpt lat="45.22428" lon="6.00031">
        <ele>1368.4449462891</ele>
        <time>2017-03-24T11:41:18Z</time>
      </trkpt>
      <trkpt lat="45.22431" lon="6.00024">
        <ele>1365.4449462891</ele>
        <time>2017-03-24T11:41:23Z</time>
      </trkpt>
      <trkpt lat="45.22433" lon="6.00017">
        <ele>1363.4449462891</ele>
        <time>2017-03-24T11:41:32Z</time>
      </trkpt>
      <trkpt lat="45.22434" lon="6.00011">
        <ele>1363.4449462891</ele>
        <time>2017-03-24T11:41:35Z</time>
      </trkpt>
      <trkpt lat="45.22436" lon="6.00004">
        <ele>1363.4449462891</ele>
        <time>2017-03-24T11:41:38Z</time>
      </trkpt>
      <trkpt lat="45.22438" lon="5.99997">
        <ele>1363.4449462891</ele>
        <time>2017-03-24T11:41:41Z</time>
      </trkpt>
      <trkpt lat="45.22441" lon="5.99991">
        <ele>1362.4449462891</ele>
        <time>2017-03-24T11:41:45Z</time>
      </trkpt>
      <trkpt lat="45.22443" lon="5.99985">
        <ele>1363.4449462891</ele>
        <time>2017-03-24T11:41:48Z</time>
      </trkpt>
      <trkpt lat="45.22445" lon="5.99979">
        <ele>1364.4449462891</ele>
        <time>2017-03-24T11:41:55Z</time>
      </trkpt>
      <trkpt lat="45.22447" lon="5.99971">
        <ele>1361.4449462891</ele>
        <time>2017-03-24T11:41:59Z</time>
      </trkpt>
      <trkpt lat="45.22447" lon="5.99963">
        <ele>1356.4449462891</ele>
        <time>2017-03-24T11:42:04Z</time>
      </trkpt>
      <trkpt lat="45.22448" lon="5.99956">
        <ele>1356.4449462891</ele>
        <time>2017-03-24T11:42:06Z</time>
      </trkpt>
      <trkpt lat="45.22449" lon="5.99948">
        <ele>1358.4449462891</ele>
        <time>2017-03-24T11:42:08Z</time>
      </trkpt>
      <trkpt lat="45.22452" lon="5.99941">
        <ele>1358.4449462891</ele>
        <time>2017-03-24T11:42:11Z</time>
      </trkpt>
      <trkpt lat="45.22453" lon="5.99935">
        <ele>1355.4449462891</ele>
        <time>2017-03-24T11:42:14Z</time>
      </trkpt>
      <trkpt lat="45.22452" lon="5.99928">
        <ele>1357.4449462891</ele>
        <time>2017-03-24T11:42:17Z</time>
      </trkpt>
      <trkpt lat="45.22453" lon="5.99919">
        <ele>1359.4449462891</ele>
        <time>2017-03-24T11:42:21Z</time>
      </trkpt>
      <trkpt lat="45.22451" lon="5.99913">
        <ele>1358.4449462891</ele>
        <time>2017-03-24T11:42:29Z</time>
      </trkpt>
      <trkpt lat="45.2245" lon="5.99907">
        <ele>1358.4449462891</ele>
        <time>2017-03-24T11:42:32Z</time>
      </trkpt>
      <trkpt lat="45.22451" lon="5.999">
        <ele>1360.4449462891</ele>
        <time>2017-03-24T11:42:35Z</time>
      </trkpt>
      <trkpt lat="45.2245" lon="5.99893">
        <ele>1360.4449462891</ele>
        <time>2017-03-24T11:42:40Z</time>
      </trkpt>
      <trkpt lat="45.2245" lon="5.99887">
        <ele>1356.4449462891</ele>
        <time>2017-03-24T11:42:47Z</time>
      </trkpt>
      <trkpt lat="45.2245" lon="5.9988">
        <ele>1356.4449462891</ele>
        <time>2017-03-24T11:42:54Z</time>
      </trkpt>
      <trkpt lat="45.22449" lon="5.99873">
        <ele>1354.4449462891</ele>
        <time>2017-03-24T11:42:59Z</time>
      </trkpt>
      <trkpt lat="45.22448" lon="5.99864">
        <ele>1354.4449462891</ele>
        <time>2017-03-24T11:43:06Z</time>
      </trkpt>
      <trkpt lat="45.22448" lon="5.99857">
        <ele>1354.4449462891</ele>
        <time>2017-03-24T11:43:10Z</time>
      </trkpt>
      <trkpt lat="45.22451" lon="5.9985">
        <ele>1353.4449462891</ele>
        <time>2017-03-24T11:43:17Z</time>
      </trkpt>
      <trkpt lat="45.22454" lon="5.99845">
        <ele>1352.4449462891</ele>
        <time>2017-03-24T11:43:22Z</time>
      </trkpt>
      <trkpt lat="45.22458" lon="5.9984">
        <ele>1354.4449462891</ele>
        <time>2017-03-24T11:43:26Z</time>
      </trkpt>
      <trkpt lat="45.22463" lon="5.99836">
        <ele>1352.4449462891</ele>
        <time>2017-03-24T11:43:31Z</time>
      </trkpt>
      <trkpt lat="45.22467" lon="5.99832">
        <ele>1352.4449462891</ele>
        <time>2017-03-24T11:43:35Z</time>
      </trkpt>
      <trkpt lat="45.22472" lon="5.99831">
        <ele>1353.4449462891</ele>
        <time>2017-03-24T11:43:55Z</time>
      </trkpt>
      <trkpt lat="45.22473" lon="5.99824">
        <ele>1348.4449462891</ele>
        <time>2017-03-24T11:47:08Z</time>
      </trkpt>
      <trkpt lat="45.22475" lon="5.99818">
        <ele>1348.4449462891</ele>
        <time>2017-03-24T11:47:25Z</time>
      </trkpt>
    </trkseg>
  </trk>
</gpx>